Wetterdaten: Montag, 06.08.2018
Datum Zeit Temp. A. Pool Temp. Temp. 5cm Feuchte A. Luftdruck Regen Wind Richtung Richtung Sonnenschein ET UV Solar Taupunkt Windchill Windben Empfang
06.08.2018 00:00 20,3 C 27,2 C 19,4 C 87 % 1015,7 hPa 0,0 l/m 3,5 km/h (1 Bft) SW 215 0 min 0,000 mm 0,0 UV-I 0 W/m 18,1 C 20,3 C 4,8 km/h (1 Bft) 95,83 %
06.08.2018 00:02 20,3 C 27,2 C 19,4 C 87 % 1015,8 hPa 0,0 l/m 2,9 km/h (1 Bft) SW 215 0 min 0,000 mm 0,0 UV-I 0 W/m 18,1 C 20,3 C 4,8 km/h (1 Bft) 9,52 %
06.08.2018 00:04 20,4 C 27,2 C 19,4 C 87 % 1015,8 hPa 0,0 l/m 2,7 km/h (1 Bft) SW 215 0 min 0,000 mm 0,0 UV-I 0 W/m 18,2 C 20,4 C 3,2 km/h (1 Bft) 93,10 %
06.08.2018 00:06 20,5 C 27,2 C 19,4 C 86 % 1015,9 hPa 0,0 l/m 2,1 km/h (1 Bft) SW 215 0 min 0,000 mm 0,0 UV-I 0 W/m 18,1 C 20,5 C 3,2 km/h (1 Bft) 97,87 %
06.08.2018 00:08 20,4 C 27,2 C 18,9 C 86 % 1015,9 hPa 0,0 l/m 2,1 km/h (1 Bft) SW 215 0 min 0,000 mm 0,0 UV-I 0 W/m 18,0 C 20,4 C 3,2 km/h (1 Bft) 94,74 %
06.08.2018 00:10 20,3 C 27,2 C 18,9 C 87 % 1015,9 hPa 0,0 l/m 1,7 km/h (1 Bft) S 170 0 min 0,000 mm 0,0 UV-I 0 W/m 18,1 C 20,3 C 3,2 km/h (1 Bft) 98,21 %
06.08.2018 00:12 20,3 C 27,2 C 18,9 C 87 % 1015,9 hPa 0,0 l/m 1,2 km/h (1 Bft) S 170 0 min 0,000 mm 0,0 UV-I 0 W/m 18,1 C 20,3 C 3,2 km/h (1 Bft) 97,14 %
06.08.2018 00:14 20,2 C 27,2 C 18,9 C 87 % 1015,9 hPa 0,0 l/m 0,7 km/h (0 Bft) S 170 0 min 0,000 mm 0,0 UV-I 0 W/m 18,0 C 20,2 C 1,6 km/h (1 Bft) 96,00 %
06.08.2018 00:16 20,3 C 27,2 C 18,9 C 87 % 1015,9 hPa 0,0 l/m 1,7 km/h (1 Bft) S 170 0 min 0,000 mm 0,0 UV-I 0 W/m 18,1 C 20,3 C 6,4 km/h (2 Bft) 97,87 %
06.08.2018 00:18 20,4 C 27,2 C 18,3 C 88 % 1016,0 hPa 0,0 l/m 2,6 km/h (1 Bft) S 170 0 min 0,000 mm 0,0 UV-I 0 W/m 18,3 C 20,4 C 6,4 km/h (2 Bft) 96,00 %
06.08.2018 00:20 20,4 C 27,2 C 18,3 C 88 % 1015,9 hPa 0,0 l/m 1,9 km/h (1 Bft) S 170 0 min 0,000 mm 0,0 UV-I 0 W/m 18,3 C 20,4 C 3,2 km/h (1 Bft) 96,00 %
06.08.2018 00:22 20,5 C 27,2 C 18,9 C 88 % 1016,0 hPa 0,0 l/m 4,4 km/h (1 Bft) S-SO 155 0 min 0,000 mm 0,0 UV-I 0 W/m 18,4 C 20,5 C 8,0 km/h (2 Bft) 98,00 %
06.08.2018 00:24 20,5 C 27,2 C 18,9 C 87 % 1016,1 hPa 0,0 l/m 2,2 km/h (1 Bft) S-SO 155 0 min 0,000 mm 0,0 UV-I 0 W/m 18,3 C 20,5 C 3,2 km/h (1 Bft) 97,37 %
06.08.2018 00:26 20,4 C 27,2 C 18,9 C 87 % 1016,1 hPa 0,0 l/m 1,0 km/h (0 Bft) S-SO 155 0 min 0,000 mm 0,0 UV-I 0 W/m 18,2 C 20,4 C 1,6 km/h (1 Bft) 96,23 %
06.08.2018 00:28 20,4 C 27,2 C 18,9 C 87 % 1016,1 hPa 0,0 l/m 2,7 km/h (1 Bft) S-SW 208 0 min 0,000 mm 0,0 UV-I 0 W/m 18,2 C 20,4 C 4,8 km/h (1 Bft) 94,87 %
06.08.2018 00:30 20,3 C 27,2 C 18,9 C 87 % 1016,2 hPa 0,0 l/m 2,8 km/h (1 Bft) S-SW 208 0 min 0,000 mm 0,0 UV-I 0 W/m 18,1 C 20,3 C 3,2 km/h (1 Bft) 98,08 %
06.08.2018 00:32 20,1 C 27,2 C 18,9 C 87 % 1016,3 hPa 0,0 l/m 1,4 km/h (1 Bft) S-SW 208 0 min 0,000 mm 0,0 UV-I 0 W/m 17,9 C 20,1 C 3,2 km/h (1 Bft) 98,00 %
06.08.2018 00:34 20,0 C 27,2 C 18,9 C 88 % 1016,3 hPa 0,0 l/m 0,1 km/h (0 Bft) S-SW 208 0 min 0,000 mm 0,0 UV-I 0 W/m 17,9 C 20,0 C 1,6 km/h (1 Bft) 100,00 %
06.08.2018 00:36 19,8 C 27,2 C 18,9 C 87 % 1016,3 hPa 0,0 l/m 0,0 km/h (0 Bft) S-SW 208 0 min 0,000 mm 0,0 UV-I 0 W/m 17,6 C 19,8 C 0,0 km/h (0 Bft) 97,87 %
06.08.2018 00:38 19,7 C 27,2 C 18,9 C 88 % 1016,3 hPa 0,0 l/m 0,0 km/h (0 Bft) S-SW 208 0 min 0,000 mm 0,0 UV-I 0 W/m 17,7 C 19,7 C 1,6 km/h (1 Bft) 94,29 %
06.08.2018 00:40 19,7 C 27,2 C 18,9 C 89 % 1016,3 hPa 0,0 l/m 0,0 km/h (0 Bft) S-SW 208 0 min 0,000 mm 0,0 UV-I 0 W/m 17,8 C 19,7 C 0,0 km/h (0 Bft) 100,00 %
06.08.2018 00:42 19,8 C 27,2 C 18,9 C 89 % 1016,2 hPa 0,0 l/m 0,2 km/h (0 Bft) S-SW 208 0 min 0,000 mm 0,0 UV-I 0 W/m 17,9 C 19,8 C 1,6 km/h (1 Bft) 95,74 %
06.08.2018 00:44 19,8 C 27,2 C 18,9 C 88 % 1016,2 hPa 0,0 l/m 2,0 km/h (1 Bft) S-SW 208 0 min 0,000 mm 0,0 UV-I 0 W/m 17,8 C 19,8 C 3,2 km/h (1 Bft) 98,00 %
06.08.2018 00:46 19,8 C 27,2 C 18,9 C 88 % 1016,2 hPa 0,0 l/m 1,4 km/h (1 Bft) S-SW 208 0 min 0,000 mm 0,0 UV-I 0 W/m 17,8 C 19,8 C 3,2 km/h (1 Bft) 97,87 %
06.08.2018 00:48 19,8 C 27,2 C 18,9 C 89 % 1016,2 hPa 0,0 l/m 0,9 km/h (0 Bft) S-SW 208 0 min 0,000 mm 0,0 UV-I 0 W/m 17,9 C 19,8 C 3,2 km/h (1 Bft) 97,87 %
06.08.2018 00:50 19,8 C 27,2 C 18,9 C 90 % 1016,2 hPa 0,0 l/m 1,0 km/h (0 Bft) S-SW 208 0 min 0,000 mm 0,0 UV-I 0 W/m 18,1 C 19,8 C 3,2 km/h (1 Bft) 98,00 %
06.08.2018 00:52 19,9 C 27,2 C 18,9 C 90 % 1016,2 hPa 0,0 l/m 0,2 km/h (0 Bft) S-SW 208 0 min 0,000 mm 0,0 UV-I 0 W/m 18,2 C 19,9 C 1,6 km/h (1 Bft) 97,37 %
06.08.2018 00:54 19,9 C 27,2 C 18,9 C 89 % 1016,3 hPa 0,0 l/m 0,6 km/h (0 Bft) S-SW 208 0 min 0,000 mm 0,0 UV-I 0 W/m 18,0 C 19,9 C 1,6 km/h (1 Bft) 96,00 %
06.08.2018 00:56 19,8 C 27,2 C 18,9 C 89 % 1016,3 hPa 0,0 l/m 2,2 km/h (1 Bft) S-SW 208 0 min 0,000 mm 0,0 UV-I 0 W/m 17,9 C 19,8 C 3,2 km/h (1 Bft) 95,12 %
06.08.2018 00:58 19,7 C 27,2 C 18,9 C 89 % 1016,2 hPa 0,0 l/m 1,9 km/h (1 Bft) S-SW 208 0 min 0,000 mm 0,0 UV-I 0 W/m 17,8 C 19,7 C 3,2 km/h (1 Bft) 98,00 %
06.08.2018 01:00 19,7 C 27,2 C 18,9 C 89 % 1016,3 hPa 0,0 l/m 2,9 km/h (1 Bft) S-SW 208 0 min 0,000 mm 0,0 UV-I 0 W/m 17,8 C 19,7 C 4,8 km/h (1 Bft) 96,00 %
06.08.2018 01:02 19,6 C 27,2 C 18,9 C 89 % 1016,3 hPa 0,0 l/m 2,4 km/h (1 Bft) S-SW 208 0 min 0,000 mm 0,0 UV-I 0 W/m 17,7 C 19,6 C 4,8 km/h (1 Bft) 97,87 %
06.08.2018 01:04 19,7 C 27,2 C 18,9 C 90 % 1016,3 hPa 0,0 l/m 0,9 km/h (0 Bft) S-SW 208 0 min 0,000 mm 0,0 UV-I 0 W/m 18,0 C 19,7 C 1,6 km/h (1 Bft) 95,74 %
06.08.2018 01:06 19,9 C 27,2 C 18,9 C 90 % 1016,3 hPa 0,0 l/m 2,2 km/h (1 Bft) S-SW 208 0 min 0,000 mm 0,0 UV-I 0 W/m 18,2 C 19,9 C 3,2 km/h (1 Bft) 96,00 %
06.08.2018 01:08 19,9 C 27,2 C 18,9 C 89 % 1016,3 hPa 0,0 l/m 3,9 km/h (1 Bft) S-SW 208 0 min 0,000 mm 0,0 UV-I 0 W/m 18,0 C 19,9 C 4,8 km/h (1 Bft) 100,00 %
06.08.2018 01:10 20,0 C 27,2 C 19,4 C 89 % 1016,3 hPa 0,0 l/m 3,9 km/h (1 Bft) S-SW 208 0 min 0,000 mm 0,0 UV-I 0 W/m 18,1 C 20,0 C 4,8 km/h (1 Bft) 100,00 %
06.08.2018 01:12 20,1 C 27,2 C 18,9 C 89 % 1016,3 hPa 0,0 l/m 3,1 km/h (1 Bft) S-SW 208 0 min 0,000 mm 0,0 UV-I 0 W/m 18,2 C 20,1 C 4,8 km/h (1 Bft) 100,00 %
06.08.2018 01:14 20,1 C 27,2 C 18,9 C 89 % 1016,3 hPa 0,0 l/m 1,9 km/h (1 Bft) S-SW 208 0 min 0,000 mm 0,0 UV-I 0 W/m 18,2 C 20,1 C 3,2 km/h (1 Bft) 97,37 %
06.08.2018 01:16 20,1 C 27,2 C 18,9 C 89 % 1016,3 hPa 0,0 l/m 1,0 km/h (0 Bft) S-SW 208 0 min 0,000 mm 0,0 UV-I 0 W/m 18,2 C 20,1 C 3,2 km/h (1 Bft) 100,00 %
06.08.2018 01:18 19,9 C 27,2 C 18,9 C 89 % 1016,3 hPa 0,0 l/m 1,0 km/h (0 Bft) S-SW 208 0 min 0,000 mm 0,0 UV-I 0 W/m 18,0 C 19,9 C 3,2 km/h (1 Bft) 98,00 %
06.08.2018 01:20 19,9 C 27,2 C 18,9 C 89 % 1016,3 hPa 0,0 l/m 3,2 km/h (1 Bft) SW 218 0 min 0,000 mm 0,0 UV-I 0 W/m 18,0 C 19,9 C 4,8 km/h (1 Bft) 97,14 %
06.08.2018 01:22 19,8 C 27,2 C 18,9 C 89 % 1016,3 hPa 0,0 l/m 4,4 km/h (1 Bft) SW 226 0 min 0,000 mm 0,0 UV-I 0 W/m 17,9 C 19,8 C 6,4 km/h (2 Bft) 96,23 %
06.08.2018 01:24 19,7 C 27,2 C 18,9 C 89 % 1016,3 hPa 0,0 l/m 4,5 km/h (1 Bft) SW 226 0 min 0,000 mm 0,0 UV-I 0 W/m 17,8 C 19,7 C 6,4 km/h (2 Bft) 97,73 %
06.08.2018 01:26 19,7 C 27,2 C 18,9 C 89 % 1016,3 hPa 0,0 l/m 4,3 km/h (1 Bft) SW 226 0 min 0,000 mm 0,0 UV-I 0 W/m 17,8 C 19,7 C 4,8 km/h (1 Bft) 97,87 %
06.08.2018 01:28 19,7 C 27,2 C 18,9 C 90 % 1016,3 hPa 0,0 l/m 3,7 km/h (1 Bft) SW 226 0 min 0,000 mm 0,0 UV-I 0 W/m 18,0 C 19,7 C 4,8 km/h (1 Bft) 98,00 %
06.08.2018 01:30 19,7 C 27,2 C 18,9 C 90 % 1016,3 hPa 0,0 l/m 3,8 km/h (1 Bft) SW 226 0 min 0,000 mm 0,0 UV-I 0 W/m 18,0 C 19,7 C 4,8 km/h (1 Bft) 96,00 %
06.08.2018 01:32 19,8 C 27,2 C 18,9 C 90 % 1016,3 hPa 0,0 l/m 4,3 km/h (1 Bft) SW 227 0 min 0,000 mm 0,0 UV-I 0 W/m 18,1 C 19,8 C 4,8 km/h (1 Bft) 95,74 %
06.08.2018 01:34 19,8 C 27,2 C 18,9 C 90 % 1016,2 hPa 0,0 l/m 4,0 km/h (1 Bft) SW 227 0 min 0,000 mm 0,0 UV-I 0 W/m 18,1 C 19,8 C 4,8 km/h (1 Bft) 98,00 %
06.08.2018 01:36 19,8 C 27,2 C 18,9 C 90 % 1016,2 hPa 0,0 l/m 3,0 km/h (1 Bft) SW 227 0 min 0,000 mm 0,0 UV-I 0 W/m 18,1 C 19,8 C 4,8 km/h (1 Bft) 97,56 %
06.08.2018 01:38 19,8 C 27,2 C 18,9 C 89 % 1016,2 hPa 0,0 l/m 3,9 km/h (1 Bft) SW 226 0 min 0,000 mm 0,0 UV-I 0 W/m 17,9 C 19,8 C 4,8 km/h (1 Bft) 95,74 %
06.08.2018 01:40 19,8 C 27,2 C 18,9 C 89 % 1016,2 hPa 0,0 l/m 3,0 km/h (1 Bft) SW 226 0 min 0,000 mm 0,0 UV-I 0 W/m 17,9 C 19,8 C 3,2 km/h (1 Bft) 97,44 %
06.08.2018 01:42 19,7 C 27,2 C 18,9 C 88 % 1016,1 hPa 0,0 l/m 1,8 km/h (1 Bft) SW 226 0 min 0,000 mm 0,0 UV-I 0 W/m 17,7 C 19,7 C 3,2 km/h (1 Bft) 94,55 %
06.08.2018 01:44 19,5 C 27,2 C 18,3 C 89 % 1016,1 hPa 0,0 l/m 1,0 km/h (0 Bft) SW 226 0 min 0,000 mm 0,0 UV-I 0 W/m 17,6 C 19,5 C 3,2 km/h (1 Bft) 97,44 %
06.08.2018 01:46 19,4 C 27,2 C 18,3 C 90 % 1016,1 hPa 0,0 l/m 0,6 km/h (0 Bft) SW 226 0 min 0,000 mm 0,0 UV-I 0 W/m 17,7 C 19,4 C 1,6 km/h (1 Bft) 98,11 %
06.08.2018 01:48 19,3 C 27,2 C 18,3 C 90 % 1016,1 hPa 0,0 l/m 0,0 km/h (0 Bft) SW 226 0 min 0,000 mm 0,0 UV-I 0 W/m 17,6 C 19,3 C 0,0 km/h (0 Bft) 97,87 %
06.08.2018 01:50 19,3 C 27,2 C 17,8 C 90 % 1016,2 hPa 0,0 l/m 0,0 km/h (0 Bft) SW 226 0 min 0,000 mm 0,0 UV-I 0 W/m 17,6 C 19,3 C 0,0 km/h (0 Bft) 97,87 %
06.08.2018 01:52 19,4 C 27,2 C 17,8 C 90 % 1016,1 hPa 0,0 l/m 0,0 km/h (0 Bft) SW 226 0 min 0,000 mm 0,0 UV-I 0 W/m 17,7 C 19,4 C 0,0 km/h (0 Bft) 96,00 %
06.08.2018 01:54 19,4 C 27,2 C 17,8 C 91 % 1016,1 hPa 0,0 l/m 0,0 km/h (0 Bft) SW 226 0 min 0,000 mm 0,0 UV-I 0 W/m 17,9 C 19,4 C 0,0 km/h (0 Bft) 98,00 %
06.08.2018 01:56 19,6 C 27,2 C 17,8 C 90 % 1016,1 hPa 0,0 l/m 0,0 km/h (0 Bft) SW 226 0 min 0,000 mm 0,0 UV-I 0 W/m 17,9 C 19,6 C 0,0 km/h (0 Bft) 97,87 %
06.08.2018 01:58 19,6 C 27,2 C 17,2 C 89 % 1016,0 hPa 0,0 l/m 0,0 km/h (0 Bft) SW 226 0 min 0,000 mm 0,0 UV-I 0 W/m 17,7 C 19,6 C 0,0 km/h (0 Bft) 94,74 %
06.08.2018 02:00 19,5 C 27,2 C 17,2 C 89 % 1016,1 hPa 0,0 l/m 0,0 km/h (0 Bft) SW 226 0 min 0,000 mm 0,0 UV-I 0 W/m 17,6 C 19,5 C 0,0 km/h (0 Bft) 96,00 %
06.08.2018 02:02 19,4 C 27,2 C 17,2 C 89 % 1016,1 hPa 0,0 l/m 0,0 km/h (0 Bft) SW 226 0 min 0,000 mm 0,0 UV-I 0 W/m 17,5 C 19,4 C 0,0 km/h (0 Bft) 93,62 %
06.08.2018 02:04 19,3 C 27,2 C 17,2 C 89 % 1016,1 hPa 0,0 l/m 0,0 km/h (0 Bft) SW 226 0 min 0,000 mm 0,0 UV-I 0 W/m 17,4 C 19,3 C 0,0 km/h (0 Bft) 96,00 %
06.08.2018 02:06 19,2 C 27,2 C 17,2 C 90 % 1016,1 hPa 0,0 l/m 0,0 km/h (0 Bft) SW 226 0 min 0,000 mm 0,0 UV-I 0 W/m 17,5 C 19,2 C 0,0 km/h (0 Bft) 95,12 %
06.08.2018 02:08 19,2 C 27,2 C 17,2 C 90 % 1016,1 hPa 0,0 l/m 0,0 km/h (0 Bft) SW 226 0 min 0,000 mm 0,0 UV-I 0 W/m 17,5 C 19,2 C 0,0 km/h (0 Bft) 91,49 %
06.08.2018 02:10 19,2 C 27,2 C 16,7 C 90 % 1016,1 hPa 0,0 l/m 0,0 km/h (0 Bft) SW 226 0 min 0,000 mm 0,0 UV-I 0 W/m 17,5 C 19,2 C 0,0 km/h (0 Bft) 93,62 %
06.08.2018 02:12 19,2 C 27,2 C 16,7 C 90 % 1016,1 hPa 0,0 l/m 0,0 km/h (0 Bft) SW 226 0 min 0,000 mm 0,0 UV-I 0 W/m 17,5 C 19,2 C 0,0 km/h (0 Bft) 91,07 %
06.08.2018 02:14 19,2 C 27,2 C 17,2 C 90 % 1016,2 hPa 0,0 l/m 2,2 km/h (1 Bft) SW 226 0 min 0,000 mm 0,0 UV-I 0 W/m 17,5 C 19,2 C 3,2 km/h (1 Bft) 92,11 %
06.08.2018 02:16 19,1 C 27,2 C 17,2 C 91 % 1016,2 hPa 0,0 l/m 1,8 km/h (1 Bft) SW 226 0 min 0,000 mm 0,0 UV-I 0 W/m 17,6 C 19,1 C 3,2 km/h (1 Bft) 92,00 %
06.08.2018 02:18 19,0 C 27,2 C 17,2 C 91 % 1016,3 hPa 0,0 l/m 1,1 km/h (1 Bft) SW 226 0 min 0,000 mm 0,0 UV-I 0 W/m 17,5 C 19,0 C 1,6 km/h (1 Bft) 92,00 %
06.08.2018 02:20 18,9 C 27,2 C 17,2 C 91 % 1016,3 hPa 0,0 l/m 1,2 km/h (1 Bft) SW 226 0 min 0,000 mm 0,0 UV-I 0 W/m 17,4 C 18,9 C 3,2 km/h (1 Bft) 97,22 %
06.08.2018 02:22 18,8 C 27,2 C 17,2 C 90 % 1016,4 hPa 0,0 l/m 3,0 km/h (1 Bft) SW 227 0 min 0,000 mm 0,0 UV-I 0 W/m 17,1 C 18,8 C 4,8 km/h (1 Bft) 94,00 %
06.08.2018 02:24 18,7 C 27,2 C 16,7 C 91 % 1016,3 hPa 0,0 l/m 0,5 km/h (0 Bft) SW 227 0 min 0,000 mm 0,0 UV-I 0 W/m 17,2 C 18,7 C 3,2 km/h (1 Bft) 93,62 %
06.08.2018 02:26 18,7 C 27,2 C 16,7 C 92 % 1016,3 hPa 0,0 l/m 0,3 km/h (0 Bft) SW 227 0 min 0,000 mm 0,0 UV-I 0 W/m 17,4 C 18,7 C 1,6 km/h (1 Bft) 96,23 %
06.08.2018 02:28 18,9 C 27,2 C 16,7 C 92 % 1016,3 hPa 0,0 l/m 0,5 km/h (0 Bft) SW 227 0 min 0,000 mm 0,0 UV-I 0 W/m 17,6 C 18,9 C 1,6 km/h (1 Bft) 94,00 %
06.08.2018 02:30 18,9 C 27,2 C 16,7 C 91 % 1016,3 hPa 0,0 l/m 1,2 km/h (1 Bft) SW 227 0 min 0,000 mm 0,0 UV-I 0 W/m 17,4 C 18,9 C 3,2 km/h (1 Bft) 95,74 %
06.08.2018 02:32 18,9 C 27,2 C 16,7 C 91 % 1016,3 hPa 0,0 l/m 2,3 km/h (1 Bft) SW 227 0 min 0,000 mm 0,0 UV-I 0 W/m 17,4 C 18,9 C 3,2 km/h (1 Bft) 100,00 %
06.08.2018 02:34 19,1 C 27,2 C 16,7 C 92 % 1016,3 hPa 0,0 l/m 2,7 km/h (1 Bft) SW 227 0 min 0,000 mm 0,0 UV-I 0 W/m 17,8 C 19,1 C 3,2 km/h (1 Bft) 94,34 %
06.08.2018 02:36 19,2 C 26,7 C 16,7 C 92 % 1016,3 hPa 0,0 l/m 2,4 km/h (1 Bft) SW 227 0 min 0,000 mm 0,0 UV-I 0 W/m 17,9 C 19,2 C 3,2 km/h (1 Bft) 97,37 %
06.08.2018 02:38 19,2 C 26,7 C 16,7 C 91 % 1016,3 hPa 0,0 l/m 2,7 km/h (1 Bft) SW 227 0 min 0,000 mm 0,0 UV-I 0 W/m 17,7 C 19,2 C 4,8 km/h (1 Bft) 98,11 %
06.08.2018 02:40 19,2 C 26,7 C 16,7 C 91 % 1016,3 hPa 0,0 l/m 3,8 km/h (1 Bft) SW 227 0 min 0,000 mm 0,0 UV-I 0 W/m 17,7 C 19,2 C 4,8 km/h (1 Bft) 100,00 %
06.08.2018 02:42 19,1 C 26,7 C 17,2 C 91 % 1016,2 hPa 0,0 l/m 3,9 km/h (1 Bft) SW 227 0 min 0,000 mm 0,0 UV-I 0 W/m 17,6 C 19,1 C 4,8 km/h (1 Bft) 98,11 %
06.08.2018 02:44 19,0 C 26,7 C 17,2 C 91 % 1016,3 hPa 0,0 l/m 5,0 km/h (1 Bft) NO 53 0 min 0,000 mm 0,0 UV-I 0 W/m 17,5 C 19,0 C 6,4 km/h (2 Bft) 100,00 %
06.08.2018 02:46 19,0 C 26,7 C 17,2 C 92 % 1016,2 hPa 0,0 l/m 4,8 km/h (1 Bft) NO 55 0 min 0,000 mm 0,0 UV-I 0 W/m 17,7 C 19,0 C 6,4 km/h (2 Bft) 98,21 %
06.08.2018 02:48 19,1 C 26,7 C 17,2 C 92 % 1016,2 hPa 0,0 l/m 3,4 km/h (1 Bft) O-NO 63 0 min 0,000 mm 0,0 UV-I 0 W/m 17,8 C 19,1 C 4,8 km/h (1 Bft) 100,00 %
06.08.2018 02:50 19,0 C 26,7 C 17,2 C 92 % 1016,2 hPa 0,0 l/m 4,2 km/h (1 Bft) O-NO 71 0 min 0,000 mm 0,0 UV-I 0 W/m 17,7 C 19,0 C 6,4 km/h (2 Bft) 100,00 %
06.08.2018 02:52 19,0 C 26,7 C 17,2 C 92 % 1016,2 hPa 0,0 l/m 4,0 km/h (1 Bft) O-NO 74 0 min 0,000 mm 0,0 UV-I 0 W/m 17,7 C 19,0 C 4,8 km/h (1 Bft) 97,37 %
06.08.2018 02:54 19,0 C 26,7 C 17,2 C 92 % 1016,2 hPa 0,0 l/m 3,2 km/h (1 Bft) O-NO 74 0 min 0,000 mm 0,0 UV-I 0 W/m 17,7 C 19,0 C 4,8 km/h (1 Bft) 100,00 %
06.08.2018 02:56 19,1 C 26,7 C 17,2 C 92 % 1016,2 hPa 0,0 l/m 2,3 km/h (1 Bft) O-NO 74 0 min 0,000 mm 0,0 UV-I 0 W/m 17,8 C 19,1 C 4,8 km/h (1 Bft) 100,00 %
06.08.2018 02:58 19,1 C 26,7 C 16,7 C 92 % 1016,2 hPa 0,0 l/m 2,1 km/h (1 Bft) O-NO 74 0 min 0,000 mm 0,0 UV-I 0 W/m 17,8 C 19,1 C 3,2 km/h (1 Bft) 100,00 %
06.08.2018 03:00 19,2 C 26,7 C 17,2 C 92 % 1016,2 hPa 0,0 l/m 1,9 km/h (1 Bft) O-NO 74 0 min 0,000 mm 0,0 UV-I 0 W/m 17,9 C 19,2 C 3,2 km/h (1 Bft) 98,11 %
06.08.2018 03:02 19,2 C 26,7 C 17,2 C 92 % 1016,2 hPa 0,0 l/m 0,3 km/h (0 Bft) O-NO 74 0 min 0,000 mm 0,0 UV-I 0 W/m 17,9 C 19,2 C 1,6 km/h (1 Bft) 100,00 %
06.08.2018 03:04 19,2 C 26,7 C 16,7 C 92 % 1016,2 hPa 0,0 l/m 1,5 km/h (1 Bft) O-NO 74 0 min 0,000 mm 0,0 UV-I 0 W/m 17,9 C 19,2 C 3,2 km/h (1 Bft) 97,87 %
06.08.2018 03:06 19,2 C 26,7 C 16,7 C 91 % 1016,2 hPa 0,0 l/m 0,3 km/h (0 Bft) O-NO 74 0 min 0,000 mm 0,0 UV-I 0 W/m 17,7 C 19,2 C 1,6 km/h (1 Bft) 98,11 %
06.08.2018 03:08 19,0 C 26,7 C 16,7 C 91 % 1016,1 hPa 0,0 l/m 1,4 km/h (1 Bft) O-NO 74 0 min 0,000 mm 0,0 UV-I 0 W/m 17,5 C 19,0 C 3,2 km/h (1 Bft) 97,87 %
06.08.2018 03:10 18,8 C 26,7 C 16,7 C 90 % 1016,2 hPa 0,0 l/m 0,5 km/h (0 Bft) O-NO 74 0 min 0,000 mm 0,0 UV-I 0 W/m 17,1 C 18,8 C 3,2 km/h (1 Bft) 100,00 %
06.08.2018 03:12 18,7 C 26,7 C 17,2 C 91 % 1016,2 hPa 0,0 l/m 2,6 km/h (1 Bft) O-NO 75 0 min 0,000 mm 0,0 UV-I 0 W/m 17,2 C 18,7 C 4,8 km/h (1 Bft) 100,00 %
06.08.2018 03:14 18,6 C 26,7 C 17,2 C 91 % 1016,2 hPa 0,0 l/m 1,6 km/h (1 Bft) O-NO 75 0 min 0,000 mm 0,0 UV-I 0 W/m 17,1 C 18,6 C 3,2 km/h (1 Bft) 100,00 %
06.08.2018 03:16 18,4 C 26,7 C 17,2 C 91 % 1016,2 hPa 0,0 l/m 2,6 km/h (1 Bft) O-NO 76 0 min 0,000 mm 0,0 UV-I 0 W/m 16,9 C 18,4 C 4,8 km/h (1 Bft) 97,87 %
06.08.2018 03:18 18,4 C 26,7 C 17,2 C 91 % 1016,2 hPa 0,0 l/m 2,2 km/h (1 Bft) O-NO 76 0 min 0,000 mm 0,0 UV-I 0 W/m 16,9 C 18,4 C 3,2 km/h (1 Bft) 100,00 %
06.08.2018 03:20 18,3 C 26,7 C 17,2 C 91 % 1016,1 hPa 0,0 l/m 2,8 km/h (1 Bft) O-NO 76 0 min 0,000 mm 0,0 UV-I 0 W/m 16,8 C 18,3 C 4,8 km/h (1 Bft) 100,00 %
06.08.2018 03:22 18,3 C 26,7 C 17,2 C 92 % 1016,2 hPa 0,0 l/m 3,4 km/h (1 Bft) SO 140 0 min 0,000 mm 0,0 UV-I 0 W/m 17,0 C 18,3 C 4,8 km/h (1 Bft) 100,00 %
06.08.2018 03:24 18,3 C 26,7 C 17,2 C 92 % 1016,3 hPa 0,0 l/m 3,6 km/h (1 Bft) SO 140 0 min 0,000 mm 0,0 UV-I 0 W/m 17,0 C 18,3 C 4,8 km/h (1 Bft) 100,00 %
06.08.2018 03:26 18,3 C 26,7 C 17,2 C 92 % 1016,2 hPa 0,0 l/m 5,0 km/h (1 Bft) S-SO 167 0 min 0,000 mm 0,0 UV-I 0 W/m 17,0 C 18,3 C 8,0 km/h (2 Bft) 100,00 %
06.08.2018 03:28 18,2 C 26,7 C 17,2 C 93 % 1016,2 hPa 0,0 l/m 6,5 km/h (2 Bft) S-SO 163 0 min 0,000 mm 0,0 UV-I 0 W/m 17,0 C 18,2 C 8,0 km/h (2 Bft) 100,00 %
06.08.2018 03:30 18,3 C 26,7 C 17,8 C 93 % 1016,2 hPa 0,0 l/m 5,3 km/h (1 Bft) S-SO 152 0 min 0,000 mm 0,0 UV-I 0 W/m 17,1 C 18,3 C 8,0 km/h (2 Bft) 100,00 %
06.08.2018 03:32 18,3 C 26,7 C 17,8 C 93 % 1016,2 hPa 0,0 l/m 3,5 km/h (1 Bft) S-SO 152 0 min 0,000 mm 0,0 UV-I 0 W/m 17,1 C 18,3 C 6,4 km/h (2 Bft) 100,00 %
06.08.2018 03:34 18,4 C 26,7 C 17,8 C 94 % 1016,2 hPa 0,0 l/m 4,5 km/h (1 Bft) S-SO 156 0 min 0,000 mm 0,0 UV-I 0 W/m 17,4 C 18,4 C 8,0 km/h (2 Bft) 100,00 %
06.08.2018 03:36 18,4 C 26,7 C 17,8 C 93 % 1016,3 hPa 0,0 l/m 4,0 km/h (1 Bft) S-SO 165 0 min 0,000 mm 0,0 UV-I 0 W/m 17,2 C 18,4 C 8,0 km/h (2 Bft) 100,00 %
06.08.2018 03:38 18,4 C 26,7 C 17,8 C 93 % 1016,3 hPa 0,0 l/m 1,4 km/h (1 Bft) S-SO 165 0 min 0,000 mm 0,0 UV-I 0 W/m 17,2 C 18,4 C 6,4 km/h (2 Bft) 97,92 %
06.08.2018 03:40 18,4 C 26,7 C 17,2 C 93 % 1016,3 hPa 0,0 l/m 2,0 km/h (1 Bft) S-SO 165 0 min 0,000 mm 0,0 UV-I 0 W/m 17,2 C 18,4 C 3,2 km/h (1 Bft) 97,56 %
06.08.2018 03:42 18,3 C 26,7 C 17,2 C 93 % 1016,2 hPa 0,0 l/m 1,6 km/h (1 Bft) S-SO 165 0 min 0,000 mm 0,0 UV-I 0 W/m 17,1 C 18,3 C 3,2 km/h (1 Bft) 97,87 %
06.08.2018 03:44 18,2 C 26,7 C 17,2 C 93 % 1016,3 hPa 0,0 l/m 2,1 km/h (1 Bft) S-SO 165 0 min 0,000 mm 0,0 UV-I 0 W/m 17,0 C 18,2 C 3,2 km/h (1 Bft) 97,87 %
06.08.2018 03:46 18,2 C 26,7 C 17,2 C 93 % 1016,3 hPa 0,0 l/m 2,4 km/h (1 Bft) S-SO 165 0 min 0,000 mm 0,0 UV-I 0 W/m 17,0 C 18,2 C 3,2 km/h (1 Bft) 97,87 %
06.08.2018 03:48 18,1 C 26,7 C 17,2 C 93 % 1016,2 hPa 0,0 l/m 2,6 km/h (1 Bft) S-SO 165 0 min 0,000 mm 0,0 UV-I 0 W/m 16,9 C 18,1 C 3,2 km/h (1 Bft) 96,23 %
06.08.2018 03:50 18,1 C 26,7 C 17,2 C 93 % 1016,2 hPa 0,0 l/m 0,9 km/h (0 Bft) S-SO 165 0 min 0,000 mm 0,0 UV-I 0 W/m 16,9 C 18,1 C 1,6 km/h (1 Bft) 97,87 %
06.08.2018 03:52 18,1 C 26,7 C 17,2 C 93 % 1016,2 hPa 0,0 l/m 1,2 km/h (1 Bft) S-SO 165 0 min 0,000 mm 0,0 UV-I 0 W/m 16,9 C 18,1 C 3,2 km/h (1 Bft) 97,87 %
06.08.2018 03:54 18,1 C 26,7 C 16,7 C 93 % 1016,2 hPa 0,0 l/m 0,7 km/h (0 Bft) S-SO 165 0 min 0,000 mm 0,0 UV-I 0 W/m 16,9 C 18,1 C 1,6 km/h (1 Bft) 97,87 %
06.08.2018 03:56 18,1 C 26,7 C 16,7 C 94 % 1016,2 hPa 0,0 l/m 0,0 km/h (0 Bft) S-SO 165 0 min 0,000 mm 0,0 UV-I 0 W/m 17,1 C 18,1 C 0,0 km/h (0 Bft) 96,00 %
06.08.2018 03:58 18,2 C 26,7 C 16,7 C 94 % 1016,1 hPa 0,0 l/m 0,0 km/h (0 Bft) S-SO 165 0 min 0,000 mm 0,0 UV-I 0 W/m 17,2 C 18,2 C 1,6 km/h (1 Bft) 95,74 %
06.08.2018 04:00 18,0 C 26,7 C 16,7 C 93 % 1016,2 hPa 0,0 l/m 0,0 km/h (0 Bft) S-SO 165 0 min 0,000 mm 0,0 UV-I 0 W/m 16,8 C 18,0 C 0,0 km/h (0 Bft) 95,12 %
06.08.2018 04:02 18,1 C 26,7 C 16,7 C 93 % 1016,1 hPa 0,0 l/m 0,0 km/h (0 Bft) S-SO 165 0 min 0,000 mm 0,0 UV-I 0 W/m 16,9 C 18,1 C 0,0 km/h (0 Bft) 97,30 %
06.08.2018 04:04 18,1 C 26,7 C 16,1 C 93 % 1016,1 hPa 0,0 l/m 0,0 km/h (0 Bft) S-SO 165 0 min 0,000 mm 0,0 UV-I 0 W/m 16,9 C 18,1 C 0,0 km/h (0 Bft) 100,00 %
06.08.2018 04:06 18,2 C 26,7 C 16,1 C 94 % 1016,1 hPa 0,0 l/m 0,0 km/h (0 Bft) S-SO 165 0 min 0,000 mm 0,0 UV-I 0 W/m 17,2 C 18,2 C 0,0 km/h (0 Bft) 93,62 %
06.08.2018 04:08 18,2 C 26,7 C 16,1 C 93 % 1016,1 hPa 0,0 l/m 0,0 km/h (0 Bft) S-SO 165 0 min 0,000 mm 0,0 UV-I 0 W/m 17,0 C 18,2 C 0,0 km/h (0 Bft) 95,74 %
06.08.2018 04:10 18,2 C 26,7 C 16,1 C 94 % 1016,1 hPa 0,0 l/m 0,0 km/h (0 Bft) S-SO 165 0 min 0,000 mm 0,0 UV-I 0 W/m 17,2 C 18,2 C 0,0 km/h (0 Bft) 97,87 %
06.08.2018 04:12 18,2 C 26,7 C 16,1 C 93 % 1016,1 hPa 0,0 l/m 0,0 km/h (0 Bft) S-SO 165 0 min 0,000 mm 0,0 UV-I 0 W/m 17,0 C 18,2 C 0,0 km/h (0 Bft) 98,00 %
06.08.2018 04:14 18,1 C 26,7 C 16,1 C 93 % 1016,1 hPa 0,0 l/m 0,0 km/h (0 Bft) S-SO 165 0 min 0,000 mm 0,0 UV-I 0 W/m 16,9 C 18,1 C 0,0 km/h (0 Bft) 96,00 %
06.08.2018 04:16 18,2 C 26,7 C 16,1 C 94 % 1016,1 hPa 0,0 l/m 0,0 km/h (0 Bft) S-SO 165 0 min 0,000 mm 0,0 UV-I 0 W/m 17,2 C 18,2 C 0,0 km/h (0 Bft) 98,00 %
06.08.2018 04:18 18,2 C 26,7 C 16,1 C 93 % 1016,1 hPa 0,0 l/m 0,0 km/h (0 Bft) S-SO 165 0 min 0,000 mm 0,0 UV-I 0 W/m 17,0 C 18,2 C 0,0 km/h (0 Bft) 95,74 %
06.08.2018 04:20 18,1 C 26,7 C 16,1 C 93 % 1016,1 hPa 0,0 l/m 0,0 km/h (0 Bft) S-SO 165 0 min 0,000 mm 0,0 UV-I 0 W/m 16,9 C 18,1 C 0,0 km/h (0 Bft) 100,00 %
06.08.2018 04:22 18,1 C 26,7 C 16,1 C 93 % 1016,2 hPa 0,0 l/m 0,0 km/h (0 Bft) S-SO 165 0 min 0,000 mm 0,0 UV-I 0 W/m 16,9 C 18,1 C 0,0 km/h (0 Bft) 95,74 %
06.08.2018 04:24 18,1 C 26,7 C 16,1 C 93 % 1016,2 hPa 0,0 l/m 0,0 km/h (0 Bft) S-SO 165 0 min 0,000 mm 0,0 UV-I 0 W/m 16,9 C 18,1 C 0,0 km/h (0 Bft) 98,00 %
06.08.2018 04:26 18,1 C 26,7 C 16,1 C 93 % 1016,2 hPa 0,0 l/m 0,0 km/h (0 Bft) S-SO 165 0 min 0,000 mm 0,0 UV-I 0 W/m 16,9 C 18,1 C 0,0 km/h (0 Bft) 97,37 %
06.08.2018 04:28 18,1 C 26,7 C 16,1 C 93 % 1016,1 hPa 0,0 l/m 0,0 km/h (0 Bft) S-SO 165 0 min 0,000 mm 0,0 UV-I 0 W/m 16,9 C 18,1 C 1,6 km/h (1 Bft) 98,21 %
06.08.2018 04:30 18,1 C 26,7 C 16,1 C 93 % 1016,2 hPa 0,0 l/m 0,0 km/h (0 Bft) S-SO 165 0 min 0,000 mm 0,0 UV-I 0 W/m 16,9 C 18,1 C 0,0 km/h (0 Bft) 97,87 %
06.08.2018 04:32 18,1 C 26,7 C 16,1 C 93 % 1016,3 hPa 0,0 l/m 0,0 km/h (0 Bft) S-SO 165 0 min 0,000 mm 0,0 UV-I 0 W/m 16,9 C 18,1 C 0,0 km/h (0 Bft) 100,00 %
06.08.2018 04:34 18,0 C 26,7 C 15,6 C 93 % 1016,2 hPa 0,0 l/m 0,0 km/h (0 Bft) S-SO 165 0 min 0,000 mm 0,0 UV-I 0 W/m 16,8 C 18,0 C 0,0 km/h (0 Bft) 100,00 %
06.08.2018 04:36 17,9 C 26,7 C 16,1 C 92 % 1016,2 hPa 0,0 l/m 0,0 km/h (0 Bft) S-SO 165 0 min 0,000 mm 0,0 UV-I 0 W/m 16,6 C 17,9 C 0,0 km/h (0 Bft) 100,00 %
06.08.2018 04:38 17,9 C 26,7 C 15,6 C 92 % 1016,2 hPa 0,0 l/m 0,0 km/h (0 Bft) S-SO 165 0 min 0,000 mm 0,0 UV-I 0 W/m 16,6 C 17,9 C 0,0 km/h (0 Bft) 100,00 %
06.08.2018 04:40 17,8 C 26,7 C 15,6 C 92 % 1016,2 hPa 0,0 l/m 0,0 km/h (0 Bft) S-SO 165 0 min 0,000 mm 0,0 UV-I 0 W/m 16,5 C 17,8 C 0,0 km/h (0 Bft) 96,00 %
06.08.2018 04:42 17,8 C 26,7 C 15,6 C 92 % 1016,2 hPa 0,0 l/m 0,0 km/h (0 Bft) S-SO 165 0 min 0,000 mm 0,0 UV-I 0 W/m 16,5 C 17,8 C 0,0 km/h (0 Bft) 100,00 %
06.08.2018 04:44 17,8 C 26,7 C 15,6 C 92 % 1016,3 hPa 0,0 l/m 0,0 km/h (0 Bft) S-SO 165 0 min 0,000 mm 0,0 UV-I 0 W/m 16,5 C 17,8 C 0,0 km/h (0 Bft) 97,87 %
06.08.2018 04:46 17,8 C 26,7 C 15,6 C 92 % 1016,2 hPa 0,0 l/m 0,0 km/h (0 Bft) S-SO 165 0 min 0,000 mm 0,0 UV-I 0 W/m 16,5 C 17,8 C 0,0 km/h (0 Bft) 95,12 %
06.08.2018 04:48 17,8 C 26,7 C 16,1 C 92 % 1016,2 hPa 0,0 l/m 0,0 km/h (0 Bft) S-SO 165 0 min 0,000 mm 0,0 UV-I 0 W/m 16,5 C 17,8 C 0,0 km/h (0 Bft) 100,00 %
06.08.2018 04:50 17,9 C 26,7 C 15,6 C 92 % 1016,1 hPa 0,0 l/m 0,0 km/h (0 Bft) S-SO 165 0 min 0,000 mm 0,0 UV-I 0 W/m 16,6 C 17,9 C 0,0 km/h (0 Bft) 92,68 %
06.08.2018 04:52 18,1 C 26,7 C 15,6 C 92 % 1016,1 hPa 0,0 l/m 2,0 km/h (1 Bft) S-SO 155 0 min 0,000 mm 0,0 UV-I 0 W/m 16,8 C 18,1 C 4,8 km/h (1 Bft) 97,92 %
06.08.2018 04:54 18,3 C 26,7 C 15,6 C 90 % 1016,1 hPa 0,0 l/m 0,4 km/h (0 Bft) S-SO 155 0 min 0,000 mm 0,0 UV-I 0 W/m 16,6 C 18,3 C 1,6 km/h (1 Bft) 97,73 %
06.08.2018 04:56 18,3 C 26,7 C 15,6 C 90 % 1016,1 hPa 0,0 l/m 0,1 km/h (0 Bft) S-SO 155 0 min 0,000 mm 0,0 UV-I 0 W/m 16,6 C 18,3 C 1,6 km/h (1 Bft) 100,00 %
06.08.2018 04:58 18,2 C 26,7 C 15,6 C 91 % 1016,0 hPa 0,0 l/m 1,7 km/h (1 Bft) S-SO 155 0 min 0,000 mm 0,0 UV-I 0 W/m 16,7 C 18,2 C 3,2 km/h (1 Bft) 98,00 %
06.08.2018 05:00 18,1 C 26,7 C 15,6 C 91 % 1016,1 hPa 0,0 l/m 0,9 km/h (0 Bft) S-SO 155 0 min 0,000 mm 0,0 UV-I 0 W/m 16,6 C 18,1 C 3,2 km/h (1 Bft) 96,00 %
06.08.2018 05:02 18,0 C 26,7 C 15,6 C 91 % 1016,1 hPa 0,0 l/m 0,0 km/h (0 Bft) S-SO 155 0 min 0,000 mm 0,0 UV-I 0 W/m 16,5 C 18,0 C 0,0 km/h (0 Bft) 97,37 %
06.08.2018 05:04 17,9 C 26,7 C 15,6 C 91 % 1016,1 hPa 0,0 l/m 0,8 km/h (0 Bft) S-SO 155 0 min 0,000 mm 0,0 UV-I 0 W/m 16,4 C 17,9 C 3,2 km/h (1 Bft) 94,00 %
06.08.2018 05:06 18,0 C 26,7 C 15,6 C 91 % 1016,1 hPa 0,0 l/m 1,6 km/h (1 Bft) S-SO 155 0 min 0,000 mm 0,0 UV-I 0 W/m 16,5 C 18,0 C 3,2 km/h (1 Bft) 96,23 %
06.08.2018 05:08 18,1 C 26,7 C 15,6 C 90 % 1016,0 hPa 0,0 l/m 2,3 km/h (1 Bft) S-SO 155 0 min 0,000 mm 0,0 UV-I 0 W/m 16,4 C 18,1 C 3,2 km/h (1 Bft) 95,74 %
06.08.2018 05:10 18,2 C 26,7 C 15,6 C 89 % 1016,0 hPa 0,0 l/m 3,5 km/h (1 Bft) S-SO 154 0 min 0,000 mm 0,0 UV-I 0 W/m 16,4 C 18,2 C 4,8 km/h (1 Bft) 95,12 %
06.08.2018 05:12 18,3 C 26,7 C 15,6 C 88 % 1015,9 hPa 0,0 l/m 4,7 km/h (1 Bft) O-SO 104 0 min 0,000 mm 0,0 UV-I 0 W/m 16,3 C 18,3 C 6,4 km/h (2 Bft) 96,00 %
06.08.2018 05:14 18,3 C 26,7 C 16,1 C 88 % 1016,0 hPa 0,0 l/m 3,7 km/h (1 Bft) O 82 0 min 0,000 mm 0,0 UV-I 0 W/m 16,3 C 18,3 C 4,8 km/h (1 Bft) 95,12 %
06.08.2018 05:16 18,3 C 26,7 C 16,1 C 87 % 1015,9 hPa 0,0 l/m 3,7 km/h (1 Bft) O 90 0 min 0,000 mm 0,0 UV-I 0 W/m 16,1 C 18,3 C 4,8 km/h (1 Bft) 94,64 %
06.08.2018 05:18 18,4 C 26,7 C 16,1 C 87 % 1015,9 hPa 0,0 l/m 3,5 km/h (1 Bft) O-SO 105 0 min 0,000 mm 0,0 UV-I 0 W/m 16,2 C 18,4 C 6,4 km/h (2 Bft) 97,37 %
06.08.2018 05:20 18,4 C 26,7 C 16,1 C 86 % 1015,9 hPa 0,0 l/m 4,2 km/h (1 Bft) O 98 0 min 0,000 mm 0,0 UV-I 0 W/m 16,0 C 18,4 C 9,7 km/h (2 Bft) 94,00 %
06.08.2018 05:22 18,5 C 26,7 C 16,1 C 86 % 1016,0 hPa 0,0 l/m 4,1 km/h (1 Bft) O-SO 111 0 min 0,000 mm 0,0 UV-I 0 W/m 16,1 C 18,5 C 6,4 km/h (2 Bft) 94,34 %
06.08.2018 05:24 18,6 C 26,7 C 16,1 C 85 % 1015,9 hPa 0,0 l/m 4,7 km/h (1 Bft) O-SO 103 0 min 0,000 mm 0,0 UV-I 0 W/m 16,0 C 18,6 C 6,4 km/h (2 Bft) 97,37 %
06.08.2018 05:26 18,6 C 26,7 C 16,7 C 85 % 1016,0 hPa 0,0 l/m 4,9 km/h (1 Bft) O 89 0 min 0,000 mm 0,0 UV-I 3 W/m 16,0 C 18,6 C 6,4 km/h (2 Bft) 95,24 %
06.08.2018 05:28 18,6 C 26,7 C 16,7 C 85 % 1016,0 hPa 0,0 l/m 3,5 km/h (1 Bft) O-NO 67 0 min 0,000 mm 0,0 UV-I 5 W/m 16,0 C 18,6 C 6,4 km/h (2 Bft) 94,23 %
06.08.2018 05:30 18,4 C 26,7 C 16,7 C 85 % 1016,1 hPa 0,0 l/m 3,0 km/h (1 Bft) O 101 0 min 0,000 mm 0,0 UV-I 0 W/m 15,8 C 18,4 C 4,8 km/h (1 Bft) 98,00 %
06.08.2018 05:32 18,2 C 26,7 C 16,7 C 86 % 1016,1 hPa 0,0 l/m 1,6 km/h (1 Bft) O 101 0 min 0,000 mm 0,0 UV-I 9 W/m 15,8 C 18,2 C 4,8 km/h (1 Bft) 97,92 %
06.08.2018 05:34 18,1 C 26,7 C 16,1 C 86 % 1016,2 hPa 0,0 l/m 1,4 km/h (1 Bft) O 101 0 min 0,000 mm 0,0 UV-I 10 W/m 15,7 C 18,1 C 3,2 km/h (1 Bft) 97,87 %
06.08.2018 05:36 17,9 C 26,7 C 16,1 C 87 % 1016,2 hPa 0,0 l/m 0,2 km/h (0 Bft) O 101 0 min 0,000 mm 0,0 UV-I 11 W/m 15,7 C 17,9 C 1,6 km/h (1 Bft) 97,87 %
06.08.2018 05:38 17,9 C 26,7 C 16,1 C 87 % 1016,1 hPa 0,0 l/m 0,0 km/h (0 Bft) O 101 0 min 0,000 mm 0,0 UV-I 12 W/m 15,7 C 17,9 C 0,0 km/h (0 Bft) 97,56 %
06.08.2018 05:40 17,8 C 26,7 C 16,1 C 88 % 1016,2 hPa 0,0 l/m 0,0 km/h (0 Bft) O 101 0 min 0,000 mm 0,0 UV-I 12 W/m 15,8 C 17,8 C 0,0 km/h (0 Bft) 98,11 %
06.08.2018 05:42 17,8 C 26,7 C 16,1 C 88 % 1016,2 hPa 0,0 l/m 3,3 km/h (1 Bft) O-SO 119 0 min 0,000 mm 0,0 UV-I 12 W/m 15,8 C 17,8 C 6,4 km/h (2 Bft) 97,37 %
06.08.2018 05:44 17,9 C 26,7 C 16,1 C 88 % 1016,2 hPa 0,0 l/m 4,1 km/h (1 Bft) O 83 0 min 0,000 mm 0,0 UV-I 12 W/m 15,9 C 17,9 C 6,4 km/h (2 Bft) 98,11 %
06.08.2018 05:46 18,1 C 26,7 C 16,1 C 87 % 1016,2 hPa 0,0 l/m 1,9 km/h (1 Bft) O 83 0 min 0,000 mm 0,0 UV-I 13 W/m 15,9 C 18,1 C 3,2 km/h (1 Bft) 96,23 %
06.08.2018 05:48 18,1 C 26,7 C 16,1 C 87 % 1016,2 hPa 0,0 l/m 0,2 km/h (0 Bft) O 83 0 min 0,000 mm 0,0 UV-I 14 W/m 15,9 C 18,1 C 1,6 km/h (1 Bft) 100,00 %
06.08.2018 05:50 18,2 C 26,7 C 16,1 C 87 % 1016,1 hPa 0,0 l/m 0,6 km/h (0 Bft) O 83 0 min 0,000 mm 0,0 UV-I 14 W/m 16,0 C 18,2 C 3,2 km/h (1 Bft) 97,37 %
06.08.2018 05:52 18,1 C 26,7 C 16,1 C 86 % 1016,1 hPa 0,0 l/m 0,4 km/h (0 Bft) O 83 0 min 0,000 mm 0,0 UV-I 15 W/m 15,7 C 18,1 C 1,6 km/h (1 Bft) 98,00 %
06.08.2018 05:54 18,0 C 26,7 C 16,1 C 87 % 1016,1 hPa 0,0 l/m 1,5 km/h (1 Bft) O 83 0 min 0,000 mm 0,0 UV-I 16 W/m 15,8 C 18,0 C 3,2 km/h (1 Bft) 97,87 %
06.08.2018 05:56 17,9 C 26,7 C 16,1 C 87 % 1016,2 hPa 0,0 l/m 1,3 km/h (1 Bft) O 83 0 min 0,000 mm 0,0 UV-I 18 W/m 15,7 C 17,9 C 3,2 km/h (1 Bft) 100,00 %
06.08.2018 05:58 17,8 C 26,7 C 16,1 C 87 % 1016,2 hPa 0,0 l/m 1,4 km/h (1 Bft) O 83 2 min 0,000 mm 0,0 UV-I 20 W/m 15,6 C 17,8 C 3,2 km/h (1 Bft) 98,11 %
06.08.2018 06:00 17,7 C 26,7 C 16,1 C 88 % 1016,2 hPa 0,0 l/m 2,2 km/h (1 Bft) O 83 2 min 0,000 mm 0,0 UV-I 24 W/m 15,7 C 17,7 C 3,2 km/h (1 Bft) 98,00 %
06.08.2018 06:02 17,7 C 26,7 C 16,1 C 88 % 1016,2 hPa 0,0 l/m 2,5 km/h (1 Bft) O 83 2 min 0,000 mm 0,0 UV-I 26 W/m 15,7 C 17,7 C 3,2 km/h (1 Bft) 97,56 %
06.08.2018 06:04 17,8 C 26,7 C 16,1 C 88 % 1016,2 hPa 0,0 l/m 2,5 km/h (1 Bft) O 82 2 min 0,000 mm 0,0 UV-I 30 W/m 15,8 C 17,8 C 4,8 km/h (1 Bft) 93,62 %
06.08.2018 06:06 17,8 C 26,7 C 16,1 C 88 % 1016,2 hPa 0,0 l/m 1,4 km/h (1 Bft) O 82 2 min 0,000 mm 0,0 UV-I 33 W/m 15,8 C 17,8 C 3,2 km/h (1 Bft) 96,00 %
06.08.2018 06:08 17,8 C 26,7 C 16,1 C 88 % 1016,2 hPa 0,0 l/m 1,5 km/h (1 Bft) O 82 2 min 0,000 mm 0,0 UV-I 35 W/m 15,8 C 17,8 C 3,2 km/h (1 Bft) 98,00 %
06.08.2018 06:10 17,8 C 26,7 C 16,7 C 88 % 1016,2 hPa 0,0 l/m 1,3 km/h (1 Bft) O 82 2 min 0,000 mm 0,0 UV-I 42 W/m 15,8 C 17,8 C 3,2 km/h (1 Bft) 97,78 %
06.08.2018 06:12 17,8 C 26,7 C 16,7 C 87 % 1016,2 hPa 0,0 l/m 0,4 km/h (0 Bft) O 82 2 min 0,000 mm 0,0 UV-I 48 W/m 15,6 C 17,8 C 1,6 km/h (1 Bft) 97,87 %
06.08.2018 06:14 17,9 C 26,1 C 16,7 C 87 % 1016,2 hPa 0,0 l/m 1,6 km/h (1 Bft) O 82 2 min 0,000 mm 0,0 UV-I 54 W/m 15,7 C 17,9 C 3,2 km/h (1 Bft) 96,15 %
06.08.2018 06:16 17,9 C 26,7 C 16,7 C 87 % 1016,2 hPa 0,0 l/m 0,2 km/h (0 Bft) O 82 2 min 0,000 mm 0,0 UV-I 58 W/m 15,7 C 17,9 C 1,6 km/h (1 Bft) 95,83 %
06.08.2018 06:18 18,0 C 26,7 C 16,7 C 87 % 1016,2 hPa 0,0 l/m 0,0 km/h (0 Bft) O 82 2 min 0,000 mm 0,0 UV-I 64 W/m 15,8 C 18,0 C 0,0 km/h (0 Bft) 97,14 %
06.08.2018 06:20 18,1 C 26,7 C 16,7 C 87 % 1016,2 hPa 0,0 l/m 0,0 km/h (0 Bft) O 82 2 min 0,000 mm 0,0 UV-I 68 W/m 15,9 C 18,1 C 0,0 km/h (0 Bft) 97,87 %
06.08.2018 06:22 18,1 C 26,7 C 17,2 C 87 % 1016,2 hPa 0,0 l/m 0,0 km/h (0 Bft) O 82 2 min 0,000 mm 0,0 UV-I 72 W/m 15,9 C 18,1 C 0,0 km/h (0 Bft) 94,00 %
06.08.2018 06:24 18,1 C 26,7 C 17,2 C 87 % 1016,2 hPa 0,0 l/m 0,0 km/h (0 Bft) O 82 2 min 0,000 mm 0,0 UV-I 76 W/m 15,9 C 18,1 C 0,0 km/h (0 Bft) 95,74 %
06.08.2018 06:26 18,1 C 26,1 C 17,2 C 87 % 1016,2 hPa 0,0 l/m 0,0 km/h (0 Bft) O 82 2 min 0,000 mm 0,0 UV-I 80 W/m 15,9 C 18,1 C 0,0 km/h (0 Bft) 97,87 %
06.08.2018 06:28 18,2 C 26,7 C 17,2 C 87 % 1016,2 hPa 0,0 l/m 0,5 km/h (0 Bft) O 82 2 min 0,000 mm 0,0 UV-I 81 W/m 16,0 C 18,2 C 1,6 km/h (1 Bft) 98,00 %
06.08.2018 06:30 18,3 C 26,1 C 17,8 C 87 % 1016,2 hPa 0,0 l/m 0,6 km/h (0 Bft) O-SO 112 2 min 0,000 mm 0,0 UV-I 80 W/m 16,1 C 18,3 C 3,2 km/h (1 Bft) 97,87 %
06.08.2018 06:32 18,4 C 26,1 C 17,8 C 86 % 1016,2 hPa 0,0 l/m 2,4 km/h (1 Bft) O-SO 112 2 min 0,000 mm 0,0 UV-I 70 W/m 16,0 C 18,4 C 3,2 km/h (1 Bft) 95,74 %
06.08.2018 06:34 18,5 C 26,1 C 17,8 C 85 % 1016,2 hPa 0,0 l/m 2,8 km/h (1 Bft) O 101 2 min 0,000 mm 0,0 UV-I 70 W/m 15,9 C 18,5 C 4,8 km/h (1 Bft) 98,00 %
06.08.2018 06:36 18,4 C 26,7 C 17,8 C 85 % 1016,2 hPa 0,0 l/m 3,2 km/h (1 Bft) O 99 2 min 0,000 mm 0,0 UV-I 72 W/m 15,8 C 18,4 C 4,8 km/h (1 Bft) 97,56 %
06.08.2018 06:38 18,4 C 26,7 C 17,8 C 85 % 1016,3 hPa 0,0 l/m 2,0 km/h (1 Bft) O 99 2 min 0,000 mm 0,0 UV-I 72 W/m 15,8 C 18,4 C 3,2 km/h (1 Bft) 98,00 %
06.08.2018 06:40 18,6 C 26,7 C 18,3 C 85 % 1016,3 hPa 0,0 l/m 3,0 km/h (1 Bft) O 101 2 min 0,000 mm 0,0 UV-I 73 W/m 16,0 C 18,6 C 4,8 km/h (1 Bft) 97,37 %
06.08.2018 06:42 18,7 C 26,1 C 18,3 C 84 % 1016,3 hPa 0,0 l/m 3,6 km/h (1 Bft) O-SO 113 2 min 0,000 mm 0,0 UV-I 79 W/m 15,9 C 18,7 C 4,8 km/h (1 Bft) 96,23 %
06.08.2018 06:44 18,7 C 26,1 C 18,3 C 84 % 1016,3 hPa 0,0 l/m 3,7 km/h (1 Bft) O-SO 111 2 min 0,000 mm 0,0 UV-I 80 W/m 15,9 C 18,7 C 6,4 km/h (2 Bft) 95,74 %
06.08.2018 06:46 18,7 C 26,1 C 18,3 C 83 % 1016,3 hPa 0,0 l/m 3,4 km/h (1 Bft) O-SO 111 2 min 0,000 mm 0,0 UV-I 82 W/m 15,8 C 18,7 C 4,8 km/h (1 Bft) 96,00 %
06.08.2018 06:48 18,7 C 26,1 C 18,9 C 83 % 1016,3 hPa 0,0 l/m 2,9 km/h (1 Bft) O-SO 111 2 min 0,000 mm 0,0 UV-I 90 W/m 15,8 C 18,7 C 4,8 km/h (1 Bft) 97,44 %
06.08.2018 06:50 18,8 C 26,1 C 18,9 C 83 % 1016,3 hPa 0,0 l/m 2,3 km/h (1 Bft) O-SO 111 2 min 0,000 mm 0,0 UV-I 88 W/m 15,8 C 18,8 C 4,8 km/h (1 Bft) 98,00 %
06.08.2018 06:52 18,8 C 26,1 C 18,9 C 83 % 1016,3 hPa 0,0 l/m 2,9 km/h (1 Bft) O-SO 111 2 min 0,000 mm 0,0 UV-I 90 W/m 15,8 C 18,8 C 4,8 km/h (1 Bft) 98,00 %
06.08.2018 06:54 18,9 C 26,1 C 18,9 C 83 % 1016,4 hPa 0,0 l/m 2,4 km/h (1 Bft) O 86 2 min 0,000 mm 0,0 UV-I 96 W/m 15,9 C 18,9 C 4,8 km/h (1 Bft) 98,00 %
06.08.2018 06:56 18,9 C 26,1 C 18,9 C 82 % 1016,4 hPa 0,0 l/m 0,4 km/h (0 Bft) O 86 2 min 0,000 mm 0,0 UV-I 102 W/m 15,8 C 18,9 C 1,6 km/h (1 Bft) 97,37 %
06.08.2018 06:58 19,0 C 26,1 C 19,4 C 82 % 1016,4 hPa 0,0 l/m 2,1 km/h (1 Bft) O-SO 111 2 min 0,000 mm 0,0 UV-I 107 W/m 15,9 C 19,0 C 4,8 km/h (1 Bft) 100,00 %
06.08.2018 07:00 19,1 C 26,1 C 19,4 C 82 % 1016,4 hPa 0,0 l/m 2,3 km/h (1 Bft) O-SO 111 2 min 0,051 mm 0,0 UV-I 111 W/m 16,0 C 19,1 C 4,8 km/h (1 Bft) 100,00 %
06.08.2018 07:02 19,1 C 26,1 C 19,4 C 82 % 1016,4 hPa 0,0 l/m 2,6 km/h (1 Bft) O-SO 111 2 min 0,000 mm 0,0 UV-I 112 W/m 16,0 C 19,1 C 4,8 km/h (1 Bft) 100,00 %
06.08.2018 07:04 19,1 C 26,1 C 19,4 C 82 % 1016,4 hPa 0,0 l/m 2,7 km/h (1 Bft) O-SO 112 2 min 0,000 mm 0,0 UV-I 114 W/m 16,0 C 19,1 C 4,8 km/h (1 Bft) 100,00 %
06.08.2018 07:06 19,1 C 26,1 C 20,0 C 82 % 1016,4 hPa 0,0 l/m 3,1 km/h (1 Bft) O-SO 118 2 min 0,000 mm 0,0 UV-I 119 W/m 16,0 C 19,1 C 6,4 km/h (2 Bft) 100,00 %
06.08.2018 07:08 19,1 C 26,1 C 20,0 C 82 % 1016,4 hPa 0,0 l/m 4,1 km/h (1 Bft) O 100 2 min 0,000 mm 0,0 UV-I 127 W/m 16,0 C 19,1 C 6,4 km/h (2 Bft) 100,00 %
06.08.2018 07:10 19,1 C 26,1 C 20,0 C 82 % 1016,4 hPa 0,0 l/m 2,9 km/h (1 Bft) O 100 2 min 0,000 mm 0,0 UV-I 140 W/m 16,0 C 19,1 C 4,8 km/h (1 Bft) 100,00 %
06.08.2018 07:12 19,1 C 26,1 C 20,0 C 82 % 1016,4 hPa 0,0 l/m 2,9 km/h (1 Bft) SO 136 2 min 0,000 mm 0,0 UV-I 151 W/m 16,0 C 19,1 C 4,8 km/h (1 Bft) 100,00 %
06.08.2018 07:14 19,2 C 26,1 C 20,0 C 81 % 1016,4 hPa 0,0 l/m 3,6 km/h (1 Bft) O-SO 111 2 min 0,000 mm 0,0 UV-I 152 W/m 15,9 C 19,2 C 6,4 km/h (2 Bft) 100,00 %
06.08.2018 07:16 19,2 C 26,1 C 20,0 C 81 % 1016,5 hPa 0,0 l/m 4,5 km/h (1 Bft) O 100 2 min 0,000 mm 0,0 UV-I 160 W/m 15,9 C 19,2 C 6,4 km/h (2 Bft) 98,11 %
06.08.2018 07:18 19,2 C 26,1 C 20,0 C 81 % 1016,5 hPa 0,0 l/m 4,2 km/h (1 Bft) O-NO 76 2 min 0,000 mm 0,0 UV-I 153 W/m 15,9 C 19,2 C 6,4 km/h (2 Bft) 98,11 %
06.08.2018 07:20 19,3 C 26,1 C 20,0 C 81 % 1016,5 hPa 0,0 l/m 4,7 km/h (1 Bft) O 92 2 min 0,000 mm 0,0 UV-I 151 W/m 16,0 C 19,3 C 6,4 km/h (2 Bft) 100,00 %
06.08.2018 07:22 19,3 C 26,1 C 20,6 C 80 % 1016,5 hPa 0,0 l/m 4,6 km/h (1 Bft) O-NO 71 2 min 0,000 mm 0,0 UV-I 151 W/m 15,8 C 19,3 C 8,0 km/h (2 Bft) 100,00 %
06.08.2018 07:24 19,4 C 26,1 C 20,6 C 81 % 1016,5 hPa 0,0 l/m 4,7 km/h (1 Bft) O-SO 106 2 min 0,000 mm 0,0 UV-I 157 W/m 16,1 C 19,4 C 6,4 km/h (2 Bft) 100,00 %
06.08.2018 07:26 19,4 C 26,1 C 20,6 C 81 % 1016,5 hPa 0,0 l/m 3,0 km/h (1 Bft) O-SO 106 2 min 0,000 mm 0,0 UV-I 155 W/m 16,1 C 19,4 C 4,8 km/h (1 Bft) 100,00 %
06.08.2018 07:28 19,5 C 26,1 C 20,6 C 80 % 1016,5 hPa 0,0 l/m 2,9 km/h (1 Bft) O-NO 65 2 min 0,000 mm 0,0 UV-I 164 W/m 16,0 C 19,5 C 4,8 km/h (1 Bft) 100,00 %
06.08.2018 07:30 19,6 C 26,1 C 20,6 C 81 % 1016,6 hPa 0,0 l/m 3,5 km/h (1 Bft) O-NO 72 2 min 0,000 mm 0,0 UV-I 177 W/m 16,2 C 19,6 C 4,8 km/h (1 Bft) 97,87 %
06.08.2018 07:32 19,6 C 26,1 C 21,1 C 81 % 1016,6 hPa 0,0 l/m 3,5 km/h (1 Bft) O-NO 70 2 min 0,000 mm 0,0 UV-I 187 W/m 16,2 C 19,6 C 4,8 km/h (1 Bft) 100,00 %
06.08.2018 07:34 19,7 C 26,1 C 21,1 C 81 % 1016,6 hPa 0,0 l/m 5,9 km/h (2 Bft) O-NO 61 2 min 0,000 mm 0,0 UV-I 186 W/m 16,3 C 19,7 C 8,0 km/h (2 Bft) 100,00 %
06.08.2018 07:36 19,7 C 26,1 C 21,1 C 80 % 1016,6 hPa 0,0 l/m 4,3 km/h (1 Bft) O 83 2 min 0,000 mm 0,0 UV-I 176 W/m 16,1 C 19,7 C 8,0 km/h (2 Bft) 100,00 %
06.08.2018 07:38 19,7 C 26,1 C 21,1 C 80 % 1016,6 hPa 0,0 l/m 3,9 km/h (1 Bft) O 84 2 min 0,000 mm 0,0 UV-I 170 W/m 16,1 C 19,7 C 6,4 km/h (2 Bft) 100,00 %
06.08.2018 07:40 19,7 C 26,1 C 21,1 C 79 % 1016,6 hPa 0,0 l/m 4,9 km/h (1 Bft) O 92 2 min 0,000 mm 0,0 UV-I 166 W/m 16,0 C 19,7 C 9,7 km/h (2 Bft) 96,00 %
06.08.2018 07:42 19,7 C 26,1 C 21,1 C 79 % 1016,6 hPa 0,0 l/m 4,7 km/h (1 Bft) O 80 2 min 0,000 mm 0,0 UV-I 176 W/m 16,0 C 19,7 C 6,4 km/h (2 Bft) 100,00 %
06.08.2018 07:44 19,7 C 26,1 C 21,1 C 79 % 1016,6 hPa 0,0 l/m 4,5 km/h (1 Bft) O-NO 77 2 min 0,000 mm 0,3 UV-I 186 W/m 16,0 C 19,7 C 6,4 km/h (2 Bft) 100,00 %
06.08.2018 07:46 19,7 C 26,1 C 21,1 C 79 % 1016,6 hPa 0,0 l/m 4,1 km/h (1 Bft) O-NO 77 2 min 0,000 mm 0,5 UV-I 176 W/m 16,0 C 19,7 C 4,8 km/h (1 Bft) 100,00 %
06.08.2018 07:48 19,7 C 26,1 C 21,1 C 79 % 1016,7 hPa 0,0 l/m 5,9 km/h (2 Bft) O 80 0 min 0,000 mm 0,5 UV-I 172 W/m 16,0 C 19,7 C 8,0 km/h (2 Bft) 100,00 %
06.08.2018 07:50 19,8 C 26,1 C 21,1 C 78 % 1016,7 hPa 0,0 l/m 6,6 km/h (2 Bft) O 93 2 min 0,000 mm 0,5 UV-I 182 W/m 15,8 C 19,7 C 11,3 km/h (2 Bft) 100,00 %
06.08.2018 07:52 19,8 C 26,1 C 21,1 C 78 % 1016,7 hPa 0,0 l/m 4,4 km/h (1 Bft) O 85 2 min 0,000 mm 0,5 UV-I 193 W/m 15,8 C 19,8 C 6,4 km/h (2 Bft) 100,00 %
06.08.2018 07:54 19,9 C 26,1 C 21,7 C 78 % 1016,7 hPa 0,0 l/m 4,5 km/h (1 Bft) O 98 2 min 0,000 mm 0,6 UV-I 205 W/m 15,9 C 19,9 C 6,4 km/h (2 Bft) 100,00 %
06.08.2018 07:56 19,9 C 26,1 C 21,7 C 78 % 1016,7 hPa 0,0 l/m 5,6 km/h (1 Bft) O-NO 69 2 min 0,000 mm 0,6 UV-I 220 W/m 15,9 C 19,9 C 8,0 km/h (2 Bft) 100,00 %
06.08.2018 07:58 20,1 C 26,1 C 21,7 C 78 % 1016,7 hPa 0,0 l/m 5,3 km/h (1 Bft) O 87 2 min 0,000 mm 0,6 UV-I 243 W/m 16,1 C 20,1 C 8,0 km/h (2 Bft) 98,00 %
06.08.2018 08:00 20,2 C 26,1 C 22,2 C 77 % 1016,7 hPa 0,0 l/m 5,4 km/h (1 Bft) O-NO 75 2 min 0,101 mm 0,6 UV-I 261 W/m 16,0 C 20,2 C 9,7 km/h (2 Bft) 96,00 %
06.08.2018 08:02 20,2 C 26,1 C 22,2 C 76 % 1016,7 hPa 0,0 l/m 6,0 km/h (2 Bft) O-NO 74 2 min 0,000 mm 0,6 UV-I 247 W/m 15,8 C 20,2 C 8,0 km/h (2 Bft) 94,87 %
06.08.2018 08:04 20,3 C 26,1 C 22,2 C 76 % 1016,7 hPa 0,0 l/m 5,6 km/h (1 Bft) O 98 2 min 0,000 mm 0,7 UV-I 236 W/m 15,9 C 20,3 C 9,7 km/h (2 Bft) 96,00 %
06.08.2018 08:06 20,3 C 26,1 C 22,2 C 76 % 1016,7 hPa 0,0 l/m 5,3 km/h (1 Bft) O 99 2 min 0,000 mm 0,7 UV-I 245 W/m 15,9 C 20,3 C 9,7 km/h (2 Bft) 94,00 %
06.08.2018 08:08 20,3 C 26,1 C 22,2 C 76 % 1016,7 hPa 0,0 l/m 9,1 km/h (2 Bft) O-NO 78 2 min 0,000 mm 0,7 UV-I 248 W/m 15,9 C 19,3 C 12,9 km/h (3 Bft) 93,62 %
06.08.2018 08:10 20,3 C 26,1 C 22,2 C 76 % 1016,7 hPa 0,0 l/m 6,8 km/h (2 Bft) O-NO 78 2 min 0,000 mm 0,7 UV-I 244 W/m 15,9 C 20,1 C 9,7 km/h (2 Bft) 95,74 %
06.08.2018 08:12 20,4 C 26,1 C 22,8 C 76 % 1016,7 hPa 0,0 l/m 6,4 km/h (2 Bft) O 81 2 min 0,000 mm 0,7 UV-I 251 W/m 16,0 C 20,4 C 9,7 km/h (2 Bft) 94,29 %
06.08.2018 08:14 20,4 C 26,1 C 22,8 C 75 % 1016,7 hPa 0,0 l/m 6,9 km/h (2 Bft) O-NO 69 2 min 0,000 mm 0,8 UV-I 267 W/m 15,8 C 20,2 C 11,3 km/h (2 Bft) 96,43 %
06.08.2018 08:16 20,5 C 26,1 C 22,8 C 75 % 1016,7 hPa 0,0 l/m 4,2 km/h (1 Bft) O-NO 74 2 min 0,000 mm 0,8 UV-I 278 W/m 15,9 C 20,5 C 6,4 km/h (2 Bft) 95,74 %
06.08.2018 08:18 20,6 C 26,1 C 22,8 C 74 % 1016,7 hPa 0,0 l/m 8,6 km/h (2 Bft) O-NO 76 2 min 0,000 mm 0,8 UV-I 259 W/m 15,8 C 19,8 C 12,9 km/h (3 Bft) 96,00 %
06.08.2018 08:20 20,7 C 26,1 C 22,8 C 74 % 1016,7 hPa 0,0 l/m 7,9 km/h (2 Bft) O-NO 63 2 min 0,000 mm 0,8 UV-I 264 W/m 15,9 C 20,1 C 12,9 km/h (3 Bft) 95,12 %
06.08.2018 08:22 20,7 C 26,1 C 22,8 C 74 % 1016,8 hPa 0,0 l/m 7,5 km/h (2 Bft) O 84 2 min 0,000 mm 0,9 UV-I 296 W/m 15,9 C 20,3 C 11,3 km/h (2 Bft) 92,45 %
06.08.2018 08:24 20,8 C 26,1 C 23,3 C 75 % 1016,8 hPa 0,0 l/m 9,1 km/h (2 Bft) O-NO 65 2 min 0,000 mm 0,9 UV-I 291 W/m 16,2 C 19,8 C 14,5 km/h (3 Bft) 96,00 %
06.08.2018 08:26 20,9 C 26,1 C 22,8 C 73 % 1016,7 hPa 0,0 l/m 10,5 km/h (2 Bft) O-NO 73 2 min 0,000 mm 0,9 UV-I 265 W/m 15,9 C 19,5 C 14,5 km/h (3 Bft) 92,68 %
06.08.2018 08:28 20,9 C 26,1 C 22,8 C 74 % 1016,7 hPa 0,0 l/m 9,0 km/h (2 Bft) O-NO 75 2 min 0,000 mm 0,9 UV-I 252 W/m 16,1 C 20,0 C 12,9 km/h (3 Bft) 98,00 %
06.08.2018 08:30 20,9 C 26,1 C 22,8 C 74 % 1016,8 hPa 0,0 l/m 6,8 km/h (2 Bft) O-NO 76 2 min 0,000 mm 0,9 UV-I 250 W/m 16,1 C 20,8 C 11,3 km/h (2 Bft) 97,56 %
06.08.2018 08:32 21,0 C 26,1 C 23,3 C 74 % 1016,8 hPa 0,0 l/m 8,4 km/h (2 Bft) O-NO 58 2 min 0,000 mm 0,9 UV-I 250 W/m 16,2 C 20,3 C 12,9 km/h (3 Bft) 98,00 %
06.08.2018 08:34 21,1 C 26,1 C 23,3 C 73 % 1016,8 hPa 0,0 l/m 6,6 km/h (2 Bft) O 80 2 min 0,000 mm 1,0 UV-I 263 W/m 16,1 C 21,0 C 11,3 km/h (2 Bft) 98,00 %
06.08.2018 08:36 21,2 C 26,1 C 23,3 C 73 % 1016,7 hPa 0,0 l/m 5,9 km/h (2 Bft) O-NO 63 2 min 0,000 mm 1,0 UV-I 281 W/m 16,2 C 21,2 C 8,0 km/h (2 Bft) 100,00 %
06.08.2018 08:38 21,3 C 26,1 C 23,9 C 73 % 1016,7 hPa 0,0 l/m 7,4 km/h (2 Bft) O 82 2 min 0,000 mm 1,1 UV-I 298 W/m 16,3 C 20,9 C 11,3 km/h (2 Bft) 97,22 %
06.08.2018 08:40 21,4 C 26,1 C 23,9 C 72 % 1016,7 hPa 0,0 l/m 5,9 km/h (2 Bft) NO 36 2 min 0,000 mm 1,1 UV-I 307 W/m 16,1 C 21,4 C 9,7 km/h (2 Bft) 98,21 %
06.08.2018 08:42 21,6 C 26,1 C 24,4 C 72 % 1016,7 hPa 0,0 l/m 6,9 km/h (2 Bft) NO 53 2 min 0,000 mm 1,2 UV-I 337 W/m 16,3 C 21,4 C 8,0 km/h (2 Bft) 93,62 %
06.08.2018 08:44 21,7 C 26,1 C 25,0 C 72 % 1016,6 hPa 0,0 l/m 7,7 km/h (2 Bft) O-NO 76 2 min 0,000 mm 1,2 UV-I 377 W/m 16,4 C 21,2 C 16,1 km/h (3 Bft) 98,11 %
06.08.2018 08:46 21,8 C 26,1 C 25,6 C 70 % 1016,6 hPa 0,0 l/m 8,8 km/h (2 Bft) NO 55 2 min 0,000 mm 1,3 UV-I 383 W/m 16,1 C 21,0 C 17,7 km/h (3 Bft) 97,87 %
06.08.2018 08:48 21,9 C 26,1 C 25,6 C 70 % 1016,6 hPa 0,0 l/m 11,0 km/h (2 Bft) O-NO 61 2 min 0,000 mm 1,3 UV-I 396 W/m 16,2 C 20,5 C 17,7 km/h (3 Bft) 98,00 %
06.08.2018 08:50 22,0 C 26,1 C 25,6 C 70 % 1016,6 hPa 0,0 l/m 12,2 km/h (2 Bft) O 79 2 min 0,000 mm 1,3 UV-I 383 W/m 16,3 C 20,3 C 17,7 km/h (3 Bft) 95,74 %
06.08.2018 08:52 22,0 C 26,1 C 26,1 C 69 % 1016,6 hPa 0,0 l/m 11,3 km/h (2 Bft) O 81 2 min 0,000 mm 1,3 UV-I 371 W/m 16,0 C 20,5 C 16,1 km/h (3 Bft) 95,74 %
06.08.2018 08:54 21,9 C 26,7 C 26,1 C 68 % 1016,6 hPa 0,0 l/m 11,8 km/h (2 Bft) NO 42 2 min 0,000 mm 1,3 UV-I 348 W/m 15,7 C 20,3 C 17,7 km/h (3 Bft) 95,74 %
06.08.2018 08:56 21,9 C 26,7 C 26,1 C 69 % 1016,6 hPa 0,0 l/m 10,8 km/h (2 Bft) O-NO 67 2 min 0,000 mm 1,3 UV-I 336 W/m 15,9 C 20,5 C 14,5 km/h (3 Bft) 100,00 %
06.08.2018 08:58 22,0 C 26,7 C 26,1 C 69 % 1016,7 hPa 0,0 l/m 11,6 km/h (2 Bft) O-NO 64 2 min 0,000 mm 1,3 UV-I 342 W/m 16,0 C 20,4 C 17,7 km/h (3 Bft) 96,00 %
06.08.2018 09:00 22,1 C 26,7 C 26,1 C 68 % 1016,7 hPa 0,0 l/m 10,5 km/h (2 Bft) O-SO 104 2 min 0,204 mm 1,3 UV-I 352 W/m 15,9 C 20,8 C 16,1 km/h (3 Bft) 97,56 %
06.08.2018 09:02 22,1 C 26,7 C 26,7 C 69 % 1016,7 hPa 0,0 l/m 10,3 km/h (2 Bft) NO 38 2 min 0,000 mm 1,4 UV-I 357 W/m 16,1 C 20,9 C 16,1 km/h (3 Bft) 98,11 %
06.08.2018 09:04 22,2 C 26,7 C 26,7 C 69 % 1016,7 hPa 0,0 l/m 14,4 km/h (3 Bft) O-NO 64 2 min 0,000 mm 1,4 UV-I 361 W/m 16,2 C 20,0 C 17,7 km/h (3 Bft) 96,00 %
06.08.2018 09:06 22,3 C 26,7 C 26,7 C 68 % 1016,6 hPa 0,0 l/m 12,0 km/h (2 Bft) O-NO 59 2 min 0,000 mm 1,4 UV-I 353 W/m 16,1 C 20,7 C 17,7 km/h (3 Bft) 92,11 %
06.08.2018 09:08 22,3 C 26,7 C 27,2 C 68 % 1016,7 hPa 0,0 l/m 9,2 km/h (2 Bft) O-NO 59 2 min 0,000 mm 1,5 UV-I 361 W/m 16,1 C 21,4 C 14,5 km/h (3 Bft) 98,00 %
06.08.2018 09:10 22,4 C 26,7 C 27,8 C 68 % 1016,7 hPa 0,0 l/m 8,3 km/h (2 Bft) O 94 2 min 0,000 mm 1,6 UV-I 410 W/m 16,2 C 21,8 C 14,5 km/h (3 Bft) 97,87 %
06.08.2018 09:12 22,5 C 26,1 C 28,3 C 68 % 1016,7 hPa 0,0 l/m 7,9 km/h (2 Bft) O-NO 65 2 min 0,000 mm 1,6 UV-I 379 W/m 16,3 C 22,0 C 11,3 km/h (2 Bft) 97,73 %
06.08.2018 09:14 22,5 C 26,1 C 28,3 C 68 % 1016,7 hPa 0,0 l/m 8,4 km/h (2 Bft) O 83 2 min 0,000 mm 1,6 UV-I 392 W/m 16,3 C 21,9 C 17,7 km/h (3 Bft) 98,21 %
06.08.2018 09:16 22,5 C 26,1 C 28,3 C 68 % 1016,7 hPa 0,0 l/m 8,4 km/h (2 Bft) NO 55 2 min 0,000 mm 1,7 UV-I 399 W/m 16,3 C 21,9 C 14,5 km/h (3 Bft) 97,56 %
06.08.2018 09:18 22,6 C 26,1 C 28,9 C 68 % 1016,7 hPa 0,0 l/m 10,9 km/h (2 Bft) O 94 2 min 0,000 mm 1,7 UV-I 395 W/m 16,4 C 21,3 C 16,1 km/h (3 Bft) 97,44 %
06.08.2018 09:20 22,6 C 26,1 C 28,3 C 67 % 1016,7 hPa 0,0 l/m 13,3 km/h (3 Bft) O-NO 59 2 min 0,000 mm 1,7 UV-I 425 W/m 16,2 C 20,7 C 19,3 km/h (3 Bft) 96,43 %
06.08.2018 09:22 22,5 C 26,1 C 28,9 C 68 % 1016,7 hPa 0,0 l/m 12,4 km/h (3 Bft) O-NO 61 2 min 0,000 mm 1,8 UV-I 477 W/m 16,3 C 20,8 C 16,1 km/h (3 Bft) 97,87 %
06.08.2018 09:24 22,5 C 26,1 C 29,4 C 68 % 1016,7 hPa 0,0 l/m 10,5 km/h (2 Bft) O-NO 73 2 min 0,000 mm 1,8 UV-I 473 W/m 16,3 C 21,3 C 14,5 km/h (3 Bft) 97,73 %
06.08.2018 09:26 22,5 C 26,1 C 28,9 C 68 % 1016,7 hPa 0,0 l/m 11,4 km/h (2 Bft) NO 52 2 min 0,000 mm 1,8 UV-I 460 W/m 16,3 C 21,0 C 14,5 km/h (3 Bft) 98,11 %
06.08.2018 09:28 22,6 C 26,1 C 28,9 C 69 % 1016,7 hPa 0,0 l/m 12,7 km/h (3 Bft) O-NO 58 2 min 0,000 mm 1,8 UV-I 404 W/m 16,6 C 20,9 C 17,7 km/h (3 Bft) 95,12 %
06.08.2018 09:30 22,7 C 26,1 C 28,9 C 69 % 1016,7 hPa 0,0 l/m 10,7 km/h (2 Bft) O 82 2 min 0,000 mm 1,8 UV-I 372 W/m 16,7 C 21,4 C 16,1 km/h (3 Bft) 92,00 %
06.08.2018 09:32 22,7 C 26,1 C 29,4 C 69 % 1016,7 hPa 0,0 l/m 7,0 km/h (2 Bft) O-NO 74 2 min 0,000 mm 1,9 UV-I 447 W/m 16,7 C 22,5 C 12,9 km/h (3 Bft) 95,12 %
06.08.2018 09:34 22,8 C 26,7 C 30,6 C 69 % 1016,7 hPa 0,0 l/m 8,5 km/h (2 Bft) O-SO 112 2 min 0,000 mm 2,2 UV-I 540 W/m 16,8 C 22,1 C 16,1 km/h (3 Bft) 96,00 %
06.08.2018 09:36 23,1 C 26,1 C 31,1 C 69 % 1016,7 hPa 0,0 l/m 10,3 km/h (2 Bft) O 82 2 min 0,000 mm 2,1 UV-I 531 W/m 17,1 C 22,0 C 16,1 km/h (3 Bft) 96,23 %
06.08.2018 09:38 23,1 C 26,1 C 31,1 C 67 % 1016,7 hPa 0,0 l/m 9,3 km/h (2 Bft) N-NO 30 2 min 0,000 mm 2,1 UV-I 460 W/m 16,6 C 22,2 C 12,9 km/h (3 Bft) 97,56 %
06.08.2018 09:40 23,2 C 26,7 C 31,7 C 69 % 1016,7 hPa 0,0 l/m 11,7 km/h (2 Bft) O-NO 61 2 min 0,000 mm 2,3 UV-I 510 W/m 17,2 C 21,8 C 17,7 km/h (3 Bft) 94,34 %
06.08.2018 09:42 23,3 C 26,7 C 32,8 C 68 % 1016,7 hPa 0,0 l/m 8,8 km/h (2 Bft) NO 44 2 min 0,000 mm 2,5 UV-I 631 W/m 17,1 C 22,6 C 14,5 km/h (3 Bft) 97,37 %
06.08.2018 09:44 23,6 C 26,7 C 33,3 C 69 % 1016,7 hPa 0,0 l/m 8,2 km/h (2 Bft) O 98 2 min 0,000 mm 2,5 UV-I 600 W/m 17,6 C 23,1 C 12,9 km/h (3 Bft) 95,45 %
06.08.2018 09:46 23,7 C 26,7 C 32,8 C 66 % 1016,7 hPa 0,0 l/m 10,6 km/h (2 Bft) O 86 2 min 0,000 mm 2,4 UV-I 571 W/m 17,0 C 22,6 C 14,5 km/h (3 Bft) 98,21 %
06.08.2018 09:48 23,5 C 26,7 C 31,7 C 66 % 1016,7 hPa 0,0 l/m 10,9 km/h (2 Bft) O-NO 71 2 min 0,000 mm 2,3 UV-I 500 W/m 16,8 C 22,3 C 16,1 km/h (3 Bft) 98,00 %
06.08.2018 09:50 23,4 C 26,7 C 31,1 C 68 % 1016,7 hPa 0,0 l/m 8,2 km/h (2 Bft) NO 55 2 min 0,000 mm 2,3 UV-I 469 W/m 17,1 C 22,9 C 17,7 km/h (3 Bft) 94,74 %
06.08.2018 09:52 23,4 C 26,7 C 30,0 C 68 % 1016,7 hPa 0,0 l/m 11,0 km/h (2 Bft) O-NO 63 2 min 0,000 mm 2,1 UV-I 372 W/m 17,1 C 22,2 C 14,5 km/h (3 Bft) 94,00 %
06.08.2018 09:54 23,4 C 26,7 C 31,1 C 69 % 1016,7 hPa 0,0 l/m 11,6 km/h (2 Bft) O-NO 64 2 min 0,000 mm 2,6 UV-I 442 W/m 17,4 C 22,0 C 17,7 km/h (3 Bft) 93,62 %
06.08.2018 09:56 23,7 C 26,7 C 31,7 C 68 % 1016,7 hPa 0,0 l/m 10,9 km/h (2 Bft) NO 36 2 min 0,000 mm 2,7 UV-I 633 W/m 17,4 C 22,5 C 17,7 km/h (3 Bft) 97,44 %
06.08.2018 09:58 23,8 C 26,7 C 32,2 C 67 % 1016,6 hPa 0,0 l/m 13,1 km/h (3 Bft) NO 42 2 min 0,000 mm 2,8 UV-I 640 W/m 17,3 C 22,2 C 20,9 km/h (4 Bft) 98,00 %
06.08.2018 10:00 24,0 C 26,7 C 33,3 C 66 % 1016,6 hPa 0,0 l/m 13,4 km/h (3 Bft) O-NO 72 2 min 0,330 mm 2,9 UV-I 655 W/m 17,2 C 22,4 C 19,3 km/h (3 Bft) 97,87 %
06.08.2018 10:02 24,1 C 26,7 C 32,8 C 65 % 1016,7 hPa 0,0 l/m 13,9 km/h (3 Bft) O-NO 65 2 min 0,000 mm 2,9 UV-I 651 W/m 17,1 C 22,4 C 17,7 km/h (3 Bft) 96,00 %
06.08.2018 10:04 23,9 C 26,7 C 33,3 C 66 % 1016,6 hPa 0,0 l/m 10,6 km/h (2 Bft) O-NO 67 2 min 0,000 mm 2,8 UV-I 602 W/m 17,1 C 22,8 C 12,9 km/h (3 Bft) 98,11 %
06.08.2018 10:06 23,9 C 26,7 C 32,8 C 65 % 1016,6 hPa 0,0 l/m 14,1 km/h (3 Bft) O-SO 113 2 min 0,000 mm 2,9 UV-I 641 W/m 16,9 C 22,1 C 24,1 km/h (4 Bft) 95,74 %
06.08.2018 10:08 23,9 C 26,7 C 33,3 C 65 % 1016,6 hPa 0,0 l/m 9,1 km/h (2 Bft) O-SO 103 2 min 0,000 mm 3,0 UV-I 658 W/m 16,9 C 23,2 C 14,5 km/h (3 Bft) 97,37 %
06.08.2018 10:10 24,1 C 26,7 C 34,4 C 67 % 1016,7 hPa 0,0 l/m 12,6 km/h (3 Bft) O 95 2 min 0,000 mm 3,1 UV-I 674 W/m 17,6 C 22,6 C 20,9 km/h (4 Bft) 98,00 %
06.08.2018 10:12 24,3 C 26,7 C 34,4 C 65 % 1016,6 hPa 0,0 l/m 12,4 km/h (3 Bft) O-SO 105 2 min 0,000 mm 3,2 UV-I 700 W/m 17,3 C 22,9 C 19,3 km/h (3 Bft) 98,11 %
06.08.2018 10:14 24,3 C 26,7 C 35,0 C 65 % 1016,7 hPa 0,0 l/m 13,6 km/h (3 Bft) O-SO 115 2 min 0,000 mm 3,2 UV-I 704 W/m 17,3 C 22,7 C 19,3 km/h (3 Bft) 97,37 %
06.08.2018 10:16 24,4 C 26,7 C 35,6 C 64 % 1016,7 hPa 0,0 l/m 12,6 km/h (3 Bft) O-NO 64 2 min 0,000 mm 3,3 UV-I 703 W/m 17,1 C 23,0 C 17,7 km/h (3 Bft) 96,23 %
06.08.2018 10:18 24,2 C 26,7 C 35,0 C 65 % 1016,7 hPa 0,0 l/m 8,2 km/h (2 Bft) O 101 2 min 0,000 mm 3,3 UV-I 689 W/m 17,2 C 23,7 C 12,9 km/h (3 Bft) 94,74 %
06.08.2018 10:20 24,2 C 26,7 C 35,6 C 66 % 1016,6 hPa 0,0 l/m 7,5 km/h (2 Bft) O-NO 71 2 min 0,000 mm 3,3 UV-I 654 W/m 17,4 C 23,9 C 16,1 km/h (3 Bft) 98,11 %
06.08.2018 10:22 24,5 C 26,7 C 36,1 C 66 % 1016,6 hPa 0,0 l/m 10,5 km/h (2 Bft) NO 48 2 min 0,000 mm 3,3 UV-I 686 W/m 17,7 C 23,5 C 17,7 km/h (3 Bft) 97,87 %
06.08.2018 10:24 24,9 C 26,7 C 35,6 C 65 % 1016,6 hPa 0,0 l/m 14,8 km/h (3 Bft) N-NO 17 2 min 0,000 mm 3,3 UV-I 688 W/m 17,9 C 23,2 C 17,7 km/h (3 Bft) 100,00 %
06.08.2018 10:26 25,1 C 26,7 C 34,4 C 63 % 1016,6 hPa 0,0 l/m 15,3 km/h (3 Bft) NO 36 2 min 0,000 mm 3,4 UV-I 689 W/m 17,5 C 23,4 C 24,1 km/h (4 Bft) 100,00 %
06.08.2018 10:28 25,2 C 26,7 C 34,4 C 63 % 1016,6 hPa 0,0 l/m 13,0 km/h (3 Bft) O-NO 59 2 min 0,000 mm 3,4 UV-I 705 W/m 17,6 C 23,9 C 17,7 km/h (3 Bft) 100,00 %
06.08.2018 10:30 25,0 C 26,7 C 31,7 C 62 % 1016,6 hPa 0,0 l/m 15,5 km/h (3 Bft) O-NO 78 2 min 0,000 mm 2,8 UV-I 593 W/m 17,2 C 23,2 C 22,5 km/h (4 Bft) 97,56 %
06.08.2018 10:32 24,8 C 26,7 C 32,2 C 62 % 1016,7 hPa 0,0 l/m 9,5 km/h (2 Bft) O-SO 114 2 min 0,000 mm 3,1 UV-I 520 W/m 17,0 C 24,0 C 14,5 km/h (3 Bft) 100,00 %
06.08.2018 10:34 24,8 C 26,7 C 33,9 C 64 % 1016,7 hPa 0,0 l/m 9,0 km/h (2 Bft) O 87 2 min 0,000 mm 3,5 UV-I 686 W/m 17,5 C 24,2 C 14,5 km/h (3 Bft) 100,00 %
06.08.2018 10:36 24,8 C 26,7 C 33,9 C 63 % 1016,6 hPa 0,0 l/m 11,1 km/h (2 Bft) O-NO 59 2 min 0,000 mm 3,5 UV-I 687 W/m 17,3 C 23,7 C 17,7 km/h (3 Bft) 100,00 %
06.08.2018 10:38 24,8 C 26,7 C 33,9 C 62 % 1016,6 hPa 0,0 l/m 15,5 km/h (3 Bft) O-NO 74 2 min 0,000 mm 3,3 UV-I 612 W/m 17,0 C 23,0 C 22,5 km/h (4 Bft) 100,00 %
06.08.2018 10:40 24,8 C 26,7 C 33,9 C 64 % 1016,6 hPa 0,0 l/m 9,0 km/h (2 Bft) O 95 2 min 0,000 mm 3,2 UV-I 564 W/m 17,5 C 24,2 C 14,5 km/h (3 Bft) 100,00 %
06.08.2018 10:42 25,0 C 26,7 C 34,4 C 63 % 1016,6 hPa 0,0 l/m 14,5 km/h (3 Bft) O-NO 71 2 min 0,000 mm 3,4 UV-I 608 W/m 17,5 C 23,4 C 20,9 km/h (4 Bft) 100,00 %
06.08.2018 10:44 24,9 C 26,7 C 33,9 C 62 % 1016,6 hPa 0,0 l/m 10,4 km/h (2 Bft) O 82 2 min 0,000 mm 3,6 UV-I 669 W/m 17,1 C 24,0 C 17,7 km/h (3 Bft) 100,00 %
06.08.2018 10:46 24,9 C 26,7 C 35,0 C 63 % 1016,6 hPa 0,0 l/m 8,1 km/h (2 Bft) NO 48 2 min 0,000 mm 3,7 UV-I 692 W/m 17,4 C 24,5 C 14,5 km/h (3 Bft) 97,73 %
06.08.2018 10:48 25,2 C 26,7 C 34,4 C 64 % 1016,6 hPa 0,0 l/m 10,1 km/h (2 Bft) O 99 2 min 0,000 mm 3,8 UV-I 696 W/m 17,9 C 24,4 C 16,1 km/h (3 Bft) 100,00 %
06.08.2018 10:50 25,3 C 26,7 C 35,0 C 64 % 1016,6 hPa 0,0 l/m 9,3 km/h (2 Bft) NO 53 2 min 0,000 mm 3,7 UV-I 646 W/m 18,0 C 24,6 C 14,5 km/h (3 Bft) 100,00 %
06.08.2018 10:52 25,3 C 26,7 C 34,4 C 62 % 1016,6 hPa 0,0 l/m 14,2 km/h (3 Bft) NO 50 2 min 0,000 mm 3,7 UV-I 633 W/m 17,5 C 23,8 C 20,9 km/h (4 Bft) 100,00 %
06.08.2018 10:54 25,4 C 26,7 C 33,9 C 63 % 1016,6 hPa 0,0 l/m 14,7 km/h (3 Bft) O-NO 65 2 min 0,000 mm 3,7 UV-I 643 W/m 17,8 C 23,8 C 20,9 km/h (4 Bft) 97,14 %
06.08.2018 10:56 25,3 C 26,7 C 35,0 C 62 % 1016,6 hPa 0,0 l/m 5,6 km/h (1 Bft) O 98 2 min 0,000 mm 4,0 UV-I 716 W/m 17,5 C 25,3 C 9,7 km/h (2 Bft) 100,00 %
06.08.2018 10:58 25,3 C 26,7 C 35,0 C 63 % 1016,6 hPa 0,0 l/m 10,4 km/h (2 Bft) NO 56 2 min 0,000 mm 4,1 UV-I 733 W/m 17,7 C 24,4 C 17,7 km/h (3 Bft) 100,00 %
06.08.2018 11:00 25,4 C 26,7 C 36,1 C 63 % 1016,6 hPa 0,0 l/m 11,4 km/h (2 Bft) O 99 2 min 0,482 mm 4,1 UV-I 748 W/m 17,8 C 24,4 C 17,7 km/h (3 Bft) 100,00 %
06.08.2018 11:02 25,5 C 26,7 C 36,1 C 63 % 1016,5 hPa 0,0 l/m 13,5 km/h (3 Bft) NO 53 2 min 0,000 mm 4,2 UV-I 769 W/m 17,9 C 24,1 C 20,9 km/h (4 Bft) 97,87 %
06.08.2018 11:04 25,7 C 26,7 C 36,7 C 61 % 1016,6 hPa 0,0 l/m 13,2 km/h (3 Bft) O 81 2 min 0,000 mm 4,3 UV-I 782 W/m 17,6 C 24,4 C 16,1 km/h (3 Bft) 97,56 %
06.08.2018 11:06 25,6 C 26,7 C 36,7 C 61 % 1016,5 hPa 0,0 l/m 7,9 km/h (2 Bft) O-NO 63 2 min 0,000 mm 4,2 UV-I 739 W/m 17,5 C 25,3 C 14,5 km/h (3 Bft) 97,87 %
06.08.2018 11:08 25,7 C 26,7 C 36,7 C 61 % 1016,5 hPa 0,0 l/m 12,7 km/h (3 Bft) O-NO 59 2 min 0,000 mm 4,1 UV-I 710 W/m 17,6 C 24,5 C 17,7 km/h (3 Bft) 97,87 %
06.08.2018 11:10 25,7 C 26,7 C 36,7 C 63 % 1016,5 hPa 0,0 l/m 10,5 km/h (2 Bft) NO 50 2 min 0,000 mm 4,1 UV-I 716 W/m 18,1 C 24,8 C 14,5 km/h (3 Bft) 96,23 %
06.08.2018 11:12 25,8 C 26,7 C 36,7 C 62 % 1016,5 hPa 0,0 l/m 10,3 km/h (2 Bft) NO 49 2 min 0,000 mm 4,0 UV-I 677 W/m 18,0 C 25,0 C 17,7 km/h (3 Bft) 97,44 %
06.08.2018 11:14 25,7 C 26,7 C 36,1 C 63 % 1016,5 hPa 0,0 l/m 10,8 km/h (2 Bft) O-SO 115 2 min 0,000 mm 3,8 UV-I 618 W/m 18,1 C 24,8 C 17,7 km/h (3 Bft) 97,87 %
06.08.2018 11:16 25,7 C 26,7 C 36,1 C 63 % 1016,5 hPa 0,0 l/m 11,3 km/h (2 Bft) O 80 2 min 0,000 mm 3,8 UV-I 626 W/m 18,1 C 24,7 C 16,1 km/h (3 Bft) 97,87 %
06.08.2018 11:18 25,6 C 26,7 C 35,6 C 62 % 1016,4 hPa 0,0 l/m 10,3 km/h (2 Bft) O-NO 74 2 min 0,000 mm 4,0 UV-I 654 W/m 17,8 C 24,8 C 16,1 km/h (3 Bft) 96,00 %
06.08.2018 11:20 25,5 C 26,7 C 36,1 C 63 % 1016,5 hPa 0,0 l/m 7,9 km/h (2 Bft) O-SO 108 2 min 0,000 mm 4,1 UV-I 706 W/m 17,9 C 25,1 C 11,3 km/h (2 Bft) 94,34 %
06.08.2018 11:22 25,4 C 26,7 C 36,7 C 64 % 1016,4 hPa 0,0 l/m 5,7 km/h (1 Bft) O 80 2 min 0,000 mm 4,0 UV-I 650 W/m 18,1 C 25,4 C 12,9 km/h (3 Bft) 100,00 %
06.08.2018 11:24 25,4 C 26,7 C 36,7 C 64 % 1016,4 hPa 0,0 l/m 6,0 km/h (2 Bft) O 98 2 min 0,000 mm 4,0 UV-I 642 W/m 18,1 C 25,4 C 14,5 km/h (3 Bft) 96,23 %
06.08.2018 11:26 25,6 C 26,7 C 36,1 C 64 % 1016,4 hPa 0,0 l/m 13,1 km/h (3 Bft) NO 53 2 min 0,000 mm 4,3 UV-I 696 W/m 18,3 C 24,3 C 17,7 km/h (3 Bft) 95,45 %
06.08.2018 11:28 25,7 C 26,7 C 36,7 C 64 % 1016,3 hPa 0,0 l/m 8,1 km/h (2 Bft) O-SO 103 2 min 0,000 mm 4,5 UV-I 754 W/m 18,4 C 25,3 C 12,9 km/h (3 Bft) 97,87 %
06.08.2018 11:30 25,8 C 26,7 C 37,2 C 62 % 1016,3 hPa 0,0 l/m 9,9 km/h (2 Bft) O 81 2 min 0,000 mm 4,5 UV-I 745 W/m 18,0 C 25,1 C 12,9 km/h (3 Bft) 100,00 %
06.08.2018 11:32 25,8 C 26,7 C 37,2 C 63 % 1016,3 hPa 0,0 l/m 8,6 km/h (2 Bft) O-SO 103 2 min 0,000 mm 4,5 UV-I 742 W/m 18,2 C 25,3 C 11,3 km/h (2 Bft) 100,00 %
06.08.2018 11:34 25,7 C 26,7 C 37,8 C 63 % 1016,3 hPa 0,0 l/m 7,0 km/h (2 Bft) O-NO 65 2 min 0,000 mm 4,6 UV-I 773 W/m 18,1 C 25,6 C 12,9 km/h (3 Bft) 98,21 %
06.08.2018 11:36 25,9 C 26,7 C 38,9 C 65 % 1016,3 hPa 0,0 l/m 9,6 km/h (2 Bft) NO 53 2 min 0,000 mm 4,8 UV-I 794 W/m 18,8 C 25,2 C 14,5 km/h (3 Bft) 100,00 %
06.08.2018 11:38 26,4 C 26,7 C 38,9 C 62 % 1016,3 hPa 0,0 l/m 11,1 km/h (2 Bft) O 94 2 min 0,000 mm 4,7 UV-I 777 W/m 18,5 C 25,5 C 17,7 km/h (3 Bft) 97,73 %
06.08.2018 11:40 26,4 C 26,7 C 38,3 C 63 % 1016,3 hPa 0,0 l/m 9,5 km/h (2 Bft) O-NO 65 2 min 0,000 mm 4,7 UV-I 765 W/m 18,8 C 25,8 C 24,1 km/h (4 Bft) 100,00 %
06.08.2018 11:42 26,5 C 26,7 C 37,2 C 62 % 1016,2 hPa 0,0 l/m 14,1 km/h (3 Bft) NO 56 2 min 0,000 mm 4,8 UV-I 795 W/m 18,6 C 25,2 C 19,3 km/h (3 Bft) 100,00 %
06.08.2018 11:44 26,4 C 26,7 C 36,7 C 60 % 1016,2 hPa 0,0 l/m 6,3 km/h (2 Bft) O-SO 111 2 min 0,000 mm 4,5 UV-I 739 W/m 18,0 C 26,4 C 9,7 km/h (2 Bft) 100,00 %
06.08.2018 11:46 26,3 C 26,7 C 37,2 C 62 % 1016,2 hPa 0,0 l/m 9,7 km/h (2 Bft) O-SO 121 2 min 0,000 mm 4,5 UV-I 736 W/m 18,4 C 25,7 C 16,1 km/h (3 Bft) 98,31 %
06.08.2018 11:48 26,4 C 26,7 C 37,2 C 62 % 1016,2 hPa 0,0 l/m 12,0 km/h (2 Bft) O-SO 106 2 min 0,000 mm 4,5 UV-I 719 W/m 18,5 C 25,4 C 17,7 km/h (3 Bft) 98,08 %
06.08.2018 11:50 26,3 C 26,7 C 37,8 C 62 % 1016,2 hPa 0,0 l/m 6,2 km/h (2 Bft) O 99 2 min 0,000 mm 4,7 UV-I 771 W/m 18,4 C 26,3 C 19,3 km/h (3 Bft) 97,78 %
06.08.2018 11:52 26,4 C 26,7 C 37,8 C 62 % 1016,2 hPa 0,0 l/m 12,6 km/h (3 Bft) O-NO 75 2 min 0,000 mm 4,6 UV-I 752 W/m 18,5 C 25,3 C 17,7 km/h (3 Bft) 96,15 %
06.08.2018 11:54 26,6 C 26,7 C 37,2 C 61 % 1016,2 hPa 0,0 l/m 14,4 km/h (3 Bft) O-SO 115 2 min 0,000 mm 4,6 UV-I 736 W/m 18,4 C 25,3 C 20,9 km/h (4 Bft) 97,44 %
06.08.2018 11:56 26,7 C 26,7 C 37,8 C 62 % 1016,2 hPa 0,0 l/m 8,9 km/h (2 Bft) O 80 2 min 0,000 mm 4,6 UV-I 732 W/m 18,8 C 26,2 C 16,1 km/h (3 Bft) 98,00 %
06.08.2018 11:58 26,7 C 26,7 C 37,2 C 61 % 1016,2 hPa 0,0 l/m 10,4 km/h (2 Bft) N-NO 20 2 min 0,000 mm 4,6 UV-I 734 W/m 18,5 C 26,0 C 17,7 km/h (3 Bft) 98,00 %
06.08.2018 12:00 26,8 C 26,7 C 37,2 C 61 % 1016,2 hPa 0,0 l/m 9,0 km/h (2 Bft) NO 34 2 min 0,508 mm 4,7 UV-I 755 W/m 18,6 C 26,3 C 17,7 km/h (3 Bft) 98,00 %
06.08.2018 12:02 26,9 C 26,7 C 37,2 C 62 % 1016,1 hPa 0,0 l/m 7,8 km/h (2 Bft) O-NO 63 2 min 0,000 mm 4,8 UV-I 796 W/m 19,0 C 26,6 C 16,1 km/h (3 Bft) 97,87 %
06.08.2018 12:04 27,1 C 26,7 C 36,7 C 60 % 1016,1 hPa 0,0 l/m 12,2 km/h (2 Bft) O 91 2 min 0,000 mm 4,7 UV-I 760 W/m 18,6 C 26,2 C 17,7 km/h (3 Bft) 97,37 %
06.08.2018 12:06 26,9 C 26,7 C 36,7 C 59 % 1016,2 hPa 0,0 l/m 12,5 km/h (3 Bft) O 95 2 min 0,000 mm 3,7 UV-I 711 W/m 18,2 C 25,9 C 19,3 km/h (3 Bft) 98,21 %
06.08.2018 12:08 26,6 C 26,7 C 35,6 C 61 % 1016,1 hPa 0,0 l/m 7,4 km/h (2 Bft) O-NO 57 2 min 0,000 mm 3,3 UV-I 521 W/m 18,4 C 26,4 C 14,5 km/h (3 Bft) 97,56 %
06.08.2018 12:10 26,5 C 26,7 C 36,1 C 61 % 1016,1 hPa 0,0 l/m 9,5 km/h (2 Bft) O-NO 59 2 min 0,000 mm 4,4 UV-I 612 W/m 18,4 C 25,9 C 16,1 km/h (3 Bft) 91,49 %
06.08.2018 12:12 26,7 C 26,7 C 36,1 C 61 % 1016,1 hPa 0,0 l/m 14,7 km/h (3 Bft) NO 53 2 min 0,000 mm 4,5 UV-I 672 W/m 18,5 C 25,4 C 20,9 km/h (4 Bft) 98,11 %
06.08.2018 12:14 26,8 C 26,7 C 35,6 C 59 % 1016,1 hPa 0,0 l/m 14,6 km/h (3 Bft) NO 36 2 min 0,000 mm 4,6 UV-I 676 W/m 18,1 C 25,5 C 20,9 km/h (4 Bft) 97,87 %
06.08.2018 12:16 26,8 C 26,7 C 35,6 C 59 % 1016,1 hPa 0,0 l/m 13,8 km/h (3 Bft) O-NO 66 2 min 0,000 mm 4,4 UV-I 654 W/m 18,1 C 25,6 C 19,3 km/h (3 Bft) 97,37 %
06.08.2018 12:18 26,9 C 26,7 C 36,1 C 58 % 1016,1 hPa 0,0 l/m 10,3 km/h (2 Bft) O-NO 73 2 min 0,000 mm 4,7 UV-I 668 W/m 17,9 C 26,2 C 17,7 km/h (3 Bft) 98,00 %
06.08.2018 12:20 27,1 C 26,7 C 37,8 C 58 % 1016,1 hPa 0,0 l/m 10,6 km/h (2 Bft) O-NO 76 2 min 0,000 mm 5,3 UV-I 883 W/m 18,1 C 26,4 C 16,1 km/h (3 Bft) 98,00 %
06.08.2018 12:22 27,1 C 26,7 C 37,8 C 57 % 1016,1 hPa 0,0 l/m 12,1 km/h (2 Bft) N-NO 32 2 min 0,000 mm 4,8 UV-I 804 W/m 17,8 C 26,2 C 16,1 km/h (3 Bft) 95,74 %
06.08.2018 12:24 27,3 C 26,7 C 37,8 C 58 % 1016,1 hPa 0,0 l/m 15,2 km/h (3 Bft) NO 36 2 min 0,000 mm 4,8 UV-I 712 W/m 18,3 C 26,1 C 19,3 km/h (3 Bft) 98,00 %
06.08.2018 12:26 27,7 C 26,7 C 37,8 C 56 % 1016,0 hPa 0,0 l/m 14,6 km/h (3 Bft) NO 55 2 min 0,000 mm 5,0 UV-I 812 W/m 18,1 C 26,6 C 22,5 km/h (4 Bft) 100,00 %
06.08.2018 12:28 27,7 C 26,7 C 37,8 C 57 % 1015,9 hPa 0,0 l/m 12,3 km/h (3 Bft) N-NO 25 2 min 0,000 mm 5,0 UV-I 794 W/m 18,4 C 26,9 C 17,7 km/h (3 Bft) 100,00 %
06.08.2018 12:30 27,9 C 26,7 C 37,8 C 56 % 1015,9 hPa 0,0 l/m 15,0 km/h (3 Bft) NO 55 2 min 0,000 mm 5,2 UV-I 806 W/m 18,3 C 26,8 C 20,9 km/h (4 Bft) 100,00 %
06.08.2018 12:32 27,9 C 26,7 C 37,2 C 54 % 1015,9 hPa 0,0 l/m 11,5 km/h (2 Bft) N-NO 20 2 min 0,000 mm 5,1 UV-I 826 W/m 17,7 C 27,2 C 20,9 km/h (4 Bft) 100,00 %
06.08.2018 12:34 27,7 C 26,7 C 37,8 C 56 % 1015,9 hPa 0,0 l/m 12,5 km/h (3 Bft) O-NO 71 2 min 0,000 mm 5,1 UV-I 784 W/m 18,1 C 26,8 C 19,3 km/h (3 Bft) 96,43 %
06.08.2018 12:36 27,7 C 26,7 C 39,4 C 56 % 1015,9 hPa 0,0 l/m 12,4 km/h (3 Bft) O-NO 72 2 min 0,000 mm 5,4 UV-I 869 W/m 18,1 C 26,9 C 20,9 km/h (4 Bft) 97,56 %
06.08.2018 12:38 27,8 C 26,7 C 40,0 C 57 % 1015,9 hPa 0,0 l/m 12,5 km/h (3 Bft) NO 49 2 min 0,000 mm 5,6 UV-I 907 W/m 18,5 C 27,0 C 17,7 km/h (3 Bft) 97,87 %
06.08.2018 12:40 28,0 C 26,7 C 38,9 C 55 % 1015,9 hPa 0,0 l/m 14,6 km/h (3 Bft) N-NO 33 2 min 0,000 mm 5,3 UV-I 808 W/m 18,1 C 27,0 C 19,3 km/h (3 Bft) 98,00 %
06.08.2018 12:42 28,0 C 26,7 C 37,8 C 54 % 1015,9 hPa 0,0 l/m 11,9 km/h (2 Bft) O-NO 78 2 min 0,000 mm 4,9 UV-I 741 W/m 17,8 C 27,3 C 17,7 km/h (3 Bft) 95,12 %
06.08.2018 12:44 27,8 C 26,7 C 37,8 C 56 % 1015,8 hPa 0,0 l/m 8,5 km/h (2 Bft) O-NO 59 2 min 0,000 mm 5,1 UV-I 776 W/m 18,2 C 27,5 C 19,3 km/h (3 Bft) 94,34 %
06.08.2018 12:46 27,9 C 26,7 C 37,2 C 56 % 1015,8 hPa 0,0 l/m 18,8 km/h (3 Bft) NO 34 2 min 0,000 mm 5,0 UV-I 733 W/m 18,3 C 26,5 C 22,5 km/h (4 Bft) 93,62 %
06.08.2018 12:48 28,2 C 27,2 C 36,1 C 55 % 1015,8 hPa 0,0 l/m 15,5 km/h (3 Bft) NO 36 2 min 0,000 mm 4,9 UV-I 718 W/m 18,3 C 27,1 C 20,9 km/h (4 Bft) 94,74 %
06.08.2018 12:50 28,4 C 26,7 C 37,8 C 54 % 1015,8 hPa 0,0 l/m 16,3 km/h (3 Bft) O 95 2 min 0,000 mm 5,5 UV-I 892 W/m 18,2 C 27,3 C 24,1 km/h (4 Bft) 94,00 %
06.08.2018 12:52 28,1 C 27,2 C 37,8 C 53 % 1015,8 hPa 0,0 l/m 13,0 km/h (3 Bft) O 83 2 min 0,000 mm 5,4 UV-I 865 W/m 17,6 C 27,3 C 19,3 km/h (3 Bft) 96,00 %
06.08.2018 12:54 27,9 C 27,2 C 39,4 C 55 % 1015,8 hPa 0,0 l/m 10,3 km/h (2 Bft) O-SO 107 2 min 0,000 mm 5,5 UV-I 910 W/m 18,0 C 27,3 C 14,5 km/h (3 Bft) 95,12 %
06.08.2018 12:56 27,8 C 27,2 C 38,9 C 54 % 1015,8 hPa 0,0 l/m 11,6 km/h (2 Bft) NO 39 2 min 0,000 mm 5,1 UV-I 863 W/m 17,6 C 27,1 C 16,1 km/h (3 Bft) 94,64 %
06.08.2018 12:58 27,9 C 27,2 C 37,2 C 54 % 1015,7 hPa 0,0 l/m 13,5 km/h (3 Bft) NO 40 2 min 0,000 mm 4,1 UV-I 777 W/m 17,7 C 27,0 C 19,3 km/h (3 Bft) 93,18 %
06.08.2018 13:00 28,0 C 27,2 C 35,6 C 54 % 1015,7 hPa 0,0 l/m 13,7 km/h (3 Bft) N-NO 32 0 min 0,559 mm 3,6 UV-I 436 W/m 17,8 C 27,1 C 17,7 km/h (3 Bft) 96,00 %
06.08.2018 13:02 28,0 C 27,2 C 35,0 C 54 % 1015,8 hPa 0,0 l/m 8,5 km/h (2 Bft) O 88 2 min 0,000 mm 3,7 UV-I 485 W/m 17,8 C 27,7 C 12,9 km/h (3 Bft) 91,67 %
06.08.2018 13:04 27,8 C 27,2 C 35,0 C 55 % 1015,7 hPa 0,0 l/m 12,0 km/h (2 Bft) O 79 2 min 0,000 mm 3,7 UV-I 464 W/m 17,9 C 27,0 C 16,1 km/h (3 Bft) 96,00 %
06.08.2018 13:06 27,6 C 27,2 C 35,0 C 55 % 1015,8 hPa 0,0 l/m 7,3 km/h (2 Bft) O-NO 63 2 min 0,000 mm 3,9 UV-I 478 W/m 17,7 C 27,4 C 14,5 km/h (3 Bft) 96,00 %
06.08.2018 13:08 27,5 C 27,2 C 35,0 C 55 % 1015,8 hPa 0,0 l/m 11,1 km/h (2 Bft) O 91 2 min 0,000 mm 4,2 UV-I 543 W/m 17,6 C 26,8 C 17,7 km/h (3 Bft) 96,00 %
06.08.2018 13:10 27,4 C 27,2 C 35,0 C 55 % 1015,7 hPa 0,0 l/m 9,0 km/h (2 Bft) O 101 2 min 0,000 mm 4,1 UV-I 561 W/m 17,5 C 27,0 C 14,5 km/h (3 Bft) 97,56 %
06.08.2018 13:12 27,4 C 27,2 C 34,4 C 56 % 1015,7 hPa 0,0 l/m 10,2 km/h (2 Bft) NO 55 0 min 0,000 mm 3,6 UV-I 449 W/m 17,8 C 26,8 C 16,1 km/h (3 Bft) 98,11 %
06.08.2018 13:14 27,4 C 27,2 C 33,3 C 55 % 1015,6 hPa 0,0 l/m 12,2 km/h (2 Bft) N-NO 31 0 min 0,000 mm 3,5 UV-I 442 W/m 17,5 C 26,5 C 17,7 km/h (3 Bft) 95,74 %
06.08.2018 13:16 27,4 C 27,2 C 33,3 C 56 % 1015,6 hPa 0,0 l/m 11,9 km/h (2 Bft) N-NO 23 0 min 0,000 mm 3,5 UV-I 451 W/m 17,8 C 26,6 C 16,1 km/h (3 Bft) 94,00 %
06.08.2018 13:18 27,5 C 27,2 C 33,3 C 56 % 1015,6 hPa 0,0 l/m 14,4 km/h (3 Bft) N-NO 28 2 min 0,000 mm 3,9 UV-I 473 W/m 17,9 C 26,4 C 19,3 km/h (3 Bft) 97,87 %
06.08.2018 13:20 27,7 C 27,2 C 34,4 C 55 % 1015,6 hPa 0,0 l/m 13,7 km/h (3 Bft) O 90 2 min 0,000 mm 4,4 UV-I 542 W/m 17,8 C 26,7 C 19,3 km/h (3 Bft) 97,56 %
06.08.2018 13:22 27,8 C 27,2 C 35,0 C 56 % 1015,6 hPa 0,0 l/m 13,3 km/h (3 Bft) O-NO 58 2 min 0,000 mm 4,5 UV-I 687 W/m 18,2 C 26,9 C 20,9 km/h (4 Bft) 100,00 %
06.08.2018 13:24 27,9 C 27,2 C 35,6 C 55 % 1015,6 hPa 0,0 l/m 12,7 km/h (3 Bft) O-NO 67 2 min 0,000 mm 4,5 UV-I 640 W/m 18,0 C 27,1 C 19,3 km/h (3 Bft) 96,61 %
06.08.2018 13:26 27,9 C 27,2 C 36,1 C 55 % 1015,6 hPa 0,0 l/m 14,4 km/h (3 Bft) O-NO 64 2 min 0,000 mm 4,7 UV-I 680 W/m 18,0 C 26,9 C 19,3 km/h (3 Bft) 97,14 %
06.08.2018 13:28 27,9 C 27,2 C 36,7 C 55 % 1015,5 hPa 0,0 l/m 10,9 km/h (2 Bft) O 92 2 min 0,000 mm 4,8 UV-I 738 W/m 18,0 C 27,3 C 16,1 km/h (3 Bft) 97,87 %
06.08.2018 13:30 27,9 C 27,2 C 36,1 C 55 % 1015,5 hPa 0,0 l/m 11,0 km/h (2 Bft) O-NO 74 2 min 0,000 mm 4,0 UV-I 609 W/m 18,0 C 27,2 C 17,7 km/h (3 Bft) 95,74 %
06.08.2018 13:32 27,8 C 27,2 C 35,0 C 54 % 1015,5 hPa 0,0 l/m 10,3 km/h (2 Bft) SO 124 0 min 0,000 mm 3,3 UV-I 356 W/m 17,6 C 27,2 C 16,1 km/h (3 Bft) 96,00 %
06.08.2018 13:34 27,7 C 27,2 C 34,4 C 55 % 1015,5 hPa 0,0 l/m 10,4 km/h (2 Bft) O 88 0 min 0,000 mm 3,4 UV-I 377 W/m 17,8 C 27,1 C 17,7 km/h (3 Bft) 100,00 %
06.08.2018 13:36 27,6 C 27,2 C 35,0 C 55 % 1015,5 hPa 0,0 l/m 13,8 km/h (3 Bft) NO 56 2 min 0,000 mm 4,6 UV-I 555 W/m 17,7 C 26,6 C 19,3 km/h (3 Bft) 100,00 %
06.08.2018 13:38 27,7 C 27,2 C 36,1 C 55 % 1015,5 hPa 0,0 l/m 11,4 km/h (2 Bft) O 89 2 min 0,000 mm 4,4 UV-I 644 W/m 17,8 C 27,0 C 16,1 km/h (3 Bft) 100,00 %
06.08.2018 13:40 27,8 C 27,2 C 36,7 C 55 % 1015,5 hPa 0,0 l/m 9,5 km/h (2 Bft) O 91 2 min 0,000 mm 4,7 UV-I 565 W/m 17,9 C 27,3 C 16,1 km/h (3 Bft) 96,00 %
06.08.2018 13:42 28,1 C 27,2 C 37,2 C 54 % 1015,4 hPa 0,0 l/m 10,2 km/h (2 Bft) O-SO 119 2 min 0,000 mm 5,4 UV-I 737 W/m 17,9 C 27,6 C 16,1 km/h (3 Bft) 97,37 %
06.08.2018 13:44 28,1 C 27,2 C 38,9 C 53 % 1015,4 hPa 0,0 l/m 8,3 km/h (2 Bft) O-NO 58 2 min 0,000 mm 5,7 UV-I 892 W/m 17,6 C 27,8 C 14,5 km/h (3 Bft) 97,92 %
06.08.2018 13:46 28,3 C 27,2 C 39,4 C 54 % 1015,4 hPa 0,0 l/m 13,6 km/h (3 Bft) O 80 2 min 0,000 mm 5,7 UV-I 882 W/m 18,1 C 27,4 C 17,7 km/h (3 Bft) 98,08 %
06.08.2018 13:48 28,2 C 27,2 C 40,0 C 54 % 1015,4 hPa 0,0 l/m 10,1 km/h (2 Bft) O-NO 77 2 min 0,000 mm 5,6 UV-I 860 W/m 18,0 C 27,7 C 16,1 km/h (3 Bft) 97,62 %
06.08.2018 13:50 28,4 C 27,2 C 40,6 C 54 % 1015,3 hPa 0,0 l/m 10,9 km/h (2 Bft) O-NO 59 2 min 0,000 mm 5,4 UV-I 819 W/m 18,2 C 27,8 C 19,3 km/h (3 Bft) 98,11 %
06.08.2018 13:52 28,6 C 27,2 C 38,9 C 53 % 1015,3 hPa 0,0 l/m 12,1 km/h (2 Bft) O-NO 65 2 min 0,000 mm 4,6 UV-I 729 W/m 18,1 C 27,9 C 17,7 km/h (3 Bft) 94,74 %
06.08.2018 13:54 28,6 C 27,2 C 37,8 C 53 % 1015,3 hPa 0,0 l/m 12,8 km/h (3 Bft) O-SO 111 2 min 0,000 mm 4,3 UV-I 552 W/m 18,1 C 27,9 C 17,7 km/h (3 Bft) 97,73 %
06.08.2018 13:56 28,4 C 27,2 C 37,8 C 51 % 1015,3 hPa 0,0 l/m 12,3 km/h (3 Bft) O-NO 65 2 min 0,000 mm 4,8 UV-I 692 W/m 17,3 C 27,7 C 20,9 km/h (4 Bft) 97,73 %
06.08.2018 13:58 28,3 C 27,2 C 38,3 C 54 % 1015,2 hPa 0,0 l/m 12,4 km/h (3 Bft) O 92 2 min 0,000 mm 5,1 UV-I 758 W/m 18,1 C 27,5 C 19,3 km/h (3 Bft) 92,86 %
06.08.2018 14:00 28,4 C 27,2 C 38,9 C 53 % 1015,1 hPa 0,0 l/m 9,7 km/h (2 Bft) O-NO 71 2 min 0,483 mm 5,3 UV-I 792 W/m 17,9 C 28,0 C 17,7 km/h (3 Bft) 97,73 %
06.08.2018 14:02 28,5 C 27,2 C 40,0 C 53 % 1015,1 hPa 0,0 l/m 11,3 km/h (2 Bft) O-NO 65 2 min 0,000 mm 5,3 UV-I 785 W/m 18,0 C 27,9 C 22,5 km/h (4 Bft) 98,21 %
06.08.2018 14:04 28,7 C 27,2 C 39,4 C 51 % 1015,1 hPa 0,0 l/m 16,0 km/h (3 Bft) O-NO 68 2 min 0,000 mm 5,2 UV-I 773 W/m 17,5 C 27,7 C 22,5 km/h (4 Bft) 95,74 %
06.08.2018 14:06 28,8 C 27,2 C 40,0 C 52 % 1015,1 hPa 0,0 l/m 15,3 km/h (3 Bft) O-SO 113 2 min 0,000 mm 5,1 UV-I 776 W/m 17,9 C 27,9 C 20,9 km/h (4 Bft) 97,37 %
06.08.2018 14:08 28,8 C 27,2 C 39,4 C 52 % 1015,0 hPa 0,0 l/m 11,8 km/h (2 Bft) O-NO 61 2 min 0,000 mm 5,1 UV-I 774 W/m 17,9 C 28,2 C 17,7 km/h (3 Bft) 98,11 %
06.08.2018 14:10 28,8 C 27,2 C 40,0 C 52 % 1015,0 hPa 0,0 l/m 9,0 km/h (2 Bft) O-SO 117 2 min 0,000 mm 5,1 UV-I 755 W/m 17,9 C 28,5 C 14,5 km/h (3 Bft) 96,00 %
06.08.2018 14:12 28,8 C 27,2 C 39,4 C 52 % 1015,1 hPa 0,0 l/m 11,5 km/h (2 Bft) O-NO 76 2 min 0,000 mm 5,1 UV-I 750 W/m 17,9 C 28,2 C 16,1 km/h (3 Bft) 97,37 %
06.08.2018 14:14 28,9 C 27,2 C 40,0 C 53 % 1015,1 hPa 0,0 l/m 8,2 km/h (2 Bft) O 93 2 min 0,000 mm 5,1 UV-I 760 W/m 18,3 C 28,7 C 14,5 km/h (3 Bft) 98,00 %
06.08.2018 14:16 29,0 C 27,2 C 40,6 C 52 % 1015,0 hPa 0,0 l/m 10,4 km/h (2 Bft) O 99 2 min 0,000 mm 5,0 UV-I 750 W/m 18,1 C 28,5 C 16,1 km/h (3 Bft) 97,56 %
06.08.2018 14:18 29,2 C 27,2 C 40,6 C 51 % 1015,0 hPa 0,0 l/m 11,0 km/h (2 Bft) O-NO 67 2 min 0,000 mm 5,1 UV-I 767 W/m 18,0 C 28,7 C 19,3 km/h (3 Bft) 98,00 %
06.08.2018 14:20 29,2 C 27,2 C 40,6 C 49 % 1015,0 hPa 0,0 l/m 12,0 km/h (2 Bft) O 97 2 min 0,000 mm 5,1 UV-I 767 W/m 17,4 C 28,6 C 16,1 km/h (3 Bft) 97,87 %
06.08.2018 14:22 29,1 C 27,2 C 40,0 C 50 % 1015,0 hPa 0,0 l/m 11,8 km/h (2 Bft) O-NO 76 2 min 0,000 mm 5,0 UV-I 740 W/m 17,6 C 28,5 C 17,7 km/h (3 Bft) 95,83 %
06.08.2018 14:24 29,1 C 27,2 C 40,0 C 49 % 1015,0 hPa 0,0 l/m 14,0 km/h (3 Bft) O-NO 78 2 min 0,000 mm 5,0 UV-I 765 W/m 17,3 C 28,3 C 19,3 km/h (3 Bft) 98,00 %
06.08.2018 14:26 29,1 C 27,2 C 40,0 C 49 % 1015,0 hPa 0,0 l/m 9,6 km/h (2 Bft) O 95 2 min 0,000 mm 5,0 UV-I 769 W/m 17,3 C 28,7 C 12,9 km/h (3 Bft) 97,87 %
06.08.2018 14:28 29,1 C 27,2 C 40,6 C 49 % 1014,9 hPa 0,0 l/m 10,1 km/h (2 Bft) O-NO 71 2 min 0,000 mm 5,0 UV-I 764 W/m 17,3 C 28,7 C 17,7 km/h (3 Bft) 96,00 %
06.08.2018 14:30 29,3 C 27,2 C 41,1 C 49 % 1014,8 hPa 0,0 l/m 9,2 km/h (2 Bft) O 86 2 min 0,000 mm 5,1 UV-I 784 W/m 17,5 C 29,0 C 14,5 km/h (3 Bft) 95,74 %
06.08.2018 14:32 29,3 C 27,2 C 41,1 C 48 % 1014,8 hPa 0,0 l/m 13,5 km/h (3 Bft) O-NO 74 2 min 0,000 mm 5,0 UV-I 785 W/m 17,1 C 28,6 C 20,9 km/h (4 Bft) 94,74 %
06.08.2018 14:34 29,3 C 27,2 C 40,0 C 49 % 1014,8 hPa 0,0 l/m 9,9 km/h (2 Bft) O-SO 118 2 min 0,000 mm 4,9 UV-I 765 W/m 17,5 C 28,9 C 16,1 km/h (3 Bft) 98,11 %
06.08.2018 14:36 29,3 C 27,2 C 40,6 C 49 % 1014,8 hPa 0,0 l/m 12,8 km/h (3 Bft) O-NO 71 2 min 0,000 mm 5,0 UV-I 778 W/m 17,5 C 28,7 C 17,7 km/h (3 Bft) 94,00 %
06.08.2018 14:38 29,3 C 27,2 C 40,6 C 48 % 1014,7 hPa 0,0 l/m 14,2 km/h (3 Bft) O-NO 67 2 min 0,000 mm 5,0 UV-I 787 W/m 17,1 C 28,6 C 20,9 km/h (4 Bft) 100,00 %
06.08.2018 14:40 29,4 C 27,2 C 40,6 C 48 % 1014,7 hPa 0,0 l/m 12,8 km/h (3 Bft) O 101 2 min 0,000 mm 4,9 UV-I 767 W/m 17,2 C 28,8 C 17,7 km/h (3 Bft) 95,59 %
06.08.2018 14:42 29,4 C 27,2 C 40,6 C 48 % 1014,7 hPa 0,0 l/m 9,3 km/h (2 Bft) O 88 2 min 0,000 mm 4,9 UV-I 776 W/m 17,2 C 29,1 C 16,1 km/h (3 Bft) 97,56 %
06.08.2018 14:44 29,5 C 27,2 C 41,7 C 49 % 1014,7 hPa 0,0 l/m 14,2 km/h (3 Bft) O-NO 77 2 min 0,000 mm 4,8 UV-I 761 W/m 17,6 C 28,8 C 19,3 km/h (3 Bft) 98,11 %
06.08.2018 14:46 29,5 C 27,2 C 40,6 C 47 % 1014,7 hPa 0,0 l/m 9,9 km/h (2 Bft) O 80 2 min 0,000 mm 4,7 UV-I 730 W/m 17,0 C 29,1 C 16,1 km/h (3 Bft) 97,56 %
06.08.2018 14:48 29,4 C 27,2 C 40,6 C 48 % 1014,6 hPa 0,0 l/m 8,3 km/h (2 Bft) O 82 2 min 0,000 mm 4,7 UV-I 737 W/m 17,2 C 29,2 C 14,5 km/h (3 Bft) 98,00 %
06.08.2018 14:50 29,6 C 27,2 C 41,1 C 48 % 1014,6 hPa 0,0 l/m 9,6 km/h (2 Bft) O 89 2 min 0,000 mm 4,7 UV-I 742 W/m 17,4 C 29,3 C 17,7 km/h (3 Bft) 100,00 %
06.08.2018 14:52 29,6 C 27,2 C 40,6 C 47 % 1014,6 hPa 0,0 l/m 12,5 km/h (3 Bft) O-SO 116 2 min 0,000 mm 4,5 UV-I 706 W/m 17,1 C 29,0 C 17,7 km/h (3 Bft) 97,87 %
06.08.2018 14:54 29,6 C 27,2 C 41,1 C 46 % 1014,6 hPa 0,0 l/m 8,0 km/h (2 Bft) O-NO 70 2 min 0,000 mm 4,3 UV-I 666 W/m 16,7 C 29,4 C 14,5 km/h (3 Bft) 97,56 %
06.08.2018 14:56 29,8 C 27,2 C 41,1 C 48 % 1014,6 hPa 0,0 l/m 12,4 km/h (3 Bft) O-NO 67 2 min 0,000 mm 4,2 UV-I 661 W/m 17,6 C 29,3 C 20,9 km/h (4 Bft) 100,00 %
06.08.2018 14:58 29,9 C 27,2 C 40,6 C 47 % 1014,6 hPa 0,0 l/m 8,6 km/h (2 Bft) O 85 2 min 0,000 mm 4,4 UV-I 689 W/m 17,3 C 29,7 C 17,7 km/h (3 Bft) 100,00 %
06.08.2018 15:00 30,1 C 27,2 C 40,6 C 46 % 1014,6 hPa 0,0 l/m 11,7 km/h (2 Bft) O 96 2 min 0,584 mm 4,3 UV-I 682 W/m 17,2 C 29,7 C 17,7 km/h (3 Bft) 100,00 %
06.08.2018 15:02 30,1 C 27,2 C 40,6 C 45 % 1014,5 hPa 0,0 l/m 8,4 km/h (2 Bft) O-SO 106 2 min 0,000 mm 4,3 UV-I 695 W/m 16,8 C 29,9 C 12,9 km/h (3 Bft) 100,00 %
06.08.2018 15:04 30,0 C 27,2 C 41,1 C 45 % 1014,5 hPa 0,0 l/m 12,2 km/h (2 Bft) N-NO 31 2 min 0,000 mm 4,4 UV-I 720 W/m 16,7 C 29,5 C 19,3 km/h (3 Bft) 100,00 %
06.08.2018 15:06 29,9 C 27,2 C 40,6 C 44 % 1014,4 hPa 0,0 l/m 8,0 km/h (2 Bft) N-NO 15 2 min 0,000 mm 4,4 UV-I 739 W/m 16,3 C 29,7 C 17,7 km/h (3 Bft) 100,00 %
06.08.2018 15:08 29,8 C 27,2 C 40,6 C 46 % 1014,4 hPa 0,0 l/m 9,2 km/h (2 Bft) NO 50 2 min 0,000 mm 4,4 UV-I 735 W/m 16,9 C 29,5 C 17,7 km/h (3 Bft) 98,00 %
06.08.2018 15:10 30,1 C 27,2 C 40,6 C 46 % 1014,4 hPa 0,0 l/m 13,2 km/h (3 Bft) NO 34 2 min 0,000 mm 4,4 UV-I 731 W/m 17,2 C 29,6 C 20,9 km/h (4 Bft) 100,00 %
06.08.2018 15:12 30,1 C 27,2 C 40,0 C 44 % 1014,3 hPa 0,0 l/m 10,1 km/h (2 Bft) O-SO 103 2 min 0,000 mm 4,2 UV-I 680 W/m 16,5 C 29,8 C 16,1 km/h (3 Bft) 100,00 %
06.08.2018 15:14 30,2 C 27,2 C 39,4 C 43 % 1014,4 hPa 0,0 l/m 12,2 km/h (2 Bft) O-SO 110 2 min 0,000 mm 4,1 UV-I 677 W/m 16,2 C 29,8 C 19,3 km/h (3 Bft) 95,12 %
06.08.2018 15:16 30,1 C 27,2 C 40,0 C 43 % 1014,3 hPa 0,0 l/m 10,2 km/h (2 Bft) O 100 2 min 0,000 mm 4,2 UV-I 722 W/m 16,1 C 29,8 C 17,7 km/h (3 Bft) 100,00 %
06.08.2018 15:18 29,9 C 27,2 C 41,1 C 44 % 1014,3 hPa 0,0 l/m 9,0 km/h (2 Bft) O-NO 73 2 min 0,000 mm 4,2 UV-I 732 W/m 16,3 C 29,7 C 14,5 km/h (3 Bft) 95,74 %
06.08.2018 15:20 30,2 C 27,2 C 41,7 C 46 % 1014,2 hPa 0,0 l/m 10,3 km/h (2 Bft) N-NO 25 2 min 0,000 mm 4,2 UV-I 703 W/m 17,3 C 29,9 C 14,5 km/h (3 Bft) 100,00 %
06.08.2018 15:22 30,4 C 27,2 C 41,1 C 43 % 1014,2 hPa 0,0 l/m 12,9 km/h (3 Bft) O-NO 71 2 min 0,000 mm 4,1 UV-I 566 W/m 16,4 C 30,0 C 24,1 km/h (4 Bft) 98,00 %
06.08.2018 15:24 30,5 C 27,2 C 40,0 C 42 % 1014,2 hPa 0,0 l/m 13,7 km/h (3 Bft) N-NO 33 2 min 0,000 mm 4,1 UV-I 476 W/m 16,1 C 30,0 C 20,9 km/h (4 Bft) 100,00 %
06.08.2018 15:26 30,6 C 27,2 C 40,6 C 42 % 1014,2 hPa 0,0 l/m 9,1 km/h (2 Bft) O-SO 116 2 min 0,000 mm 3,9 UV-I 647 W/m 16,2 C 30,4 C 12,9 km/h (3 Bft) 97,56 %
06.08.2018 15:28 30,4 C 27,2 C 41,1 C 42 % 1014,2 hPa 0,0 l/m 8,4 km/h (2 Bft) O 94 2 min 0,000 mm 4,0 UV-I 674 W/m 16,0 C 30,2 C 12,9 km/h (3 Bft) 100,00 %
06.08.2018 15:30 30,3 C 27,2 C 41,1 C 42 % 1014,1 hPa 0,0 l/m 12,4 km/h (3 Bft) O-SO 112 2 min 0,000 mm 3,9 UV-I 683 W/m 15,9 C 29,9 C 16,1 km/h (3 Bft) 100,00 %
06.08.2018 15:32 30,3 C 27,2 C 41,1 C 43 % 1014,1 hPa 0,0 l/m 9,7 km/h (2 Bft) O-NO 74 2 min 0,000 mm 3,9 UV-I 697 W/m 16,3 C 30,0 C 16,1 km/h (3 Bft) 100,00 %
06.08.2018 15:34 30,3 C 27,2 C 41,1 C 43 % 1014,1 hPa 0,0 l/m 14,3 km/h (3 Bft) O 91 2 min 0,000 mm 3,9 UV-I 697 W/m 16,3 C 29,8 C 19,3 km/h (3 Bft) 97,87 %
06.08.2018 15:36 30,3 C 27,2 C 41,1 C 41 % 1014,1 hPa 0,0 l/m 10,1 km/h (2 Bft) O-SO 121 2 min 0,000 mm 3,8 UV-I 688 W/m 15,6 C 30,0 C 16,1 km/h (3 Bft) 100,00 %
06.08.2018 15:38 30,3 C 27,2 C 41,7 C 41 % 1014,1 hPa 0,0 l/m 5,8 km/h (2 Bft) O-SO 106 2 min 0,000 mm 3,8 UV-I 685 W/m 15,6 C 30,3 C 11,3 km/h (2 Bft) 100,00 %
06.08.2018 15:40 30,2 C 27,2 C 41,7 C 41 % 1014,1 hPa 0,0 l/m 10,5 km/h (2 Bft) NO 54 2 min 0,000 mm 3,8 UV-I 704 W/m 15,5 C 29,9 C 19,3 km/h (3 Bft) 100,00 %
06.08.2018 15:42 30,3 C 27,2 C 41,7 C 41 % 1014,1 hPa 0,0 l/m 13,4 km/h (3 Bft) O-NO 77 2 min 0,000 mm 3,8 UV-I 693 W/m 15,6 C 29,8 C 19,3 km/h (3 Bft) 97,37 %
06.08.2018 15:44 30,3 C 27,2 C 41,7 C 41 % 1014,0 hPa 0,0 l/m 12,8 km/h (3 Bft) O 93 2 min 0,000 mm 3,7 UV-I 675 W/m 15,6 C 29,8 C 19,3 km/h (3 Bft) 98,46 %
06.08.2018 15:46 30,3 C 27,2 C 41,7 C 41 % 1014,0 hPa 0,0 l/m 11,9 km/h (2 Bft) O 88 2 min 0,000 mm 3,7 UV-I 679 W/m 15,6 C 29,9 C 17,7 km/h (3 Bft) 96,00 %
06.08.2018 15:48 30,4 C 27,2 C 42,2 C 40 % 1014,1 hPa 0,0 l/m 6,6 km/h (2 Bft) O-SO 109 2 min 0,000 mm 3,6 UV-I 670 W/m 15,3 C 30,4 C 12,9 km/h (3 Bft) 97,87 %
06.08.2018 15:50 30,4 C 27,2 C 42,2 C 40 % 1014,1 hPa 0,0 l/m 11,1 km/h (2 Bft) O-NO 76 2 min 0,000 mm 3,6 UV-I 648 W/m 15,3 C 30,1 C 19,3 km/h (3 Bft) 97,56 %
06.08.2018 15:52 30,7 C 27,2 C 41,7 C 40 % 1014,0 hPa 0,0 l/m 12,7 km/h (3 Bft) O-NO 69 2 min 0,000 mm 3,5 UV-I 651 W/m 15,5 C 30,3 C 16,1 km/h (3 Bft) 94,34 %
06.08.2018 15:54 30,7 C 27,2 C 41,7 C 40 % 1014,0 hPa 0,0 l/m 13,2 km/h (3 Bft) O-NO 59 2 min 0,000 mm 3,4 UV-I 649 W/m 15,5 C 30,3 C 20,9 km/h (4 Bft) 97,37 %
06.08.2018 15:56 30,7 C 27,2 C 40,6 C 39 % 1014,0 hPa 0,0 l/m 11,7 km/h (2 Bft) NO 44 2 min 0,000 mm 3,4 UV-I 643 W/m 15,1 C 30,4 C 19,3 km/h (3 Bft) 94,00 %
06.08.2018 15:58 30,7 C 27,2 C 41,7 C 39 % 1014,0 hPa 0,0 l/m 5,2 km/h (1 Bft) O-NO 63 2 min 0,000 mm 3,3 UV-I 636 W/m 15,1 C 30,7 C 8,0 km/h (2 Bft) 93,62 %
06.08.2018 16:00 30,7 C 27,8 C 41,7 C 39 % 1013,9 hPa 0,0 l/m 7,4 km/h (2 Bft) O 94 2 min 0,000 mm 3,3 UV-I 642 W/m 15,1 C 30,6 C 12,9 km/h (3 Bft) 95,74 %
06.08.2018 16:02 30,6 C 27,8 C 41,7 C 40 % 1014,0 hPa 0,0 l/m 8,5 km/h (2 Bft) O 86 2 min 0,559 mm 3,3 UV-I 639 W/m 15,4 C 30,4 C 11,3 km/h (2 Bft) 95,12 %
06.08.2018 16:04 30,5 C 27,8 C 40,6 C 39 % 1013,9 hPa 0,0 l/m 10,4 km/h (2 Bft) NO 37 2 min 0,000 mm 3,2 UV-I 640 W/m 15,0 C 30,2 C 16,1 km/h (3 Bft) 93,22 %
06.08.2018 16:06 30,6 C 27,8 C 39,4 C 39 % 1013,9 hPa 0,0 l/m 10,2 km/h (2 Bft) N-NO 33 2 min 0,000 mm 3,2 UV-I 640 W/m 15,0 C 30,3 C 14,5 km/h (3 Bft) 92,11 %
06.08.2018 16:08 30,8 C 27,8 C 40,0 C 38 % 1013,9 hPa 0,0 l/m 9,5 km/h (2 Bft) NO 40 2 min 0,000 mm 3,1 UV-I 630 W/m 14,8 C 30,6 C 17,7 km/h (3 Bft) 94,34 %
06.08.2018 16:10 30,9 C 27,8 C 40,0 C 38 % 1013,8 hPa 0,0 l/m 11,4 km/h (2 Bft) NO 40 2 min 0,000 mm 3,0 UV-I 584 W/m 14,9 C 30,6 C 17,7 km/h (3 Bft) 93,18 %
06.08.2018 16:12 30,9 C 27,8 C 39,4 C 39 % 1013,8 hPa 0,0 l/m 9,1 km/h (2 Bft) N-NO 17 2 min 0,000 mm 2,9 UV-I 555 W/m 15,3 C 30,7 C 16,1 km/h (3 Bft) 90,00 %
06.08.2018 16:14 30,9 C 27,8 C 39,4 C 36 % 1013,8 hPa 0,0 l/m 6,8 km/h (2 Bft) N 5 2 min 0,000 mm 2,9 UV-I 570 W/m 14,1 C 30,9 C 12,9 km/h (3 Bft) 91,67 %
06.08.2018 16:16 30,8 C 27,8 C 38,9 C 38 % 1013,8 hPa 0,0 l/m 7,8 km/h (2 Bft) N-NO 13 2 min 0,000 mm 2,8 UV-I 537 W/m 14,8 C 30,7 C 14,5 km/h (3 Bft) 94,34 %
06.08.2018 16:18 30,9 C 27,8 C 38,9 C 39 % 1013,7 hPa 0,0 l/m 12,8 km/h (3 Bft) NO 46 2 min 0,000 mm 2,8 UV-I 553 W/m 15,3 C 30,5 C 17,7 km/h (3 Bft) 91,49 %
06.08.2018 16:20 30,8 C 27,8 C 38,3 C 37 % 1013,7 hPa 0,0 l/m 9,0 km/h (2 Bft) NO 34 2 min 0,000 mm 2,8 UV-I 577 W/m 14,4 C 30,6 C 14,5 km/h (3 Bft) 95,74 %
06.08.2018 16:22 30,9 C 27,8 C 38,9 C 38 % 1013,7 hPa 0,0 l/m 7,9 km/h (2 Bft) O-NO 71 2 min 0,000 mm 2,8 UV-I 577 W/m 14,9 C 30,8 C 12,9 km/h (3 Bft) 94,00 %
06.08.2018 16:24 30,9 C 27,8 C 40,0 C 37 % 1013,7 hPa 0,0 l/m 11,4 km/h (2 Bft) NO 55 2 min 0,000 mm 2,8 UV-I 573 W/m 14,5 C 30,6 C 17,7 km/h (3 Bft) 95,74 %
06.08.2018 16:26 30,8 C 27,8 C 38,9 C 37 % 1013,6 hPa 0,0 l/m 10,6 km/h (2 Bft) O 89 2 min 0,000 mm 2,7 UV-I 558 W/m 14,4 C 30,5 C 16,1 km/h (3 Bft) 92,00 %
06.08.2018 16:28 30,7 C 27,8 C 39,4 C 37 % 1013,6 hPa 0,0 l/m 5,9 km/h (2 Bft) O-NO 59 2 min 0,000 mm 2,7 UV-I 578 W/m 14,3 C 30,7 C 12,9 km/h (3 Bft) 93,62 %
06.08.2018 16:30 30,7 C 27,8 C 39,4 C 38 % 1013,6 hPa 0,0 l/m 9,2 km/h (2 Bft) O 92 2 min 0,000 mm 2,6 UV-I 584 W/m 14,7 C 30,5 C 14,5 km/h (3 Bft) 97,14 %
06.08.2018 16:32 30,7 C 27,8 C 40,0 C 38 % 1013,5 hPa 0,0 l/m 9,4 km/h (2 Bft) O 82 2 min 0,000 mm 2,5 UV-I 535 W/m 14,7 C 30,5 C 14,5 km/h (3 Bft) 96,00 %
06.08.2018 16:34 30,8 C 27,8 C 40,0 C 38 % 1013,5 hPa 0,0 l/m 7,8 km/h (2 Bft) O 81 2 min 0,000 mm 2,5 UV-I 519 W/m 14,8 C 30,7 C 14,5 km/h (3 Bft) 98,00 %
06.08.2018 16:36 30,7 C 27,8 C 40,6 C 38 % 1013,5 hPa 0,0 l/m 6,8 km/h (2 Bft) O-NO 75 2 min 0,000 mm 2,5 UV-I 549 W/m 14,7 C 30,7 C 14,5 km/h (3 Bft) 96,00 %
06.08.2018 16:38 30,8 C 27,8 C 40,6 C 39 % 1013,4 hPa 0,0 l/m 10,6 km/h (2 Bft) O-NO 68 2 min 0,000 mm 2,5 UV-I 554 W/m 15,2 C 30,5 C 16,1 km/h (3 Bft) 92,11 %
06.08.2018 16:40 30,8 C 27,8 C 40,6 C 38 % 1013,4 hPa 0,0 l/m 8,1 km/h (2 Bft) O-NO 59 2 min 0,000 mm 2,4 UV-I 538 W/m 14,8 C 30,7 C 11,3 km/h (2 Bft) 98,00 %
06.08.2018 16:42 30,8 C 27,8 C 40,6 C 38 % 1013,4 hPa 0,0 l/m 12,7 km/h (3 Bft) NO 45 2 min 0,000 mm 2,4 UV-I 537 W/m 14,8 C 30,4 C 19,3 km/h (3 Bft) 100,00 %
06.08.2018 16:44 30,8 C 27,8 C 40,6 C 38 % 1013,4 hPa 0,0 l/m 13,6 km/h (3 Bft) O-NO 69 2 min 0,000 mm 2,3 UV-I 526 W/m 14,8 C 30,4 C 17,7 km/h (3 Bft) 100,00 %
06.08.2018 16:46 30,7 C 27,8 C 40,6 C 37 % 1013,3 hPa 0,0 l/m 9,4 km/h (2 Bft) NO 42 2 min 0,000 mm 2,3 UV-I 513 W/m 14,3 C 30,5 C 14,5 km/h (3 Bft) 100,00 %
06.08.2018 16:48 30,8 C 27,8 C 40,6 C 39 % 1013,4 hPa 0,0 l/m 5,6 km/h (1 Bft) O 94 2 min 0,000 mm 2,2 UV-I 497 W/m 15,2 C 30,8 C 9,7 km/h (2 Bft) 100,00 %
06.08.2018 16:50 30,8 C 27,8 C 41,1 C 39 % 1013,3 hPa 0,0 l/m 4,4 km/h (1 Bft) O-NO 57 2 min 0,000 mm 2,2 UV-I 492 W/m 15,2 C 30,8 C 11,3 km/h (2 Bft) 100,00 %
06.08.2018 16:52 30,9 C 27,8 C 40,0 C 38 % 1013,2 hPa 0,0 l/m 14,7 km/h (3 Bft) NO 47 2 min 0,000 mm 2,2 UV-I 519 W/m 14,9 C 30,5 C 17,7 km/h (3 Bft) 97,44 %
06.08.2018 16:54 31,1 C 27,8 C 40,0 C 38 % 1013,2 hPa 0,0 l/m 12,6 km/h (3 Bft) O-NO 65 2 min 0,000 mm 2,2 UV-I 520 W/m 15,1 C 30,8 C 17,7 km/h (3 Bft) 100,00 %
06.08.2018 16:56 31,0 C 27,8 C 40,0 C 38 % 1013,2 hPa 0,0 l/m 10,3 km/h (2 Bft) O-NO 67 2 min 0,000 mm 2,1 UV-I 514 W/m 15,0 C 30,8 C 16,1 km/h (3 Bft) 100,00 %
06.08.2018 16:58 30,9 C 27,8 C 40,6 C 39 % 1013,2 hPa 0,0 l/m 7,5 km/h (2 Bft) O-NO 76 2 min 0,000 mm 2,1 UV-I 480 W/m 15,3 C 30,8 C 12,9 km/h (3 Bft) 100,00 %
06.08.2018 17:00 30,9 C 27,8 C 40,0 C 38 % 1013,2 hPa 0,0 l/m 10,1 km/h (2 Bft) O 101 2 min 0,482 mm 2,0 UV-I 493 W/m 14,9 C 30,7 C 19,3 km/h (3 Bft) 98,11 %
06.08.2018 17:02 30,8 C 27,8 C 40,0 C 38 % 1013,2 hPa 0,0 l/m 15,3 km/h (3 Bft) O 94 2 min 0,000 mm 2,0 UV-I 492 W/m 14,8 C 30,3 C 17,7 km/h (3 Bft) 100,00 %
06.08.2018 17:04 30,7 C 27,8 C 39,4 C 38 % 1013,1 hPa 0,0 l/m 13,5 km/h (3 Bft) O 88 2 min 0,000 mm 1,9 UV-I 382 W/m 14,7 C 30,3 C 19,3 km/h (3 Bft) 100,00 %
06.08.2018 17:06 30,6 C 27,8 C 40,0 C 39 % 1013,1 hPa 0,0 l/m 10,4 km/h (2 Bft) O 91 2 min 0,000 mm 1,9 UV-I 437 W/m 15,0 C 30,3 C 14,5 km/h (3 Bft) 100,00 %
06.08.2018 17:08 30,6 C 27,8 C 41,1 C 40 % 1013,0 hPa 0,0 l/m 11,3 km/h (2 Bft) O 92 2 min 0,000 mm 1,9 UV-I 489 W/m 15,4 C 30,3 C 22,5 km/h (4 Bft) 100,00 %
06.08.2018 17:10 30,7 C 27,8 C 40,6 C 39 % 1013,1 hPa 0,0 l/m 14,0 km/h (3 Bft) O 89 2 min 0,000 mm 1,9 UV-I 487 W/m 15,1 C 30,3 C 17,7 km/h (3 Bft) 98,00 %
06.08.2018 17:12 30,7 C 27,8 C 40,0 C 39 % 1013,1 hPa 0,0 l/m 10,5 km/h (2 Bft) O 98 2 min 0,000 mm 1,8 UV-I 479 W/m 15,1 C 30,4 C 14,5 km/h (3 Bft) 100,00 %
06.08.2018 17:14 30,6 C 27,8 C 40,0 C 39 % 1013,0 hPa 0,0 l/m 12,6 km/h (3 Bft) O-NO 70 2 min 0,000 mm 1,8 UV-I 471 W/m 15,0 C 30,2 C 19,3 km/h (3 Bft) 100,00 %
06.08.2018 17:16 30,6 C 27,8 C 40,0 C 39 % 1013,0 hPa 0,0 l/m 15,2 km/h (3 Bft) O-NO 67 2 min 0,000 mm 1,7 UV-I 469 W/m 15,0 C 30,1 C 20,9 km/h (4 Bft) 100,00 %
06.08.2018 17:18 30,5 C 27,8 C 40,0 C 39 % 1012,9 hPa 0,0 l/m 15,2 km/h (3 Bft) O-SO 105 2 min 0,000 mm 1,7 UV-I 461 W/m 15,0 C 30,0 C 20,9 km/h (4 Bft) 100,00 %
06.08.2018 17:20 30,5 C 27,8 C 40,0 C 41 % 1012,9 hPa 0,0 l/m 13,3 km/h (3 Bft) O-NO 65 2 min 0,000 mm 1,7 UV-I 465 W/m 15,7 C 30,1 C 20,9 km/h (4 Bft) 100,00 %
06.08.2018 17:22 30,5 C 27,8 C 38,9 C 40 % 1012,9 hPa 0,0 l/m 17,8 km/h (3 Bft) NO 51 2 min 0,000 mm 1,6 UV-I 454 W/m 15,3 C 29,9 C 24,1 km/h (4 Bft) 100,00 %
06.08.2018 17:24 30,4 C 27,8 C 37,2 C 40 % 1012,9 hPa 0,0 l/m 16,9 km/h (3 Bft) O-NO 57 2 min 0,000 mm 1,6 UV-I 447 W/m 15,3 C 29,8 C 24,1 km/h (4 Bft) 100,00 %
06.08.2018 17:26 30,5 C 27,8 C 38,3 C 41 % 1012,9 hPa 0,0 l/m 13,2 km/h (3 Bft) O 84 2 min 0,000 mm 1,5 UV-I 438 W/m 15,7 C 30,1 C 19,3 km/h (3 Bft) 100,00 %
06.08.2018 17:28 30,4 C 27,8 C 38,3 C 39 % 1012,9 hPa 0,0 l/m 18,1 km/h (3 Bft) O 93 2 min 0,000 mm 1,5 UV-I 434 W/m 14,9 C 29,7 C 22,5 km/h (4 Bft) 100,00 %
06.08.2018 17:30 30,4 C 27,8 C 38,9 C 39 % 1012,9 hPa 0,0 l/m 10,1 km/h (2 Bft) O 101 2 min 0,000 mm 1,5 UV-I 424 W/m 14,9 C 30,1 C 16,1 km/h (3 Bft) 96,88 %
06.08.2018 17:32 30,4 C 27,8 C 39,4 C 39 % 1012,9 hPa 0,0 l/m 8,0 km/h (2 Bft) SO 134 2 min 0,000 mm 1,5 UV-I 397 W/m 14,9 C 30,3 C 14,5 km/h (3 Bft) 100,00 %
06.08.2018 17:34 30,4 C 27,8 C 40,0 C 39 % 1012,8 hPa 0,0 l/m 12,3 km/h (3 Bft) O 101 2 min 0,000 mm 1,4 UV-I 412 W/m 14,9 C 30,0 C 20,9 km/h (4 Bft) 100,00 %
06.08.2018 17:36 30,4 C 27,8 C 39,4 C 39 % 1012,8 hPa 0,0 l/m 11,1 km/h (2 Bft) O-SO 115 2 min 0,000 mm 1,4 UV-I 400 W/m 14,9 C 30,1 C 17,7 km/h (3 Bft) 97,56 %
06.08.2018 17:38 30,4 C 27,8 C 38,9 C 39 % 1012,8 hPa 0,0 l/m 10,8 km/h (2 Bft) O 99 2 min 0,000 mm 1,3 UV-I 378 W/m 14,9 C 30,1 C 17,7 km/h (3 Bft) 98,11 %
06.08.2018 17:40 30,4 C 27,8 C 39,4 C 40 % 1012,8 hPa 0,0 l/m 11,2 km/h (2 Bft) O-SO 104 2 min 0,000 mm 1,3 UV-I 387 W/m 15,3 C 30,1 C 19,3 km/h (3 Bft) 100,00 %
06.08.2018 17:42 30,5 C 27,8 C 39,4 C 41 % 1012,8 hPa 0,0 l/m 11,9 km/h (2 Bft) NO 50 2 min 0,000 mm 1,3 UV-I 385 W/m 15,7 C 30,1 C 19,3 km/h (3 Bft) 98,00 %
06.08.2018 17:44 30,6 C 27,8 C 39,4 C 38 % 1012,8 hPa 0,0 l/m 13,1 km/h (3 Bft) NO 42 2 min 0,000 mm 1,2 UV-I 384 W/m 14,6 C 30,2 C 20,9 km/h (4 Bft) 100,00 %
06.08.2018 17:46 30,6 C 27,8 C 39,4 C 39 % 1012,8 hPa 0,0 l/m 12,4 km/h (3 Bft) NO 42 2 min 0,000 mm 1,2 UV-I 381 W/m 15,0 C 30,2 C 19,3 km/h (3 Bft) 93,62 %
06.08.2018 17:48 30,5 C 27,8 C 39,4 C 38 % 1012,7 hPa 0,0 l/m 10,3 km/h (2 Bft) O 83 2 min 0,000 mm 1,2 UV-I 377 W/m 14,5 C 30,2 C 16,1 km/h (3 Bft) 94,74 %
06.08.2018 17:50 30,4 C 27,8 C 38,9 C 38 % 1012,7 hPa 0,0 l/m 12,4 km/h (3 Bft) NO 42 2 min 0,000 mm 1,2 UV-I 371 W/m 14,5 C 30,0 C 17,7 km/h (3 Bft) 96,43 %
06.08.2018 17:52 30,4 C 27,8 C 38,9 C 38 % 1012,6 hPa 0,0 l/m 8,1 km/h (2 Bft) O-NO 61 2 min 0,000 mm 1,1 UV-I 364 W/m 14,5 C 30,3 C 12,9 km/h (3 Bft) 95,45 %
06.08.2018 17:54 30,4 C 27,8 C 39,4 C 39 % 1012,6 hPa 0,0 l/m 5,5 km/h (1 Bft) O-NO 69 2 min 0,000 mm 1,1 UV-I 358 W/m 14,9 C 30,4 C 9,7 km/h (2 Bft) 93,62 %
06.08.2018 17:56 30,5 C 27,8 C 39,4 C 39 % 1012,6 hPa 0,0 l/m 7,3 km/h (2 Bft) O-NO 61 2 min 0,000 mm 1,1 UV-I 345 W/m 15,0 C 30,4 C 11,3 km/h (2 Bft) 89,36 %
06.08.2018 17:58 30,6 C 27,8 C 38,9 C 38 % 1012,6 hPa 0,0 l/m 13,2 km/h (3 Bft) O 97 2 min 0,000 mm 1,0 UV-I 330 W/m 14,6 C 30,2 C 19,3 km/h (3 Bft) 96,00 %
06.08.2018 18:00 30,4 C 27,8 C 38,3 C 39 % 1012,6 hPa 0,0 l/m 12,9 km/h (3 Bft) O-NO 78 2 min 0,407 mm 1,0 UV-I 323 W/m 14,9 C 30,0 C 17,7 km/h (3 Bft) 93,62 %
06.08.2018 18:02 30,3 C 27,8 C 38,3 C 38 % 1012,6 hPa 0,0 l/m 11,5 km/h (2 Bft) O 84 2 min 0,000 mm 1,0 UV-I 337 W/m 14,4 C 29,9 C 17,7 km/h (3 Bft) 95,12 %
06.08.2018 18:04 30,2 C 27,8 C 37,8 C 39 % 1012,6 hPa 0,0 l/m 12,2 km/h (2 Bft) O-NO 69 2 min 0,000 mm 1,0 UV-I 326 W/m 14,7 C 29,8 C 16,1 km/h (3 Bft) 94,34 %
06.08.2018 18:06 30,2 C 27,8 C 37,8 C 38 % 1012,6 hPa 0,0 l/m 11,9 km/h (2 Bft) O-SO 109 2 min 0,000 mm 0,9 UV-I 320 W/m 14,3 C 29,8 C 16,1 km/h (3 Bft) 95,24 %
06.08.2018 18:08 30,1 C 27,8 C 37,8 C 39 % 1012,6 hPa 0,0 l/m 11,9 km/h (2 Bft) O 81 2 min 0,000 mm 0,9 UV-I 313 W/m 14,6 C 29,7 C 17,7 km/h (3 Bft) 96,15 %
06.08.2018 18:10 30,2 C 27,8 C 37,8 C 38 % 1012,5 hPa 0,0 l/m 10,8 km/h (2 Bft) O-NO 63 2 min 0,000 mm 0,8 UV-I 308 W/m 14,3 C 29,9 C 16,1 km/h (3 Bft) 94,87 %
06.08.2018 18:12 30,2 C 27,8 C 37,8 C 39 % 1012,5 hPa 0,0 l/m 11,1 km/h (2 Bft) NO 51 2 min 0,000 mm 0,8 UV-I 304 W/m 14,7 C 29,8 C 17,7 km/h (3 Bft) 93,62 %
06.08.2018 18:14 30,3 C 27,8 C 37,8 C 38 % 1012,5 hPa 0,0 l/m 9,0 km/h (2 Bft) O-NO 78 2 min 0,000 mm 0,8 UV-I 300 W/m 14,4 C 30,1 C 12,9 km/h (3 Bft) 96,43 %
06.08.2018 18:16 30,2 C 27,8 C 37,8 C 37 % 1012,5 hPa 0,0 l/m 10,6 km/h (2 Bft) O-NO 65 2 min 0,000 mm 0,8 UV-I 295 W/m 13,9 C 29,9 C 12,9 km/h (3 Bft) 94,74 %
06.08.2018 18:18 30,1 C 27,8 C 37,8 C 37 % 1012,5 hPa 0,0 l/m 9,5 km/h (2 Bft) O-NO 65 2 min 0,000 mm 0,8 UV-I 289 W/m 13,8 C 29,8 C 12,9 km/h (3 Bft) 100,00 %
06.08.2018 18:20 30,1 C 27,8 C 37,8 C 37 % 1012,5 hPa 0,0 l/m 11,5 km/h (2 Bft) O 92 2 min 0,000 mm 0,7 UV-I 282 W/m 13,8 C 29,7 C 14,5 km/h (3 Bft) 97,37 %
06.08.2018 18:22 30,1 C 27,8 C 37,2 C 37 % 1012,5 hPa 0,0 l/m 14,0 km/h (3 Bft) O-NO 57 2 min 0,000 mm 0,7 UV-I 275 W/m 13,8 C 29,5 C 17,7 km/h (3 Bft) 100,00 %
06.08.2018 18:24 30,0 C 27,8 C 37,2 C 38 % 1012,5 hPa 0,0 l/m 14,7 km/h (3 Bft) O 82 2 min 0,000 mm 0,7 UV-I 268 W/m 14,1 C 29,4 C 17,7 km/h (3 Bft) 97,37 %
06.08.2018 18:26 30,0 C 27,8 C 37,2 C 38 % 1012,5 hPa 0,0 l/m 9,4 km/h (2 Bft) O-NO 71 2 min 0,000 mm 0,6 UV-I 262 W/m 14,1 C 29,7 C 16,1 km/h (3 Bft) 100,00 %
06.08.2018 18:28 30,1 C 27,8 C 37,2 C 38 % 1012,5 hPa 0,0 l/m 9,3 km/h (2 Bft) O 87 2 min 0,000 mm 0,6 UV-I 258 W/m 14,2 C 29,8 C 14,5 km/h (3 Bft) 100,00 %
06.08.2018 18:30 30,1 C 27,8 C 37,8 C 37 % 1012,5 hPa 0,0 l/m 8,2 km/h (2 Bft) O-NO 67 2 min 0,000 mm 0,6 UV-I 252 W/m 13,8 C 29,9 C 14,5 km/h (3 Bft) 100,00 %
06.08.2018 18:32 30,1 C 27,8 C 37,2 C 38 % 1012,5 hPa 0,0 l/m 10,8 km/h (2 Bft) O 88 2 min 0,000 mm 0,6 UV-I 247 W/m 14,2 C 29,7 C 17,7 km/h (3 Bft) 100,00 %
06.08.2018 18:34 30,1 C 27,8 C 36,7 C 37 % 1012,5 hPa 0,0 l/m 12,8 km/h (3 Bft) NO 51 2 min 0,000 mm 0,6 UV-I 241 W/m 13,8 C 29,6 C 16,1 km/h (3 Bft) 95,74 %
06.08.2018 18:36 29,9 C 27,8 C 36,7 C 37 % 1012,5 hPa 0,0 l/m 12,2 km/h (2 Bft) O 79 2 min 0,000 mm 0,5 UV-I 234 W/m 13,6 C 29,4 C 16,1 km/h (3 Bft) 100,00 %
06.08.2018 18:38 29,9 C 27,8 C 36,7 C 36 % 1012,4 hPa 0,0 l/m 10,3 km/h (2 Bft) O-NO 63 2 min 0,000 mm 0,5 UV-I 227 W/m 13,2 C 29,6 C 17,7 km/h (3 Bft) 100,00 %
06.08.2018 18:40 29,9 C 27,8 C 36,7 C 37 % 1012,5 hPa 0,0 l/m 10,2 km/h (2 Bft) O-NO 59 2 min 0,000 mm 0,5 UV-I 223 W/m 13,6 C 29,6 C 14,5 km/h (3 Bft) 100,00 %
06.08.2018 18:42 29,9 C 27,8 C 36,7 C 37 % 1012,5 hPa 0,0 l/m 11,1 km/h (2 Bft) NO 56 2 min 0,000 mm 0,5 UV-I 217 W/m 13,6 C 29,5 C 16,1 km/h (3 Bft) 100,00 %
06.08.2018 18:44 29,8 C 27,8 C 36,7 C 37 % 1012,5 hPa 0,0 l/m 10,2 km/h (2 Bft) O-NO 65 2 min 0,000 mm 0,5 UV-I 212 W/m 13,5 C 29,4 C 14,5 km/h (3 Bft) 98,08 %
06.08.2018 18:46 29,8 C 27,8 C 36,1 C 37 % 1012,5 hPa 0,0 l/m 11,1 km/h (2 Bft) O-NO 67 2 min 0,000 mm 0,3 UV-I 207 W/m 13,5 C 29,4 C 14,5 km/h (3 Bft) 100,00 %
06.08.2018 18:48 29,8 C 27,8 C 36,1 C 36 % 1012,5 hPa 0,0 l/m 11,4 km/h (2 Bft) O-NO 74 2 min 0,000 mm 0,0 UV-I 203 W/m 13,1 C 29,4 C 14,5 km/h (3 Bft) 100,00 %
06.08.2018 18:50 29,8 C 27,8 C 36,1 C 36 % 1012,5 hPa 0,0 l/m 9,6 km/h (2 Bft) NO 50 2 min 0,000 mm 0,0 UV-I 199 W/m 13,1 C 29,5 C 16,1 km/h (3 Bft) 100,00 %
06.08.2018 18:52 29,8 C 27,8 C 36,1 C 35 % 1012,5 hPa 0,0 l/m 9,5 km/h (2 Bft) O-NO 72 2 min 0,000 mm 0,0 UV-I 194 W/m 12,7 C 29,5 C 14,5 km/h (3 Bft) 100,00 %
06.08.2018 18:54 29,8 C 27,8 C 36,1 C 36 % 1012,4 hPa 0,0 l/m 8,8 km/h (2 Bft) O 83 2 min 0,000 mm 0,0 UV-I 189 W/m 13,1 C 29,6 C 12,9 km/h (3 Bft) 97,56 %
06.08.2018 18:56 29,8 C 27,8 C 35,6 C 36 % 1012,4 hPa 0,0 l/m 9,8 km/h (2 Bft) O-NO 75 2 min 0,000 mm 0,0 UV-I 183 W/m 13,1 C 29,5 C 12,9 km/h (3 Bft) 100,00 %
06.08.2018 18:58 29,7 C 27,8 C 35,6 C 36 % 1012,4 hPa 0,0 l/m 10,9 km/h (2 Bft) NO 38 2 min 0,000 mm 0,0 UV-I 178 W/m 13,0 C 29,3 C 17,7 km/h (3 Bft) 97,87 %
06.08.2018 19:00 29,7 C 27,8 C 35,6 C 36 % 1012,4 hPa 0,0 l/m 10,9 km/h (2 Bft) O-NO 76 2 min 0,305 mm 0,0 UV-I 172 W/m 13,0 C 29,3 C 16,1 km/h (3 Bft) 97,56 %
06.08.2018 19:02 29,6 C 27,8 C 35,0 C 36 % 1012,4 hPa 0,0 l/m 12,2 km/h (2 Bft) O-NO 73 2 min 0,000 mm 0,0 UV-I 167 W/m 12,9 C 29,1 C 16,1 km/h (3 Bft) 98,00 %
06.08.2018 19:04 29,6 C 27,8 C 35,0 C 36 % 1012,4 hPa 0,0 l/m 10,2 km/h (2 Bft) O-NO 69 2 min 0,000 mm 0,0 UV-I 163 W/m 12,9 C 29,2 C 14,5 km/h (3 Bft) 98,21 %
06.08.2018 19:06 29,5 C 27,8 C 35,0 C 37 % 1012,4 hPa 0,0 l/m 8,4 km/h (2 Bft) O-NO 63 2 min 0,000 mm 0,0 UV-I 159 W/m 13,3 C 29,3 C 14,5 km/h (3 Bft) 95,45 %
06.08.2018 19:08 29,4 C 27,8 C 35,0 C 36 % 1012,4 hPa 0,0 l/m 7,2 km/h (2 Bft) O 94 2 min 0,000 mm 0,0 UV-I 153 W/m 12,7 C 29,3 C 12,9 km/h (3 Bft) 98,00 %
06.08.2018 19:10 29,4 C 27,8 C 34,4 C 37 % 1012,3 hPa 0,0 l/m 8,3 km/h (2 Bft) O 81 2 min 0,000 mm 0,0 UV-I 149 W/m 13,2 C 29,2 C 14,5 km/h (3 Bft) 97,87 %
06.08.2018 19:12 29,4 C 27,8 C 34,4 C 37 % 1012,3 hPa 0,0 l/m 7,8 km/h (2 Bft) O-NO 63 2 min 0,000 mm 0,0 UV-I 141 W/m 13,2 C 29,2 C 11,3 km/h (2 Bft) 97,37 %
06.08.2018 19:14 29,4 C 27,8 C 34,4 C 37 % 1012,4 hPa 0,0 l/m 6,6 km/h (2 Bft) O 89 2 min 0,000 mm 0,0 UV-I 137 W/m 13,2 C 29,4 C 11,3 km/h (2 Bft) 97,73 %
06.08.2018 19:16 29,3 C 27,2 C 34,4 C 37 % 1012,3 hPa 0,0 l/m 7,3 km/h (2 Bft) O-NO 74 2 min 0,000 mm 0,0 UV-I 133 W/m 13,1 C 29,2 C 11,3 km/h (2 Bft) 96,23 %
06.08.2018 19:18 29,2 C 27,2 C 34,4 C 37 % 1012,3 hPa 0,0 l/m 6,6 km/h (2 Bft) O-NO 67 2 min 0,000 mm 0,0 UV-I 129 W/m 13,0 C 29,2 C 9,7 km/h (2 Bft) 97,62 %
06.08.2018 19:20 29,2 C 27,2 C 33,9 C 37 % 1012,2 hPa 0,0 l/m 8,2 km/h (2 Bft) NO 56 2 min 0,000 mm 0,0 UV-I 125 W/m 13,0 C 29,0 C 14,5 km/h (3 Bft) 98,11 %
06.08.2018 19:22 29,1 C 27,2 C 33,9 C 37 % 1012,2 hPa 0,0 l/m 10,6 km/h (2 Bft) O-NO 68 2 min 0,000 mm 0,0 UV-I 121 W/m 12,9 C 28,6 C 17,7 km/h (3 Bft) 93,88 %
06.08.2018 19:24 29,1 C 27,2 C 33,9 C 37 % 1012,3 hPa 0,0 l/m 8,8 km/h (2 Bft) NO 46 2 min 0,000 mm 0,0 UV-I 117 W/m 12,9 C 28,8 C 16,1 km/h (3 Bft) 95,83 %
06.08.2018 19:26 29,0 C 27,2 C 33,3 C 36 % 1012,2 hPa 0,0 l/m 7,7 km/h (2 Bft) NO 55 2 min 0,000 mm 0,0 UV-I 113 W/m 12,4 C 28,8 C 14,5 km/h (3 Bft) 92,11 %
06.08.2018 19:28 28,9 C 27,2 C 33,3 C 37 % 1012,2 hPa 0,0 l/m 6,8 km/h (2 Bft) O-NO 67 2 min 0,000 mm 0,0 UV-I 108 W/m 12,7 C 28,8 C 12,9 km/h (3 Bft) 96,43 %
06.08.2018 19:30 28,9 C 27,2 C 32,8 C 37 % 1012,3 hPa 0,0 l/m 7,2 km/h (2 Bft) O-NO 76 2 min 0,000 mm 0,0 UV-I 104 W/m 12,7 C 28,8 C 11,3 km/h (2 Bft) 94,74 %
06.08.2018 19:32 28,9 C 27,2 C 32,8 C 37 % 1012,2 hPa 0,0 l/m 7,3 km/h (2 Bft) O 87 2 min 0,000 mm 0,0 UV-I 100 W/m 12,7 C 28,8 C 11,3 km/h (2 Bft) 96,43 %
06.08.2018 19:34 28,8 C 27,2 C 32,8 C 37 % 1012,2 hPa 0,0 l/m 4,5 km/h (1 Bft) O-NO 63 2 min 0,000 mm 0,0 UV-I 97 W/m 12,6 C 28,8 C 8,0 km/h (2 Bft) 95,45 %
06.08.2018 19:36 28,8 C 27,2 C 32,8 C 38 % 1012,2 hPa 0,0 l/m 6,0 km/h (2 Bft) O-NO 67 2 min 0,000 mm 0,0 UV-I 93 W/m 13,0 C 28,8 C 8,0 km/h (2 Bft) 95,45 %
06.08.2018 19:38 28,7 C 27,2 C 32,2 C 38 % 1012,2 hPa 0,0 l/m 6,2 km/h (2 Bft) O-NO 75 2 min 0,000 mm 0,0 UV-I 90 W/m 13,0 C 28,7 C 12,9 km/h (3 Bft) 92,00 %
06.08.2018 19:40 28,6 C 27,2 C 32,2 C 38 % 1012,2 hPa 0,0 l/m 6,3 km/h (2 Bft) O-NO 63 2 min 0,000 mm 0,0 UV-I 85 W/m 12,9 C 28,6 C 8,0 km/h (2 Bft) 95,74 %
06.08.2018 19:42 28,5 C 27,2 C 31,7 C 38 % 1012,2 hPa 0,0 l/m 5,3 km/h (1 Bft) O-NO 74 2 min 0,000 mm 0,0 UV-I 81 W/m 12,8 C 28,5 C 9,7 km/h (2 Bft) 93,62 %
06.08.2018 19:44 28,4 C 27,2 C 31,1 C 39 % 1012,2 hPa 0,0 l/m 5,3 km/h (1 Bft) O-NO 73 2 min 0,000 mm 0,0 UV-I 77 W/m 13,1 C 28,4 C 8,0 km/h (2 Bft) 93,62 %
06.08.2018 19:46 28,4 C 27,2 C 31,1 C 38 % 1012,2 hPa 0,0 l/m 5,3 km/h (1 Bft) O-NO 64 2 min 0,000 mm 0,0 UV-I 74 W/m 12,7 C 28,4 C 6,4 km/h (2 Bft) 89,36 %
06.08.2018 19:48 28,2 C 27,2 C 30,6 C 39 % 1012,2 hPa 0,0 l/m 4,8 km/h (1 Bft) O-NO 76 2 min 0,000 mm 0,0 UV-I 70 W/m 12,9 C 28,2 C 6,4 km/h (2 Bft) 93,18 %
06.08.2018 19:50 28,1 C 27,2 C 30,6 C 39 % 1012,2 hPa 0,0 l/m 5,2 km/h (1 Bft) O-NO 69 2 min 0,000 mm 0,0 UV-I 68 W/m 12,8 C 28,1 C 8,0 km/h (2 Bft) 94,74 %
06.08.2018 19:52 28,0 C 27,2 C 30,0 C 40 % 1012,2 hPa 0,0 l/m 6,2 km/h (2 Bft) O 80 2 min 0,000 mm 0,0 UV-I 65 W/m 13,1 C 28,0 C 8,0 km/h (2 Bft) 91,07 %
06.08.2018 19:54 27,9 C 27,2 C 29,4 C 40 % 1012,2 hPa 0,0 l/m 6,0 km/h (2 Bft) O-NO 76 2 min 0,000 mm 0,0 UV-I 54 W/m 13,0 C 27,9 C 9,7 km/h (2 Bft) 94,00 %
06.08.2018 19:56 27,9 C 27,2 C 28,3 C 41 % 1012,3 hPa 0,0 l/m 5,9 km/h (2 Bft) O 81 2 min 0,000 mm 0,0 UV-I 55 W/m 13,4 C 27,9 C 8,0 km/h (2 Bft) 95,74 %
06.08.2018 19:58 27,7 C 27,2 C 27,2 C 42 % 1012,3 hPa 0,0 l/m 4,8 km/h (1 Bft) O-NO 78 2 min 0,000 mm 0,0 UV-I 50 W/m 13,6 C 27,7 C 6,4 km/h (2 Bft) 97,22 %
06.08.2018 20:00 27,4 C 27,2 C 26,7 C 42 % 1012,3 hPa 0,0 l/m 4,9 km/h (1 Bft) O 82 2 min 0,000 mm 0,0 UV-I 48 W/m 13,3 C 27,4 C 8,0 km/h (2 Bft) 92,73 %
06.08.2018 20:02 27,2 C 27,2 C 26,1 C 42 % 1012,4 hPa 0,0 l/m 4,4 km/h (1 Bft) O 84 2 min 0,152 mm 0,0 UV-I 49 W/m 13,2 C 27,2 C 6,4 km/h (2 Bft) 95,83 %
06.08.2018 20:04 27,1 C 27,2 C 25,0 C 42 % 1012,4 hPa 0,0 l/m 4,1 km/h (1 Bft) O-NO 71 2 min 0,000 mm 0,0 UV-I 47 W/m 13,1 C 27,1 C 6,4 km/h (2 Bft) 97,87 %
06.08.2018 20:06 26,9 C 27,2 C 25,0 C 43 % 1012,4 hPa 0,0 l/m 3,0 km/h (1 Bft) O-NO 69 2 min 0,000 mm 0,0 UV-I 45 W/m 13,2 C 26,9 C 4,8 km/h (1 Bft) 98,00 %
06.08.2018 20:08 26,8 C 27,2 C 24,4 C 43 % 1012,4 hPa 0,0 l/m 3,9 km/h (1 Bft) O-NO 68 2 min 0,000 mm 0,0 UV-I 42 W/m 13,2 C 26,8 C 4,8 km/h (1 Bft) 97,14 %
06.08.2018 20:10 26,7 C 27,2 C 24,4 C 43 % 1012,4 hPa 0,0 l/m 3,8 km/h (1 Bft) O-NO 66 2 min 0,000 mm 0,0 UV-I 39 W/m 13,1 C 26,7 C 6,4 km/h (2 Bft) 96,00 %
06.08.2018 20:12 26,7 C 27,2 C 23,9 C 44 % 1012,4 hPa 0,0 l/m 4,0 km/h (1 Bft) O-NO 78 2 min 0,000 mm 0,0 UV-I 27 W/m 13,4 C 26,7 C 6,4 km/h (2 Bft) 98,11 %
06.08.2018 20:14 26,6 C 27,2 C 23,3 C 44 % 1012,4 hPa 0,0 l/m 3,1 km/h (1 Bft) NO 55 2 min 0,000 mm 0,0 UV-I 19 W/m 13,3 C 26,6 C 4,8 km/h (1 Bft) 100,00 %
06.08.2018 20:16 26,4 C 27,2 C 23,3 C 44 % 1012,4 hPa 0,0 l/m 3,3 km/h (1 Bft) O-NO 69 2 min 0,000 mm 0,0 UV-I 18 W/m 13,1 C 26,4 C 4,8 km/h (1 Bft) 100,00 %
06.08.2018 20:18 26,3 C 27,2 C 22,8 C 45 % 1012,4 hPa 0,0 l/m 3,5 km/h (1 Bft) O-NO 69 2 min 0,000 mm 0,0 UV-I 16 W/m 13,4 C 26,3 C 4,8 km/h (1 Bft) 100,00 %
06.08.2018 20:20 26,3 C 27,2 C 22,8 C 44 % 1012,4 hPa 0,0 l/m 3,8 km/h (1 Bft) O 80 2 min 0,000 mm 0,0 UV-I 16 W/m 13,1 C 26,3 C 6,4 km/h (2 Bft) 97,87 %
06.08.2018 20:22 26,3 C 27,2 C 22,2 C 45 % 1012,4 hPa 0,0 l/m 4,1 km/h (1 Bft) O 98 0 min 0,000 mm 0,0 UV-I 15 W/m 13,4 C 26,3 C 6,4 km/h (2 Bft) 100,00 %
06.08.2018 20:24 26,3 C 27,2 C 22,2 C 44 % 1012,5 hPa 0,0 l/m 3,6 km/h (1 Bft) O-SO 113 0 min 0,000 mm 0,0 UV-I 14 W/m 13,1 C 26,3 C 4,8 km/h (1 Bft) 100,00 %
06.08.2018 20:26 26,3 C 27,2 C 22,2 C 44 % 1012,5 hPa 0,0 l/m 4,3 km/h (1 Bft) O-SO 111 0 min 0,000 mm 0,0 UV-I 12 W/m 13,1 C 26,3 C 6,4 km/h (2 Bft) 100,00 %
06.08.2018 20:28 26,3 C 27,2 C 22,2 C 44 % 1012,5 hPa 0,0 l/m 3,5 km/h (1 Bft) O-SO 109 0 min 0,000 mm 0,0 UV-I 12 W/m 13,1 C 26,3 C 6,4 km/h (2 Bft) 100,00 %
06.08.2018 20:30 26,3 C 27,2 C 22,2 C 44 % 1012,5 hPa 0,0 l/m 3,5 km/h (1 Bft) O-SO 113 0 min 0,000 mm 0,0 UV-I 11 W/m 13,1 C 26,3 C 6,4 km/h (2 Bft) 100,00 %
06.08.2018 20:32 26,3 C 27,2 C 22,8 C 45 % 1012,5 hPa 0,0 l/m 6,7 km/h (2 Bft) O-SO 112 0 min 0,000 mm 0,0 UV-I 11 W/m 13,4 C 26,2 C 11,3 km/h (2 Bft) 98,00 %
06.08.2018 20:34 26,3 C 27,2 C 22,8 C 45 % 1012,5 hPa 0,0 l/m 6,4 km/h (2 Bft) O 97 0 min 0,000 mm 0,0 UV-I 9 W/m 13,4 C 26,3 C 9,7 km/h (2 Bft) 100,00 %
06.08.2018 20:36 26,4 C 27,2 C 22,8 C 45 % 1012,5 hPa 0,0 l/m 5,2 km/h (1 Bft) O-SO 115 0 min 0,000 mm 0,0 UV-I 9 W/m 13,5 C 26,4 C 6,4 km/h (2 Bft) 100,00 %
06.08.2018 20:38 26,3 C 27,2 C 22,8 C 45 % 1012,6 hPa 0,0 l/m 4,9 km/h (1 Bft) O 96 0 min 0,000 mm 0,0 UV-I 9 W/m 13,4 C 26,3 C 11,3 km/h (2 Bft) 100,00 %
06.08.2018 20:40 26,3 C 27,2 C 22,8 C 46 % 1012,6 hPa 0,0 l/m 7,6 km/h (2 Bft) O-SO 118 0 min 0,000 mm 0,0 UV-I 9 W/m 13,7 C 26,0 C 11,3 km/h (2 Bft) 98,21 %
06.08.2018 20:42 26,3 C 27,2 C 23,3 C 46 % 1012,6 hPa 0,0 l/m 8,0 km/h (2 Bft) O 101 0 min 0,000 mm 0,0 UV-I 9 W/m 13,7 C 26,0 C 14,5 km/h (3 Bft) 100,00 %
06.08.2018 20:44 26,2 C 27,2 C 23,3 C 46 % 1012,6 hPa 0,0 l/m 5,5 km/h (1 Bft) O 88 0 min 0,000 mm 0,0 UV-I 9 W/m 13,6 C 26,2 C 9,7 km/h (2 Bft) 100,00 %
06.08.2018 20:46 26,2 C 27,2 C 23,3 C 47 % 1012,7 hPa 0,0 l/m 6,6 km/h (2 Bft) O-SO 104 0 min 0,000 mm 0,0 UV-I 9 W/m 14,0 C 26,2 C 12,9 km/h (3 Bft) 100,00 %
06.08.2018 20:48 26,2 C 27,2 C 23,3 C 47 % 1012,7 hPa 0,0 l/m 7,6 km/h (2 Bft) O-SO 116 0 min 0,000 mm 0,0 UV-I 0 W/m 14,0 C 25,9 C 12,9 km/h (3 Bft) 100,00 %
06.08.2018 20:50 26,1 C 27,2 C 23,3 C 47 % 1012,7 hPa 0,0 l/m 8,5 km/h (2 Bft) O 98 0 min 0,000 mm 0,0 UV-I 0 W/m 13,9 C 25,7 C 14,5 km/h (3 Bft) 100,00 %
06.08.2018 20:52 26,1 C 27,2 C 23,3 C 48 % 1012,7 hPa 0,0 l/m 6,7 km/h (2 Bft) O 92 0 min 0,000 mm 0,0 UV-I 5 W/m 14,2 C 26,0 C 11,3 km/h (2 Bft) 100,00 %
06.08.2018 20:54 26,0 C 27,2 C 23,3 C 48 % 1012,7 hPa 0,0 l/m 7,9 km/h (2 Bft) SO 129 0 min 0,000 mm 0,0 UV-I 4 W/m 14,1 C 25,7 C 12,9 km/h (3 Bft) 100,00 %
06.08.2018 20:56 25,9 C 27,2 C 23,3 C 48 % 1012,7 hPa 0,0 l/m 5,6 km/h (1 Bft) O 94 0 min 0,000 mm 0,0 UV-I 0 W/m 14,0 C 25,9 C 11,3 km/h (2 Bft) 100,00 %
06.08.2018 20:58 25,7 C 27,2 C 23,3 C 49 % 1012,8 hPa 0,0 l/m 5,2 km/h (1 Bft) O-SO 107 0 min 0,000 mm 0,0 UV-I 0 W/m 14,2 C 25,7 C 9,7 km/h (2 Bft) 100,00 %
06.08.2018 21:00 25,7 C 27,2 C 23,3 C 49 % 1012,8 hPa 0,0 l/m 5,6 km/h (1 Bft) O-SO 123 0 min 0,076 mm 0,0 UV-I 0 W/m 14,2 C 25,7 C 9,7 km/h (2 Bft) 95,74 %
06.08.2018 21:02 25,7 C 27,2 C 22,8 C 49 % 1012,8 hPa 0,0 l/m 6,4 km/h (2 Bft) O 79 0 min 0,000 mm 0,0 UV-I 0 W/m 14,2 C 25,7 C 11,3 km/h (2 Bft) 100,00 %
06.08.2018 21:04 25,7 C 27,2 C 23,3 C 49 % 1012,8 hPa 0,0 l/m 7,7 km/h (2 Bft) O-SO 111 0 min 0,000 mm 0,0 UV-I 0 W/m 14,2 C 25,4 C 12,9 km/h (3 Bft) 97,37 %
06.08.2018 21:06 25,7 C 27,2 C 23,3 C 50 % 1012,8 hPa 0,0 l/m 8,3 km/h (2 Bft) O-SO 105 0 min 0,000 mm 0,0 UV-I 0 W/m 14,5 C 25,3 C 12,9 km/h (3 Bft) 96,23 %
06.08.2018 21:08 25,7 C 27,2 C 23,3 C 50 % 1012,8 hPa 0,0 l/m 6,6 km/h (2 Bft) O-SO 105 0 min 0,000 mm 0,0 UV-I 0 W/m 14,5 C 25,7 C 12,9 km/h (3 Bft) 96,23 %
06.08.2018 21:10 25,6 C 27,2 C 23,3 C 50 % 1012,8 hPa 0,0 l/m 7,5 km/h (2 Bft) O 89 0 min 0,000 mm 0,0 UV-I 0 W/m 14,4 C 25,3 C 11,3 km/h (2 Bft) 97,87 %
06.08.2018 21:12 25,4 C 27,2 C 23,3 C 51 % 1012,9 hPa 0,0 l/m 8,1 km/h (2 Bft) O 83 0 min 0,000 mm 0,0 UV-I 0 W/m 14,5 C 25,0 C 11,3 km/h (2 Bft) 100,00 %
06.08.2018 21:14 25,3 C 27,2 C 22,8 C 51 % 1012,9 hPa 0,0 l/m 6,0 km/h (2 Bft) O-SO 105 0 min 0,000 mm 0,0 UV-I 0 W/m 14,4 C 25,3 C 9,7 km/h (2 Bft) 97,37 %
06.08.2018 21:16 25,2 C 27,2 C 22,8 C 51 % 1012,9 hPa 0,0 l/m 4,8 km/h (1 Bft) O-NO 73 0 min 0,000 mm 0,0 UV-I 0 W/m 14,3 C 25,2 C 6,4 km/h (2 Bft) 97,01 %
06.08.2018 21:18 25,0 C 27,2 C 22,8 C 52 % 1012,9 hPa 0,0 l/m 4,6 km/h (1 Bft) O-NO 77 0 min 0,000 mm 0,0 UV-I 0 W/m 14,4 C 25,0 C 8,0 km/h (2 Bft) 97,44 %
06.08.2018 21:20 24,8 C 27,2 C 22,8 C 53 % 1012,9 hPa 0,0 l/m 3,8 km/h (1 Bft) O-NO 78 0 min 0,000 mm 0,0 UV-I 0 W/m 14,6 C 24,8 C 6,4 km/h (2 Bft) 98,11 %
06.08.2018 21:22 24,7 C 27,2 C 22,2 C 53 % 1013,0 hPa 0,0 l/m 3,8 km/h (1 Bft) O 95 0 min 0,000 mm 0,0 UV-I 0 W/m 14,5 C 24,7 C 6,4 km/h (2 Bft) 97,14 %
06.08.2018 21:24 24,6 C 27,2 C 22,2 C 54 % 1013,0 hPa 0,0 l/m 4,8 km/h (1 Bft) O 94 0 min 0,000 mm 0,0 UV-I 0 W/m 14,7 C 24,6 C 6,4 km/h (2 Bft) 98,11 %
06.08.2018 21:26 24,6 C 27,2 C 22,2 C 54 % 1013,0 hPa 0,0 l/m 4,5 km/h (1 Bft) O 98 0 min 0,000 mm 0,0 UV-I 0 W/m 14,7 C 24,6 C 6,4 km/h (2 Bft) 100,00 %
06.08.2018 21:28 24,6 C 27,2 C 22,2 C 53 % 1013,0 hPa 0,0 l/m 4,7 km/h (1 Bft) O 95 0 min 0,000 mm 0,0 UV-I 0 W/m 14,4 C 24,6 C 6,4 km/h (2 Bft) 97,37 %
06.08.2018 21:30 24,7 C 27,2 C 22,2 C 53 % 1013,0 hPa 0,0 l/m 4,2 km/h (1 Bft) O-SO 110 0 min 0,000 mm 0,0 UV-I 0 W/m 14,5 C 24,7 C 6,4 km/h (2 Bft) 98,11 %
06.08.2018 21:32 24,7 C 27,2 C 22,2 C 53 % 1013,0 hPa 0,0 l/m 4,2 km/h (1 Bft) O 87 0 min 0,000 mm 0,0 UV-I 0 W/m 14,5 C 24,7 C 4,8 km/h (1 Bft) 100,00 %
06.08.2018 21:34 24,7 C 27,2 C 22,2 C 53 % 1013,0 hPa 0,0 l/m 3,8 km/h (1 Bft) O-NO 76 0 min 0,000 mm 0,0 UV-I 0 W/m 14,5 C 24,7 C 6,4 km/h (2 Bft) 96,00 %
06.08.2018 21:36 24,6 C 27,2 C 21,7 C 53 % 1013,0 hPa 0,0 l/m 5,3 km/h (1 Bft) O-NO 69 0 min 0,000 mm 0,0 UV-I 0 W/m 14,4 C 24,6 C 8,0 km/h (2 Bft) 96,55 %
06.08.2018 21:38 24,4 C 27,2 C 22,2 C 54 % 1013,1 hPa 0,0 l/m 4,9 km/h (1 Bft) O-NO 76 0 min 0,000 mm 0,0 UV-I 0 W/m 14,5 C 24,4 C 8,0 km/h (2 Bft) 95,59 %
06.08.2018 21:40 24,4 C 27,2 C 22,2 C 54 % 1013,0 hPa 0,0 l/m 4,2 km/h (1 Bft) O 92 0 min 0,000 mm 0,0 UV-I 0 W/m 14,5 C 24,4 C 6,4 km/h (2 Bft) 100,00 %
06.08.2018 21:42 24,3 C 27,2 C 22,2 C 55 % 1013,0 hPa 0,0 l/m 4,6 km/h (1 Bft) O 84 0 min 0,000 mm 0,0 UV-I 0 W/m 14,7 C 24,3 C 8,0 km/h (2 Bft) 96,23 %
06.08.2018 21:44 24,2 C 27,2 C 22,2 C 55 % 1013,1 hPa 0,0 l/m 4,4 km/h (1 Bft) NO 48 0 min 0,000 mm 0,0 UV-I 0 W/m 14,6 C 24,2 C 6,4 km/h (2 Bft) 97,37 %
06.08.2018 21:46 24,1 C 27,2 C 22,2 C 55 % 1013,1 hPa 0,0 l/m 5,1 km/h (1 Bft) O-NO 75 0 min 0,000 mm 0,0 UV-I 0 W/m 14,5 C 24,1 C 6,4 km/h (2 Bft) 98,00 %
06.08.2018 21:48 23,9 C 27,2 C 21,7 C 56 % 1013,1 hPa 0,0 l/m 4,8 km/h (1 Bft) O 84 0 min 0,000 mm 0,0 UV-I 0 W/m 14,6 C 23,9 C 8,0 km/h (2 Bft) 95,74 %
06.08.2018 21:50 23,9 C 27,2 C 21,7 C 56 % 1013,1 hPa 0,0 l/m 5,3 km/h (1 Bft) O 86 0 min 0,000 mm 0,0 UV-I 0 W/m 14,6 C 23,9 C 6,4 km/h (2 Bft) 97,62 %
06.08.2018 21:52 23,8 C 27,2 C 21,7 C 56 % 1013,1 hPa 0,0 l/m 4,6 km/h (1 Bft) O-SO 105 0 min 0,000 mm 0,0 UV-I 0 W/m 14,5 C 23,8 C 9,7 km/h (2 Bft) 98,00 %
06.08.2018 21:54 23,8 C 27,2 C 21,7 C 56 % 1013,1 hPa 0,0 l/m 4,5 km/h (1 Bft) O-SO 106 0 min 0,000 mm 0,0 UV-I 0 W/m 14,5 C 23,8 C 6,4 km/h (2 Bft) 95,74 %
06.08.2018 21:56 23,8 C 27,2 C 21,7 C 56 % 1013,1 hPa 0,0 l/m 5,9 km/h (2 Bft) O 87 0 min 0,000 mm 0,0 UV-I 0 W/m 14,5 C 23,8 C 9,7 km/h (2 Bft) 96,00 %
06.08.2018 21:58 23,8 C 27,2 C 21,7 C 56 % 1013,0 hPa 0,0 l/m 4,6 km/h (1 Bft) O 88 0 min 0,000 mm 0,0 UV-I 0 W/m 14,5 C 23,8 C 6,4 km/h (2 Bft) 97,56 %
06.08.2018 22:00 23,9 C 27,2 C 22,2 C 56 % 1013,0 hPa 0,0 l/m 4,9 km/h (1 Bft) O-NO 70 0 min 0,000 mm 0,0 UV-I 0 W/m 14,6 C 23,9 C 8,0 km/h (2 Bft) 95,74 %
06.08.2018 22:02 23,9 C 27,2 C 22,2 C 56 % 1013,1 hPa 0,0 l/m 5,4 km/h (1 Bft) O 90 0 min 0,051 mm 0,0 UV-I 0 W/m 14,6 C 23,9 C 9,7 km/h (2 Bft) 98,00 %
06.08.2018 22:04 23,9 C 27,2 C 22,2 C 56 % 1013,1 hPa 0,0 l/m 4,1 km/h (1 Bft) O 79 0 min 0,000 mm 0,0 UV-I 0 W/m 14,6 C 23,9 C 6,4 km/h (2 Bft) 100,00 %
06.08.2018 22:06 23,9 C 27,2 C 22,2 C 56 % 1013,1 hPa 0,0 l/m 3,0 km/h (1 Bft) O-SO 103 0 min 0,000 mm 0,0 UV-I 0 W/m 14,6 C 23,9 C 4,8 km/h (1 Bft) 100,00 %
06.08.2018 22:08 23,8 C 27,2 C 22,2 C 56 % 1013,1 hPa 0,0 l/m 5,3 km/h (1 Bft) O 96 0 min 0,000 mm 0,0 UV-I 0 W/m 14,5 C 23,8 C 9,7 km/h (2 Bft) 98,00 %
06.08.2018 22:10 23,8 C 27,2 C 22,2 C 56 % 1013,1 hPa 0,0 l/m 4,9 km/h (1 Bft) O 95 0 min 0,000 mm 0,0 UV-I 0 W/m 14,5 C 23,8 C 6,4 km/h (2 Bft) 100,00 %
06.08.2018 22:12 23,8 C 27,2 C 22,2 C 56 % 1013,1 hPa 0,0 l/m 4,9 km/h (1 Bft) O 85 0 min 0,000 mm 0,0 UV-I 0 W/m 14,5 C 23,8 C 11,3 km/h (2 Bft) 100,00 %
06.08.2018 22:14 23,8 C 27,2 C 21,7 C 56 % 1013,1 hPa 0,0 l/m 4,3 km/h (1 Bft) O-SO 108 0 min 0,000 mm 0,0 UV-I 0 W/m 14,5 C 23,8 C 6,4 km/h (2 Bft) 100,00 %
06.08.2018 22:16 23,7 C 27,2 C 21,7 C 56 % 1013,1 hPa 0,0 l/m 5,1 km/h (1 Bft) O 84 0 min 0,000 mm 0,0 UV-I 0 W/m 14,4 C 23,7 C 11,3 km/h (2 Bft) 100,00 %
06.08.2018 22:19 23,8 C 27,2 C 21,7 C 56 % 1013,1 hPa 0,0 l/m 4,9 km/h (1 Bft) O 82 0 min 0,000 mm 0,0 UV-I 0 W/m 14,5 C 23,8 C 9,7 km/h (2 Bft) 98,65 %
06.08.2018 22:20 23,7 C 27,2 C 21,7 C 57 % 1013,1 hPa 0,0 l/m 5,1 km/h (1 Bft) O 81 0 min 0,000 mm 0,0 UV-I 0 W/m 14,7 C 23,7 C 6,4 km/h (2 Bft) 100,00 %
06.08.2018 22:22 23,7 C 27,2 C 21,7 C 57 % 1013,1 hPa 0,0 l/m 4,6 km/h (1 Bft) O 90 0 min 0,000 mm 0,0 UV-I 0 W/m 14,7 C 23,7 C 9,7 km/h (2 Bft) 100,00 %
06.08.2018 22:24 23,6 C 27,2 C 21,1 C 57 % 1013,1 hPa 0,0 l/m 5,3 km/h (1 Bft) O 92 0 min 0,000 mm 0,0 UV-I 0 W/m 14,6 C 23,6 C 11,3 km/h (2 Bft) 100,00 %
06.08.2018 22:26 23,5 C 27,2 C 21,1 C 57 % 1013,1 hPa 0,0 l/m 4,0 km/h (1 Bft) O-NO 74 0 min 0,000 mm 0,0 UV-I 0 W/m 14,5 C 23,5 C 4,8 km/h (1 Bft) 100,00 %
06.08.2018 22:28 23,4 C 27,2 C 21,7 C 58 % 1013,1 hPa 0,0 l/m 4,1 km/h (1 Bft) O 83 0 min 0,000 mm 0,0 UV-I 0 W/m 14,7 C 23,4 C 6,4 km/h (2 Bft) 98,08 %
06.08.2018 22:30 23,3 C 27,2 C 21,7 C 58 % 1013,1 hPa 0,0 l/m 3,4 km/h (1 Bft) O 90 0 min 0,000 mm 0,0 UV-I 0 W/m 14,6 C 23,3 C 4,8 km/h (1 Bft) 100,00 %
06.08.2018 22:32 23,2 C 27,2 C 21,1 C 58 % 1013,0 hPa 0,0 l/m 5,1 km/h (1 Bft) O 80 0 min 0,000 mm 0,0 UV-I 0 W/m 14,5 C 23,2 C 6,4 km/h (2 Bft) 100,00 %
06.08.2018 22:34 23,2 C 27,2 C 21,1 C 58 % 1013,0 hPa 0,0 l/m 5,0 km/h (1 Bft) O 79 0 min 0,000 mm 0,0 UV-I 0 W/m 14,5 C 23,2 C 9,7 km/h (2 Bft) 97,87 %
06.08.2018 22:36 23,3 C 27,2 C 21,1 C 58 % 1013,0 hPa 0,0 l/m 5,7 km/h (1 Bft) O-NO 69 0 min 0,000 mm 0,0 UV-I 0 W/m 14,6 C 23,3 C 8,0 km/h (2 Bft) 96,43 %
06.08.2018 22:39 23,3 C 27,2 C 21,1 C 58 % 1013,0 hPa 0,0 l/m 6,0 km/h (2 Bft) O-NO 74 0 min 0,000 mm 0,0 UV-I 0 W/m 14,6 C 23,3 C 9,7 km/h (2 Bft) 98,63 %
06.08.2018 22:40 23,3 C 27,2 C 21,1 C 58 % 1013,0 hPa 0,0 l/m 5,7 km/h (1 Bft) O-NO 68 0 min 0,000 mm 0,0 UV-I 0 W/m 14,6 C 23,3 C 8,0 km/h (2 Bft) 93,33 %
06.08.2018 22:42 23,3 C 27,2 C 21,1 C 58 % 1013,1 hPa 0,0 l/m 4,8 km/h (1 Bft) O-NO 61 0 min 0,000 mm 0,0 UV-I 0 W/m 14,6 C 23,3 C 8,0 km/h (2 Bft) 96,00 %
06.08.2018 22:44 23,2 C 27,2 C 21,1 C 58 % 1013,1 hPa 0,0 l/m 5,8 km/h (2 Bft) O-NO 71 0 min 0,000 mm 0,0 UV-I 0 W/m 14,5 C 23,2 C 8,0 km/h (2 Bft) 95,74 %
06.08.2018 22:46 23,2 C 27,2 C 21,1 C 58 % 1013,1 hPa 0,0 l/m 4,4 km/h (1 Bft) O-NO 69 0 min 0,000 mm 0,0 UV-I 0 W/m 14,5 C 23,2 C 6,4 km/h (2 Bft) 98,00 %
06.08.2018 22:48 23,1 C 27,2 C 20,6 C 59 % 1013,1 hPa 0,0 l/m 4,7 km/h (1 Bft) O-NO 57 0 min 0,000 mm 0,0 UV-I 0 W/m 14,6 C 23,1 C 6,4 km/h (2 Bft) 95,74 %
06.08.2018 22:50 23,1 C 27,2 C 20,6 C 58 % 1013,2 hPa 0,0 l/m 5,0 km/h (1 Bft) O-NO 63 0 min 0,000 mm 0,0 UV-I 0 W/m 14,4 C 23,1 C 6,4 km/h (2 Bft) 97,73 %
06.08.2018 22:52 23,1 C 27,2 C 20,6 C 58 % 1013,1 hPa 0,0 l/m 4,2 km/h (1 Bft) NO 54 0 min 0,000 mm 0,0 UV-I 0 W/m 14,4 C 23,1 C 6,4 km/h (2 Bft) 97,37 %
06.08.2018 22:54 23,1 C 27,2 C 20,6 C 58 % 1013,2 hPa 0,0 l/m 5,0 km/h (1 Bft) O-NO 64 0 min 0,000 mm 0,0 UV-I 0 W/m 14,4 C 23,1 C 8,0 km/h (2 Bft) 95,74 %
06.08.2018 22:56 22,9 C 27,2 C 20,6 C 58 % 1013,2 hPa 0,0 l/m 5,2 km/h (1 Bft) O-NO 67 0 min 0,000 mm 0,0 UV-I 0 W/m 14,2 C 22,9 C 8,0 km/h (2 Bft) 98,11 %
06.08.2018 22:58 22,8 C 27,2 C 20,6 C 59 % 1013,2 hPa 0,0 l/m 3,9 km/h (1 Bft) NO 53 0 min 0,000 mm 0,0 UV-I 0 W/m 14,4 C 22,8 C 6,4 km/h (2 Bft) 96,00 %
06.08.2018 23:00 22,8 C 27,2 C 20,6 C 59 % 1013,2 hPa 0,0 l/m 3,5 km/h (1 Bft) NO 55 0 min 0,000 mm 0,0 UV-I 0 W/m 14,4 C 22,8 C 4,8 km/h (1 Bft) 97,37 %
06.08.2018 23:02 22,8 C 27,2 C 20,6 C 59 % 1013,2 hPa 0,0 l/m 4,5 km/h (1 Bft) NO 34 0 min 0,051 mm 0,0 UV-I 0 W/m 14,4 C 22,8 C 4,8 km/h (1 Bft) 98,11 %
06.08.2018 23:04 22,8 C 27,2 C 20,6 C 59 % 1013,2 hPa 0,0 l/m 4,6 km/h (1 Bft) NO 55 0 min 0,000 mm 0,0 UV-I 0 W/m 14,4 C 22,8 C 6,4 km/h (2 Bft) 97,87 %
06.08.2018 23:06 22,8 C 27,2 C 20,0 C 59 % 1013,3 hPa 0,0 l/m 5,7 km/h (1 Bft) NO 44 0 min 0,000 mm 0,0 UV-I 0 W/m 14,4 C 22,8 C 8,0 km/h (2 Bft) 98,00 %
06.08.2018 23:08 22,8 C 27,2 C 20,0 C 59 % 1013,2 hPa 0,0 l/m 4,5 km/h (1 Bft) O-NO 67 0 min 0,000 mm 0,0 UV-I 0 W/m 14,4 C 22,8 C 6,4 km/h (2 Bft) 95,45 %
06.08.2018 23:10 22,7 C 27,2 C 20,0 C 59 % 1013,3 hPa 0,0 l/m 4,4 km/h (1 Bft) O-NO 61 0 min 0,000 mm 0,0 UV-I 0 W/m 14,3 C 22,7 C 6,4 km/h (2 Bft) 96,00 %
06.08.2018 23:12 22,7 C 27,2 C 20,0 C 59 % 1013,3 hPa 0,0 l/m 4,9 km/h (1 Bft) O-NO 61 0 min 0,000 mm 0,0 UV-I 0 W/m 14,3 C 22,7 C 6,4 km/h (2 Bft) 97,92 %
06.08.2018 23:14 22,7 C 27,2 C 19,4 C 59 % 1013,4 hPa 0,0 l/m 4,1 km/h (1 Bft) NO 54 0 min 0,000 mm 0,0 UV-I 0 W/m 14,3 C 22,7 C 4,8 km/h (1 Bft) 97,37 %
06.08.2018 23:16 22,6 C 27,2 C 20,0 C 60 % 1013,3 hPa 0,0 l/m 3,8 km/h (1 Bft) NO 49 0 min 0,000 mm 0,0 UV-I 0 W/m 14,4 C 22,6 C 6,4 km/h (2 Bft) 98,00 %
06.08.2018 23:18 22,5 C 26,7 C 20,0 C 60 % 1013,4 hPa 0,0 l/m 3,4 km/h (1 Bft) NO 49 0 min 0,000 mm 0,0 UV-I 0 W/m 14,3 C 22,5 C 4,8 km/h (1 Bft) 96,00 %
06.08.2018 23:20 22,4 C 27,2 C 20,0 C 60 % 1013,3 hPa 0,0 l/m 3,6 km/h (1 Bft) O-NO 69 0 min 0,000 mm 0,0 UV-I 0 W/m 14,2 C 22,4 C 4,8 km/h (1 Bft) 97,87 %
06.08.2018 23:22 22,4 C 27,2 C 19,4 C 60 % 1013,3 hPa 0,0 l/m 4,0 km/h (1 Bft) NO 53 0 min 0,000 mm 0,0 UV-I 0 W/m 14,2 C 22,4 C 4,8 km/h (1 Bft) 92,11 %
06.08.2018 23:24 22,3 C 27,2 C 19,4 C 61 % 1013,3 hPa 0,0 l/m 4,1 km/h (1 Bft) NO 44 0 min 0,000 mm 0,0 UV-I 0 W/m 14,4 C 22,3 C 6,4 km/h (2 Bft) 98,11 %
06.08.2018 23:26 22,3 C 27,2 C 19,4 C 61 % 1013,2 hPa 0,0 l/m 3,9 km/h (1 Bft) NO 44 0 min 0,000 mm 0,0 UV-I 0 W/m 14,4 C 22,3 C 6,4 km/h (2 Bft) 97,56 %
06.08.2018 23:28 22,3 C 27,2 C 19,4 C 61 % 1013,3 hPa 0,0 l/m 4,7 km/h (1 Bft) NO 49 0 min 0,000 mm 0,0 UV-I 0 W/m 14,4 C 22,3 C 6,4 km/h (2 Bft) 96,00 %
06.08.2018 23:30 22,2 C 26,7 C 19,4 C 61 % 1013,3 hPa 0,0 l/m 4,3 km/h (1 Bft) NO 49 0 min 0,000 mm 0,0 UV-I 0 W/m 14,3 C 22,2 C 6,4 km/h (2 Bft) 94,34 %
06.08.2018 23:32 22,1 C 26,7 C 20,0 C 62 % 1013,3 hPa 0,0 l/m 4,3 km/h (1 Bft) NO 49 0 min 0,000 mm 0,0 UV-I 0 W/m 14,5 C 22,1 C 6,4 km/h (2 Bft) 91,49 %
06.08.2018 23:34 22,0 C 26,7 C 20,0 C 62 % 1013,3 hPa 0,0 l/m 5,1 km/h (1 Bft) NO 49 0 min 0,000 mm 0,0 UV-I 0 W/m 14,4 C 22,0 C 6,4 km/h (2 Bft) 97,37 %
06.08.2018 23:36 21,9 C 26,7 C 20,0 C 62 % 1013,3 hPa 0,0 l/m 4,4 km/h (1 Bft) NO 51 0 min 0,000 mm 0,0 UV-I 0 W/m 14,3 C 21,9 C 4,8 km/h (1 Bft) 95,45 %
06.08.2018 23:39 22,0 C 26,7 C 20,0 C 62 % 1013,3 hPa 0,0 l/m 3,4 km/h (1 Bft) NO 51 0 min 0,000 mm 0,0 UV-I 0 W/m 14,4 C 22,0 C 4,8 km/h (1 Bft) 94,81 %
06.08.2018 23:40 22,0 C 26,7 C 20,0 C 62 % 1013,3 hPa 0,0 l/m 2,8 km/h (1 Bft) NO 51 0 min 0,000 mm 0,0 UV-I 0 W/m 14,4 C 22,0 C 3,2 km/h (1 Bft) 91,67 %
06.08.2018 23:42 21,9 C 26,7 C 19,4 C 63 % 1013,3 hPa 0,0 l/m 2,8 km/h (1 Bft) NO 51 0 min 0,000 mm 0,0 UV-I 0 W/m 14,5 C 21,9 C 4,8 km/h (1 Bft) 95,08 %
06.08.2018 23:44 22,0 C 26,7 C 19,4 C 62 % 1013,4 hPa 0,0 l/m 2,2 km/h (1 Bft) NO 51 0 min 0,000 mm 0,0 UV-I 0 W/m 14,4 C 22,0 C 3,2 km/h (1 Bft) 94,87 %
06.08.2018 23:46 22,1 C 26,7 C 19,4 C 62 % 1013,4 hPa 0,0 l/m 1,7 km/h (1 Bft) NO 51 0 min 0,000 mm 0,0 UV-I 0 W/m 14,5 C 22,1 C 3,2 km/h (1 Bft) 94,29 %
06.08.2018 23:48 22,2 C 26,7 C 19,4 C 62 % 1013,4 hPa 0,0 l/m 1,7 km/h (1 Bft) NO 51 0 min 0,000 mm 0,0 UV-I 0 W/m 14,6 C 22,2 C 3,2 km/h (1 Bft) 95,45 %
06.08.2018 23:50 22,2 C 26,7 C 19,4 C 62 % 1013,4 hPa 0,0 l/m 2,1 km/h (1 Bft) NO 51 0 min 0,000 mm 0,0 UV-I 0 W/m 14,6 C 22,2 C 3,2 km/h (1 Bft) 94,64 %
06.08.2018 23:52 22,2 C 26,7 C 18,9 C 62 % 1013,4 hPa 0,0 l/m 2,5 km/h (1 Bft) NO 51 0 min 0,000 mm 0,0 UV-I 0 W/m 14,6 C 22,2 C 4,8 km/h (1 Bft) 94,34 %
06.08.2018 23:54 22,1 C 26,7 C 18,9 C 62 % 1013,4 hPa 0,0 l/m 2,2 km/h (1 Bft) NO 51 0 min 0,000 mm 0,0 UV-I 0 W/m 14,5 C 22,1 C 3,2 km/h (1 Bft) 96,23 %
06.08.2018 23:56 22,1 C 26,7 C 18,9 C 63 % 1013,4 hPa 0,0 l/m 2,5 km/h (1 Bft) NO 51 0 min 0,000 mm 0,0 UV-I 0 W/m 14,7 C 22,1 C 3,2 km/h (1 Bft) 92,68 %
06.08.2018 23:59 22,1 C 26,7 C 18,9 C 62 % 1013,3 hPa 0,0 l/m 3,4 km/h (1 Bft) NO 51 0 min 0,000 mm 0,0 UV-I 0 W/m 14,5 C 22,1 C 4,8 km/h (1 Bft) 96,05 %
_ Min-Zeit 06:00 06:14 04:34 18:52 19:20 - 00:36 - - - - - - 19:26 06:00 00:36 00:02
Minimum _ 17,7 C 26,1 C 15,6 C 35 % 1012,2 hPa - 0,0 km/h (0 Bft) - - - - - - 12,4 C 17,7 C 0,0 km/h (0 Bft) 9,52 %
_ Max-Zeit 16:54 16:00 15:48 03:34 08:22 00:00 12:46 - - 05:58 15:00 13:44 12:54 12:02 16:14 10:06 00:34
Maximum _ 31,1 C 27,8 C 42,2 C 94 % 1016,8 hPa 0,0 l/m 18,8 km/h
NO (3 Bft)
- - 2 min 0,584 mm 5,7 UV-I 910 W/m 19,0 C 30,9 C 24,1 km/h
NO (4 Bft)
100,00 %
Durchschnitt _ 24,1 C 27,0 C 27,4 C 64 % 1015,0 hPa #0,0 l/m 6,7 km/h (2 Bft) O-NO - #14:10 h #5,385 mm 3,0 UV-I 425 W/m 16,1 C 23,8 C 10,4 km/h (2 Bft) 97,26 %